     2              OBSERVATION DATA    GPS                 RINEX VERSION / TYPE
teqc 1997Jul24 19970814                                     PGM / RUN BY / DATE
                                                            COMMENT
BIT 2 OF LLI FLAGS DATA COLLECTED UNDER A-S CONDITION       COMMENT
BIT 2 OF LLI FLAGS DATA COLLECTED UNDER A-S CONDITION       COMMENT
Original Marker Name: 0512                                  COMMENT
Campaign Name: HPGN 1991                                    COMMENT
4-Character Station Name: 0512                              COMMENT
6-Character Antenna Code: TRMSST                            COMMENT
Vertical Measurement Point: TGP                             COMMENT
Vertical Offset to Rinex Ref. Point: 0.0629                 COMMENT
Radial Measurement Point: OGP                               COMMENT
Radial Offset to Rinex Ref. Point: 0.2413                   COMMENT
Antenna Height from Field Measurement: 1.8100 m             COMMENT
Original XYZ: -2671296.4662 -4389538.5224 3765846.7389      COMMENT
New XYZ position is based on association with SCEC monument COMMENT
E1F0Z1Z0+0011. Position of that monument is believed to be  COMMENT
valid to within 1 m horizontally; vertical accuracy         COMMENT
should be no worse than 3-times this value.                 COMMENT
                                                            COMMENT
Revised Rinex header created by UCSD GPS archive for        COMMENT
GSAC on 19-Apr-1999 (1999:109) 06:42:54 GMT                 COMMENT
For assistance contact dagnew@ucsd.edu or hjohnson@ucsd.edu COMMENT
                                                            COMMENT
HPGN CA 05 12                                               MARKER NAME
unknown NATIONAL GEODETIC SURVEY                            OBSERVER / AGENCY
282 TRIMBLE 4000 SST NP 4.30 / SP 4.20                      REC # / TYPE / VERS
136 TR 4000SST L1/L2 GEO                                    ANT # / TYPE
 -2671297.0000 -4389537.0000  3765839.0000                  APPROX POSITION XYZ
        1.7309        0.0000        0.0000                  ANTENNA: DELTA H/E/N
     1     1     0                                          WAVELENGTH FACT L1/2
     3    C1    L1    L2                                    # / TYPES OF OBSERV
     0                                                      INTERVAL
  1991     5    14    18    17   15.000000                  TIME OF FIRST OBS
  1991     5    15     0    22   15.000000                  TIME OF LAST OBS
     0                                                      # OF SATELLITES
                                                            END OF HEADER
 91  5 14 18 17 15.0000000  0  4G18G 2G11G19
  20738722.695          -0.24218        -0.19532
  24333244.3524         -0.32955        -0.12671
  24498134.0004         -0.79755        -0.25871
  20910754.305          -0.93417        -0.36532
 91  5 14 18 17 30.0000000  0  4G18G 2G11G19
  20741151.898       12766.653 8      9947.98823
  24323123.375      -53147.586 5    -41413.47621
  24490449.797      -40377.948 5    -31462.82721
  20909661.984       -5752.156 7     -4481.85222
 91  5 14 18 17 45.0000000  0  4G18G 2G11G19
  20743593.156       25597.275 8     19945.82422
  24313009.1484    -106303.73145    -82833.74261
  24482773.1484     -80730.29745    -62906.04961
  20908565.461      -11495.419 7     -8957.13722
 91  5 14 18 18  0.0000000  0  4G18G 2G11G19
  20746050.094       38508.366 8     30006.37023
  24302894.4144    -159451.81345   -124247.74361
  24475099.0944    -121040.76745    -94316.65961
  20907481.859      -17214.195 6    -13413.34022
 91  5 14 18 18 15.0000000  0  4G18G 2G11G19
  20748522.680       51505.843 8     40134.23423
  24292788.0004    -212585.70345   -165650.67661
  24467437.7894    -161302.85045   -125689.54461
  20906395.898      -22902.382 7    -17845.70822
 91  5 14 18 18 30.0000000  0  4G18G 2G11G19
  20751014.672       64594.991 8     50333.52223
  24282682.031     -265699.892 5   -207038.28021
  24459786.8134    -201510.94045   -157020.38661
  20905323.039      -28555.006 7    -22250.36422
 91  5 14 18 18 45.0000000  0  4G18G 2G11G19
  20753523.273       77773.918 8     60602.76723
  24272571.953     -318796.123 5   -248411.89221
  24452143.9774    -241666.32445   -188310.14361
  20904250.742      -34173.824 7    -26628.67622
 91  5 14 18 19  0.0000000  0  4G18G 2G11G19
  20756047.883       91041.641 8     70941.20822
  24262479.6414    -371875.26845   -289772.19061
  24444512.5554    -281769.64445   -219559.31361
  20903191.930      -39759.891 7    -30981.47422
 91  5 14 18 19 15.0000000  0  4G18G 2G11G19
  20758589.195      104411.497 7     81359.23523
  24252383.266     -424923.933 5   -331108.73221
  24436895.1644    -321807.28845   -250757.33661
  20902135.391      -45300.025 7    -35298.47322
 91  5 14 18 19 30.0000000  0  4G18G 2G11G19
  20761153.406      117871.928 8     91847.83422
  24242289.008     -477953.387 5   -372430.30921
  24429287.250     -361790.548 6   -281912.94521
  20901089.211      -50805.767 7    -39588.68522
 91  5 14 18 19 45.0000000  0  4G18G 2G11G19
  20763731.9774     131431.17747    102413.44162
  24232200.359     -530955.124 5   -413730.29821
  24421692.1174    -401710.62346   -313019.34761
  20900047.313      -56268.985 7    -43845.74822
 91  5 14 18 20  0.0000000  0  4G18G 2G11G19
  20766331.000      145088.067 7    113055.12523
  24222122.8054    -583930.13745   -455009.49061
  24414104.750     -441568.368 6   -344077.19921
  20899018.375      -61690.952 7    -48070.67722
 91  5 14 18 20 15.0000000  0  4G18G 2G11G19
  20768950.844      158843.740 8    123773.78323
  24212050.188     -636876.837 5   -496266.59221
  24406532.9694    -481361.93346   -375085.01061
  20897991.938      -67070.178 7    -52262.29922
 91  5 14 18 20 30.0000000  0  4G18G 2G11G19
  20771586.688      172700.388 8    134571.12522
  24201972.664     -689792.842 5   -537499.78621
  24398974.148     -521088.699 6   -406040.77921
  20896979.438      -72404.703 7    -56419.09122
 91  5 14 18 20 45.0000000  0  4G18G 2G11G19
  20774242.523      186657.201 7    145446.51723
  24191909.172     -742678.995 5   -578709.73021
  24391426.859     -560749.217 6   -436944.94221
  20895968.617      -77695.438 7    -60541.75422
 91  5 14 18 21  0.0000000  0  4G18G 2G11G19
  20776916.992      200713.113 7    156399.12622
  24181857.078     -795536.353 5   -619897.23421
  24383890.906     -600344.522 6   -467798.27521
  20894971.484      -82943.872 7    -64631.45922
 91  5 14 18 21 15.0000000  0  4G18G 2G11G19
  20779611.469      214865.845 7    167427.18322
  24171804.3284    -848366.66545   -661063.67761
  24376369.117     -639875.975 6   -498601.86321
  20893980.156      -88151.703 7    -68689.52822
 91  5 14 18 21 30.0000000  0  4G18G 2G11G19
  20782321.836      229112.004 7    178528.03723
  24161753.6414    -901173.36145   -702211.71361
  24368858.680     -679347.083 6   -529358.41121
  20893001.672      -93322.796 6    -72718.96822
 91  5 14 18 21 45.0000000  0  4G18G 2G11G19
  20785049.844      243455.448 7    189704.69422
  24151709.219     -953952.194 5   -743338.05021
  24361359.1254    -718753.18446   -560064.31061
  20892021.750      -98452.927 7    -76716.48822
 91  5 14 18 22  0.0000000  0  4G18G 2G11G19
  20787798.234      257892.706 7    200954.46022
  24141669.734    -1006706.368 5   -784445.17121
  24353871.648     -758097.413 6   -590722.00421
  20891052.836     -103545.896 6    -80685.05122
 91  5 14 18 22 15.0000000  0  4G18G 2G11G19
  20790554.883      272384.607 7    212246.80522
  24131629.359    -1059474.822 5   -825563.42321
  24346390.211     -797418.482 6   -621361.66121
  20890081.602     -108640.737 7    -84655.08122
 91  5 14 18 22 30.0000000  0  4G18G 2G11G19
  20793333.219      286972.841 7    223614.22122
  24121594.844    -1112215.535 5   -866660.07321
  24338916.813     -836674.378 6   -651950.51021
  20889119.297     -113696.004 7    -88594.26322
 91  5 14 18 22 45.0000000  0  4G18G 2G11G19
  20796128.586      301663.251 7    235061.24322
  24111567.2424   -1164922.65645   -907730.54261
  24331463.1724    -875858.83246   -682483.71061
  20888165.063     -118705.910 7    -92498.10922
 91  5 14 18 23  0.0000000  0  4G18G 2G11G19
  20798944.469      316463.206 7    246593.62922
  24101541.102    -1217588.746 5   -948769.04021
  24324019.664     -914964.255 6   -712955.32421
  20887223.188     -123663.142 7    -96360.90422
 91  5 14 18 23 15.0000000  0  4G18G 2G11G19
  20801779.984      331363.350 7    258204.08722
  24091523.9694   -1270222.79645   -989782.59061
  24316592.1254    -953999.51546   -743372.23861
  20886286.992     -128576.909 7   -100189.83822
 91  5 14 18 23 30.0000000  0  4G18G 2G11G19
  20804631.500      346356.349 7    269886.89722
  24081509.7114   -1322831.77345  -1030776.58361
  24309176.234     -992971.274 6   -773739.68221
  20885361.469     -133454.531 7   -103990.59822
 91  5 14 18 23 45.0000000  0  4G18G 2G11G19
  20807504.719      361446.987 7    281645.79122
  24071510.8134   -1375410.90445  -1071747.33661
  24301771.000    -1031874.376 5   -804053.64421
  20884438.8054    -138291.29747   -107759.53262
 91  5 14 18 24  0.0000000  0  4G18G 2G11G19
  20810395.0084     376638.36147    293483.18362
  24061510.516    -1427957.057 5  -1112692.40421
  24294379.063    -1070705.445 5   -834311.48321
  20883529.016     -143084.233 7   -111494.31022
 91  5 14 18 24 15.0000000  0  4G18G 2G11G19
  20813303.8364     391930.25447    305398.90462
  24051519.797    -1480469.786 5  -1153611.42821
  24287008.422    -1109464.002 5   -864512.78621
  20882623.5704    -147833.28547   -115194.89762
 91  5 14 18 24 30.0000000  0  4G18G 2G11G19
  20816238.484      407333.851 7    317401.66022
  24041534.156    -1532937.997 5  -1194495.76721
  24279648.9774   -1148138.67845   -894648.76061
  20881734.875     -152527.530 6   -118852.76822
 91  5 14 18 24 45.0000000  0  4G18G 2G11G19
  20819186.750      422835.034 7    329480.46122
  24031550.3914   -1585375.81345  -1235356.40361
  24272301.586    -1186743.524 5   -924730.31421
  20880840.695     -157181.330 7   -122479.12622
 91  5 14 18 25  0.0000000  0  4G18G 2G11G19
  20822155.0314     438438.59947    341639.04062
  24021581.633    -1637777.661 5  -1276189.04121
  24264969.977    -1225272.855 5   -954753.01221
  20879972.625     -161789.411 7   -126069.85822
 91  5 14 18 25 15.0000000  0  4G18G 2G11G19
  20825145.352      454140.957 7    353874.60223
  24011613.5784   -1690147.18245  -1316996.49961
  24257652.023    -1263729.979 5   -984719.43321
  20879098.7974    -166355.58747   -129627.93562
 91  5 14 18 25 30.0000000  0  4G18G 2G11G19
  20828151.727      469950.998 7    366194.06623
  24001659.4844   -1742475.16346  -1357771.58561
  24250349.2894   -1302105.50545  -1014622.32561
  20878241.359     -170870.938 7   -133146.41122
 91  5 14 18 25 45.0000000  0  4G18G 2G11G19
  20831181.125      485867.115 7    378596.19123
  23991712.578    -1794763.052 6  -1398515.43521
  24243062.0554   -1340400.60745  -1044462.50361
  20877390.359     -175337.044 7   -136626.50422
 91  5 14 18 26  0.0000000  0  4G18G 2G11G19
  20834227.461      501888.146 7    391080.06222
  23981766.719    -1847011.820 6  -1439228.80621
  24235790.1024   -1378616.10645  -1074240.68561
  20876550.945     -179755.248 7   -140069.28222
 91  5 14 18 26 15.0000000  0  4G18G 2G11G19
  20837297.258      518003.407 7    403637.36523
  23971832.078    -1899231.958 6  -1479919.86021
  24228529.4064   -1416762.31445  -1103964.83161
  20875713.672     -184136.235 7   -143483.04722
 91  5 14 18 26 30.0000000  0  4G18G 2G11G19
  20840383.625      534231.698 7    416282.73923
  23961903.7034   -1951404.45246  -1520573.80961
  24221288.1644   -1454820.07845  -1133620.10461
  20874896.9144    -188461.35646   -146853.28162
 91  5 14 18 26 45.0000000  0  4G18G 2G11G19
  20843493.586      550573.194 7    429016.33223
  23951983.820    -2003528.604 6  -1561190.08421
  24214061.953    -1492788.373 5  -1163205.64621
  20874079.3754    -192730.15547   -150179.61562
 91  5 14 18 27  0.0000000  0  4G18G 2G11G19
  20846626.0634     567030.97847    441840.54163
  23942078.1884   -2055601.19446  -1601766.19561
  24206853.4224   -1530664.03945  -1192719.01361
  20873282.641     -196939.669 6   -153459.77222
 91  5 14 18 27 15.0000000  0  4G18G 2G11G19
  20849782.336      583606.989 7    454756.87223
  23932175.313    -2107620.384 5  -1642300.68321
  24199663.3594   -1568444.89345  -1222158.49261
  20872487.6644    -201087.97746   -156692.21862
 91  5 14 18 27 30.0000000  0  4G18G 2G11G19
  20852958.2424     600301.59547    467765.61763
  23922281.250    -2159585.583 5  -1682793.12121
  24192489.3914   -1606129.93946  -1251523.32261
  20871713.5084    -205174.85746   -159876.81162
 91  5 14 18 27 45.0000000  0  4G18G 2G11G19
  20856156.336      617114.653 7    480866.65423
  23912411.4224   -2211496.77646  -1723243.46161
  24185338.969    -1643719.143 6  -1280813.48021
  20870947.2424    -209200.62147   -163013.77862
 91  5 14 18 28  0.0000000  0  4G18G 2G11G19
  20859381.7974     634060.59347    494071.24163
  23902543.758    -2263338.921 6  -1763640.01821
  24178204.2424   -1681197.21745  -1310017.05261
  20870196.766     -213150.539 6   -166091.64222
 91  5 14 18 28 15.0000000  0  4G18G 2G11G19
  20862631.352      651139.018 7    507379.06223
  23892691.383    -2315112.519 6  -1803983.16121
  24171097.5084   -1718564.40346  -1339134.20761
  20869454.023     -217025.197 6   -169110.86622
 91  5 14 18 28 30.0000000  0  5G18G 2G11G16G19
  20865908.3914     668356.78147    520795.46463
  23882853.234    -2366810.146 6  -1844267.12421
  24164008.203    -1755813.314 6  -1368159.20721
  24410279.6564         -0.42055
  20868735.9694    -220817.54946   -172065.95362
 91  5 14 18 28 45.0000000  0  5G18G 2G11G16G19
  20869212.7504     685716.65047    534322.59663
  23873026.461    -2418429.010 5  -1884489.70021
  24156943.430    -1792940.690 6  -1397089.49921
  24403263.617      -36832.650 5
  20868029.266     -224524.667 6   -174954.62122
 91  5 14 18 29  0.0000000  0  5G18G 2G11G16G19
  20872543.984      703228.035 7    547967.78223
  23863224.4844   -2469959.42146  -1924643.35461
  24149905.102    -1829936.791 6  -1425917.49521
  24396284.492      -73513.382 5        -0.34431
  20867344.2194    -228137.11446   -177769.52062
 91  5 14 18 29 15.0000000  0  5G18G 2G11G16G19
  20875906.8834     720898.33047    561736.80163
  23853435.0554   -2521393.75546  -1964722.14961
  24142889.8674   -1866793.94746  -1454637.22961
  24389344.8984    -110035.03245    -28458.80861
  20866673.586     -231647.648 6   -180505.01622
 91  5 14 18 29 30.0000000  0  5G18G 2G11G16G19
  20879299.031      738726.336 7    575628.71123
  23843668.828    -2572733.099 6  -2004726.94421
  24135903.320    -1903512.927 6  -1483249.28121
  24382415.469     -146398.545 5    -56794.04921
  20866027.5634    -235057.51746   -183162.06362
 91  5 14 18 29 45.0000000  0  5G18G 2G11G16G19
  20882722.883      756723.060 7    589652.08723
  23833920.3364   -2623966.20946  -2044648.93261
  24128945.484    -1940082.069 6  -1511744.60721
  24375524.9064    -182592.48845    -84997.16161
  20865398.242     -238355.710 6   -185732.09322
 91  5 14 18 30  0.0000000  0  5G18G 2G11G16G19
  20886180.555      774890.896 7    603808.80023
  23824185.2814   -2675090.60945  -2084486.22761
  24122011.9534   -1976498.85346  -1540121.20461
  24368675.391     -218614.647 5   -113066.40521
  20864794.4224    -241539.93946   -188213.31962
 91  5 14 18 30 15.0000000  0  5G18G 2G11G16G19
  20889672.4534     793230.55548    618099.39963
  23814479.7504   -2726105.12245  -2124237.91161
  24115113.906    -2012762.017 6  -1568378.09821
  24361859.0634    -254463.64145   -141000.71061
  20864207.516     -244609.393 6   -190605.11422
 91  5 14 18 30 30.0000000  0  5G18G 2G11G16G19
  20893193.000      811736.182 7    632519.32423
  23804792.539    -2777015.365 5  -2163908.34221
  24108241.7584   -2048877.05046  -1596519.56361
  24355062.453     -290144.951 5   -168804.39221
  20863647.563     -247570.122 6   -192912.19122
 91  5 14 18 30 45.0000000  0  5G18G 2G11G16G19
  20896743.094      830397.843 7    647060.83523
  23795123.414    -2827831.141 5  -2203505.15621
  24101393.5554   -2084853.42146  -1624552.96961
  24348305.430     -325668.293 5   -196484.96021
  20863100.031     -250431.874 6   -195142.14522
 91  5 14 18 31  0.0000000  0  5G18G 2G11G16G19
  20900324.555      849215.451 7    661723.85823
  23785477.1414   -2878552.11646  -2243028.11661
  24094575.555    -2120690.568 6  -1652477.91721
  24341577.203     -361033.139 5   -224042.02421
  20862576.672     -253194.605 6   -197294.94122
 91  5 14 18 31 15.0000000  0  5G18G 2G11G16G19
  20903934.8914     868182.54047    676503.36863
  23775836.0004   -2929184.50045  -2282482.03961
  24087783.6954   -2156394.70146  -1680299.20861
  24334869.9224    -396245.70045   -251480.46661
  20862066.586     -255864.951 6   -199375.73922
 91  5 14 18 31 30.0000000  0  5G18G 2G11G16G19
  20907569.641      887280.217 7    691384.63423
  23766209.6254   -2979747.24645  -2321881.70761
  24081009.8444   -2191984.44246  -1708031.33261
  24328196.5554    -431325.15345   -278815.10961
  20861572.984     -258461.816 6   -201399.29222
 91  5 14 18 31 45.0000000  0  5G18G 2G11G16G19
  20911225.117      906505.469 7    706365.31023
  23756606.820    -3030243.109 5  -2361229.25121
  24074257.4844   -2227462.21646  -1735676.24861
  24321547.2424    -466273.88945   -306047.94361
  20861091.969     -260988.063 6   -203367.81522
 91  5 14 18 32  0.0000000  0  5G18G 2G11G16G19
  20914908.8594     925851.06947    721439.76163
  23747005.430    -3080678.894 5  -2400529.99221
  24067525.906    -2262834.819 6  -1763239.19621
  24314919.094     -501099.096 5   -333184.51621
  20860626.203     -263451.014 6   -205287.01522
 91  5 14 18 32 15.0000000  0  5G18G 2G11G16G19
  20918611.6254     945308.80447    736601.59763
  23737421.5704   -3131062.60045  -2439790.14561
  24060812.430    -2298110.014 6  -1790726.24521
  24308317.9614    -535808.56945   -360230.87861
  20860164.734     -265858.798 6   -207163.23322
 91  5 14 18 32 30.0000000  0  5G18G 2G11G16G19
  20922333.1804     964867.25947    751841.91763
  23727841.609    -3181405.559 5  -2479018.54621
  24054117.4064   -2333298.79546  -1818145.98861
  24301730.6174    -570413.58945   -387195.91761
  20859715.523     -268222.691 6   -209005.24422
 91  5 14 18 32 45.0000000  0  5G18G 2G11G16G19
  20926071.797      984519.622 7    767155.39823
  23718272.711    -3231714.257 6  -2518220.24121
  24047434.031    -2368407.568 6  -1845503.34621
  24295162.766     -604920.372 5   -414084.34921
  20859272.398     -270549.600 7   -210818.44122
 91  5 14 18 33  0.0000000  0  5G18G 2G11G16G19
  20929828.9384    1004266.75747    782542.73963
  23708697.539    -3281987.489 5  -2557394.32021
  24040765.9924   -2403435.08246  -1872797.42161
  24288615.3204    -639327.64645   -440895.26961
  20858839.859     -272838.674 6   -212602.14822
 91  5 14 18 33 15.0000000  0  5G18G 2G11G16G19
  20933606.3754    1024107.47547    798003.00163
  23699142.422    -3332226.322 5  -2596541.60021
  24034119.2034   -2438382.03346  -1900028.68461
  24282091.391     -673636.381 5   -467629.37121
  20858406.0784    -275091.09446   -214357.31062
 91  5 14 18 33 30.0000000  0  5G18G 2G11G16G19
  20937398.1884    1044035.62347    813531.39363
  23689590.359    -3382436.466 5  -2635666.50221
  24027481.0234   -2473254.12146  -1927201.62361
  24275574.555     -707852.578 5   -494291.39521
  20857986.922     -277312.789 7   -216088.51622
 91  5 14 18 33 45.0000000  0  5G18G 2G11G16G19
  20941205.797     1064053.510 7    829129.70223
  23680035.938    -3432615.791 5  -2674767.40721
  24020860.0944   -2508048.99845  -1954314.38061
  24269083.477     -741973.766 5   -520879.36921
  20857568.656     -279501.826 7   -217794.27622
 91  5 14 18 34  0.0000000  0  5G18G 2G11G16G19
  20945033.594     1084157.848 7    844795.37523
  23670496.711    -3482767.401 6  -2713846.71921
  24014254.3754   -2542769.47745  -1981369.20161
  24262611.8364    -776002.99745   -547395.69361
  20857161.852     -281661.457 6   -219477.12722
 91  5 14 18 34 15.0000000  0  5G18G 2G11G16G19
  20948875.359     1104350.288 7    860529.70323
  23660955.4224   -3532889.15146  -2752902.74761
  24007662.9774   -2577413.23746  -2008364.22161
  24256152.2814    -809938.18945   -573838.73961
  20856754.047     -283789.817 7   -221135.60522
 91  5 14 18 34 30.0000000  0  5G18G 2G11G16G19
  20952733.320     1124626.129 7    876329.01723
  23651425.9384   -3582985.24746  -2791938.79061
  24001083.0164   -2611984.42046  -2035302.69661
  24249710.195     -843783.605 5   -600211.84021
  20856357.047     -285891.536 6   -222773.32822
 91  5 14 18 34 45.0000000  0  5G18G 2G11G16G19
  20956609.820     1144988.049 7    892195.40123
  23641896.461    -3633053.111 6  -2830952.84721
  23994517.938    -2646480.178 5  -2062182.40321
  24243285.1334    -877536.52345   -626512.84061
  20855957.500     -287963.901 6   -224388.16422
 91  5 14 18 35  0.0000000  0  5G18G 2G11G16G19
  20960500.938     1165437.643 7    908130.10523
  23632372.625    -3683090.798 6  -2869943.36421
  23987970.156    -2680898.266 5  -2089001.54921
  24236887.3284    -911194.87745   -652740.15561
  20855569.539     -290005.207 6   -225978.81522
 91  5 14 18 35 15.0000000  0  5G18G 2G11G16G19
  20964408.117     1185972.201 7    924131.01823
  23622859.2894   -3733100.79646  -2908912.30661
  23981431.211    -2715241.014 6  -2115762.01021
  24230496.1724    -944761.04945   -678895.66461
  20855187.086     -292018.314 7   -227547.48222
 91  5 14 18 35 30.0000000  0  5G18G 2G11G16G19
  20968329.234     1206591.105 7    940197.64723
  23613350.0084   -3783083.49946  -2947859.98861
  23974913.945    -2749508.821 6  -2142464.10921
  24224122.2814    -978235.63845   -704979.78961
  20854808.258     -294003.918 6   -229094.72122
 91  5 14 18 35 45.0000000  0  5G18G 2G11G16G19
  20972273.016     1227298.897 7    956333.53423
  23603844.891    -3833034.174 6  -2986782.70021
  23968409.688    -2783696.447 6  -2169103.71721
  24217775.766    -1011613.823 5   -730988.80421
  20854436.141     -295957.290 6   -230616.84422
 91  5 14 18 36  0.0000000  0  5G18G 2G11G16G19
  20976230.477     1248096.369 7    972539.31123
  23594349.148    -3882951.682 6  -3025679.56521
  23961918.8134   -2817802.79946  -2195679.98961
  24211441.5314   -1044894.38445   -756921.73761
  20854074.289     -297877.703 6   -232113.28422
 91  5 14 18 36 15.0000000  0  5G18G 2G11G16G19
  20980203.945     1268983.932 7    988815.29223
  23584853.500    -3932835.451 6  -3064550.13521
  23955441.7114   -2851827.01446  -2222192.23061
  24205125.5394   -1078076.39745   -782777.89061
  20853714.1334    -299764.70347   -233583.68362
 91  5 14 18 36 30.0000000  0  5G18G 2G11G16G19
  20984196.258     1289960.061 7   1005160.27523
  23575367.492    -3982686.707 6  -3103395.38221
  23948985.539    -2885770.184 6  -2248641.34421
  24198831.719    -1111161.093 5   -808558.21121
  20853361.4304    -301619.82346   -235029.23762
 91  5 14 18 36 45.0000000  0  5G18G 2G11G16G19
  20988205.398     1311023.237 7   1021573.08723
  23565886.3364   -4032506.89046  -3142216.39361
  23942540.844    -2919633.399 6  -2275028.15721
  24192554.984    -1144149.959 5   -834263.84021
  20853014.4534    -303444.25747   -236450.88262
 91  5 14 18 37  0.0000000  0  5G18G 2G11G16G19
  20992230.844     1332178.135 7   1038057.37123
  23556410.281    -4082290.947 6  -3181009.25821
  23936111.375    -2953411.751 6  -2301348.85421
  24186292.836    -1177037.987 5   -859890.92021
  20852677.9534    -305233.60046   -237845.17862
 91  5 14 18 37 15.0000000  0  5G18G 2G11G16G19
  20996273.281     1353422.854 7   1054611.64723
  23546940.766    -4132040.463 6  -3219775.19121
  23929697.4844   -2987106.58246  -2327604.45261
  24180051.477    -1209826.930 5   -885440.80321
  20852339.914     -306989.538 7   -239213.45622
 91  5 14 18 37 30.0000000  0  5G18G 2G11G16G19
  21000334.188     1374760.807 7   1071238.57123
  23537480.4304   -4181751.70346  -3258511.31761
  23923302.836    -3020713.950 6  -2353791.89521
  24173836.9144   -1242512.67345   -910910.22961
  20852014.523     -308708.704 6   -240553.07922
 91  5 14 18 37 45.0000000  0  5G18G 2G11G16G19
  21004410.984     1396192.111 7   1087938.23423
  23528032.484    -4231424.346 6  -3297217.35621
  23916927.438    -3054233.107 6  -2379910.61321
  24167632.164    -1275094.739 5   -936298.89121
  20851691.867     -310390.598 6   -241863.66422
 91  5 14 18 38  0.0000000  0  5G18G 2G11G16G19
  21008507.523     1417716.663 7   1104710.56323
  23518589.5944   -4281058.38946  -3335893.31761
  23910562.695    -3087664.005 6  -2405960.54821
  24161458.7194   -1307573.32445   -961606.90661
  20851379.742     -312035.643 6   -243145.53422
 91  5 14 18 38 15.0000000  0  5G18G 2G11G16G19
  21012622.750     1439335.516 7   1121556.37523
  23509148.4534   -4330652.58146  -3374538.21561
  23904216.492    -3121005.130 6  -2431940.54721
  24155293.3134   -1339946.99445   -986833.20261
  20851071.406     -313642.704 7   -244397.80522
 91  5 14 18 38 30.0000000  0  5G18G 2G11G16G19
  21016754.359     1461050.110 7   1138476.78023
  23499720.484    -4380205.131 6  -3413150.65921
  23897891.2034   -3154254.66446  -2457849.15061
  24149154.0944   -1372214.19345  -1011976.49461
  20850775.016     -315210.284 6   -245619.31122
 91  5 14 18 38 45.0000000  0  5G18G 2G11G16G19
  21020903.305     1482856.878 7   1155469.01123
  23490296.109    -4429719.656 6  -3451733.47021
  23891579.1414   -3187415.90546  -2483688.96161
  24143032.1414   -1404378.43645  -1037039.60061
  20850482.391     -316742.021 7   -246812.88622
 91  5 14 18 39  0.0000000  0  5G18G 2G11G16G19
  21025072.766     1504755.321 7   1172532.68523
  23480882.2894   -4479196.05546  -3490286.58161
  23885289.4384   -3220488.61846  -2509459.79861
  24136932.914    -1436439.554 5  -1062022.30121
  20850201.289     -318238.139 6   -247978.70622
 91  5 14 18 39 15.0000000  0  5G18G 2G11G16G19
  21029255.2664    1526747.99847   1189669.77863
  23471480.2274   -4528631.50146  -3528807.76961
  23879014.1334   -3253469.88946  -2535159.39161
  24130849.977    -1468394.586 5  -1086922.38521
  20849920.352     -319696.097 7   -249114.79122
 91  5 14 18 39 30.0000000  0  5G18G 2G11G16G19
  21033459.070     1548834.198 7   1206879.75323
  23462079.7274   -4578026.55046  -3567297.47961
  23872753.8754   -3286360.06446  -2560787.98061
  24124788.6094   -1500243.94945  -1111740.10961
  20849652.172     -321116.655 6   -250221.73722
 91  5 14 18 39 45.0000000  0  5G18G 2G11G16G19
  21037679.195     1571014.847 7   1224163.32523
  23452685.0474   -4627380.16846  -3605754.90261
  23866510.516    -3319157.848 6  -2586344.56421
  24118749.203    -1531986.571 5  -1136474.67121
  20849388.3444    -322498.73947   -251298.69362
 91  5 14 18 40  0.0000000  0  5G18G 2G11G16G19
  21041918.109     1593292.307 7   1241522.33523
  23443299.875    -4676689.714 6  -3644177.98221
  23860289.9454   -3351860.40846  -2611826.95261
  24112731.164    -1563619.987 5  -1161124.12021
  20849134.148     -323840.160 6   -252343.96922
 91  5 14 18 40 15.0000000  0  5G18G 2G11G16G19
  21046176.266     1615667.260 7   1258957.31123
  23433927.844    -4725954.239 6  -3682565.96921
  23854082.9064   -3384466.56046  -2637234.23761
  24106728.4694   -1595142.80545  -1185687.39661
  20848885.3754    -325140.06747   -253356.89562
 91  5 14 18 40 30.0000000  0  5G18G 2G11G16G19
  21050453.469     1638136.523 7   1276465.77923
  23424559.203    -4775176.523 6  -3720921.04521
  23847895.5234   -3416979.19646  -2662568.63461
  24100754.750    -1626558.185 5  -1210166.95521
  20848646.766     -326401.513 6   -254339.85422
 91  5 14 18 40 45.0000000  0  5G18G 2G11G16G19
  21054745.180     1660701.301 7   1294048.67323
  23415201.625    -4824355.027 6  -3759242.00821
  23841727.2664   -3449396.67246  -2687828.88161
  24094795.0164   -1657864.47445  -1234561.51961
  20848411.500     -327623.321 6   -255291.92122
 91  5 14 18 41  0.0000000  0  5G18G 2G11G16G19
  21059060.086     1683361.177 7   1311705.67123
  23405854.9454   -4873490.02846  -3797529.06161
  23835574.969    -3481718.979 6  -2713014.96321
  24088855.9694   -1689062.08945  -1258871.38361
  20848190.8204    -328805.77146   -256213.32562
 91  5 14 18 41 15.0000000  0  5G18G 2G11G16G19
  21063389.172     1706113.624 7   1329434.80323
  23396508.5474   -4922583.97646  -3835784.11561
  23829444.1094   -3513948.16246  -2738128.49761
  24082937.023    -1720153.143 5  -1283098.23821
  20847970.227     -329951.287 7   -257105.94122
 91  5 14 18 41 30.0000000  0  5G18G 2G11G16G19
  21067734.602     1728959.082 7   1347236.41123
  23387175.234    -4971635.981 6  -3874006.50221
  23823330.4304   -3546083.21946  -2763168.67761
  24077043.805    -1751136.891 5  -1307241.44721
  20847763.7814    -331059.51946   -257969.51162
 91  5 14 18 41 45.0000000  0  5G18G 2G11G16G19
  21072100.828     1751899.209 7   1365111.78322
  23377850.7814   -5020644.26946  -3912194.81661
  23817230.805    -3578122.172 6  -2788133.98321
  24071175.6094   -1782011.48045  -1331299.60461
  20847555.453     -332128.650 7   -258802.61322
 91  5 14 18 42  0.0000000  0  5G18G 2G11G16G19
  21076486.500     1774937.617 7   1383063.74123
  23368529.7504   -5069604.81046  -3950345.92561
  23811153.1954   -3610060.92246  -2813021.19861
  24065313.3984   -1812772.88245  -1355269.58161
  20847361.1414    -333155.02646   -259602.39962
 91  5 14 18 42 15.0000000  0  5G18G 2G11G16G19
  21080887.891     1798077.070 7   1401094.43523
  23359223.539    -5118514.775 6  -3988457.61221
  23805096.6414   -3641896.36246  -2837827.90961
  24059488.1644   -1843418.07845  -1379148.97761
  20847174.461     -334135.836 7   -260366.67622
 91  5 14 18 42 30.0000000  0  5G18G 2G11G16G19
  21085311.734     1821314.209 7   1419201.24723
  23349930.7664   -5167377.03046  -4026532.11961
  23799055.953    -3673631.116 6  -2862556.18921
  24053673.3134   -1873949.91345  -1402940.05061
  20846995.500     -335074.173 6   -261097.86122
 91  5 14 18 42 45.0000000  0  5G18G 2G11G16G19
  21089751.484     1844646.255 7   1437382.00723
  23340636.2424   -5216194.27046  -4064571.55361
  23793037.156    -3705267.522 6  -2887207.79221
  24047887.258    -1904370.902 5  -1426644.74121
  20846822.063     -335972.809 7   -261798.11022
 91  5 14 18 43  0.0000000  0  5G18G 2G11G16G19
  21094208.758     1868077.242 7   1455639.87223
  23331358.891    -5264962.763 6  -4102572.99921
  23787035.578    -3736801.759 6  -2911779.79621
  24042123.945    -1934677.276 5  -1450260.12421
  20846662.758     -336828.321 6   -262464.75322
 91  5 14 18 43 15.0000000  0  5G18G 2G11G16G19
  21098687.766     1891607.238 7   1473974.88122
  23322085.2274   -5313681.48746  -4140535.67761
  23781055.5784   -3768233.11546  -2936271.61361
  24036377.172    -1964868.341 5  -1473785.65321
  20846503.938     -337639.991 7   -263097.24322
 91  5 14 18 43 30.0000000  0  5G18G 2G11G16G19
  21103184.031     1915233.478 7   1492384.88223
  23312826.211    -5362352.939 6  -4178461.50221
  23775092.8134   -3799563.81646  -2960685.02261
  24030654.594    -1994946.564 5  -1497223.23821
  20846362.297     -338410.525 6   -263697.67222
 91  5 14 18 43 45.0000000  0  5G18G 2G11G16G19
  21107697.148     1938954.951 7   1510869.09422
  23303566.664    -5410978.042 6  -4216351.22221
  23769149.6024   -3830794.42446  -2985020.43561
  24024947.289    -2024912.582 5  -1520573.39621
  20846220.078     -339140.886 7   -264266.79722
 91  5 14 18 44  0.0000000  0  5G18G 2G11G16G19
  21112229.711     1962775.294 7   1529430.35922
  23294327.3054   -5459552.72046  -4254201.63361
  23763225.789    -3861920.785 6  -3009274.59521
  24019269.031    -2054762.626 5  -1543833.19121
  20846089.406     -339827.301 6   -264801.68122
 91  5 14 18 44 15.0000000  0  6G18G 2G11G16G 6G19
  21116781.063     1986690.904 7   1548065.84323
  23285090.086    -5508080.470 6  -4292015.48021
  23757322.4694   -3892946.10746  -3033450.01761
  24013615.680    -2084500.061 5  -1567005.23821
  24567940.6804         -0.93254
  20845967.758     -340473.413 7   -265305.15622
 91  5 14 18 44 30.0000000  0  6G18G 2G11G16G 6G19
  21121350.563     2010703.866 7   1566777.19122
  23275866.031    -5556559.081 6  -4329791.03921
  23751437.328    -3923867.997 6  -3057544.86321
  24007979.3364   -2114122.49245  -1590087.67961
  24560524.7034     -38902.29843
  20845853.906     -341077.075 6   -265775.55722
 91  5 14 18 44 45.0000000  0  6G18G 2G11G16G 6G19
  21125940.055     2034819.051 7   1585568.19423
  23266655.672    -5604983.175 6  -4367524.11321
  23745571.148    -3954680.965 6  -3081554.82121
  24002364.914    -2143624.492 5  -1613076.25521
  24553133.3914     -77782.59043
  20845746.328     -341633.182 7   -266208.89622
 91  5 14 18 45  0.0000000  0  6G18G 2G11G16G 6G19
  21130546.977     2059029.308 7   1604433.27823
  23257448.0944   -5653359.73946  -4405220.14461
  23739729.875    -3985391.809 6  -3105485.20021
  23996772.5474   -2173013.20645  -1635976.56261
  24545738.0864    -116649.00344
  20845648.422     -342148.837 6   -266610.71322
 91  5 14 18 45 15.0000000  0  6G18G 2G11G16G 6G19
  21135173.570     2083337.669 7   1623374.80922
  23248250.688    -5701685.393 6  -4442876.51321
  23733905.0084   -4015997.22946  -3129333.44761
  23991195.3754   -2202285.29245  -1658785.99161
  24538346.344     -155498.624 4
  20845559.367     -342621.134 7   -266978.74922
 91  5 14 18 45 30.0000000  0  6G18G 2G11G16G 6G19
  21139820.414     2107753.460 7   1642400.04922
  23239069.6564   -5749950.74246  -4480485.87661
  23728103.898    -4046487.393 6  -3153091.88521
  23985650.961    -2231431.197 5  -1681497.10321
  24530957.7584    -194321.97544        -0.45871
  20845480.2664    -343040.71846   -267305.70462
 91  5 14 18 45 45.0000000  0  6G18G 2G11G16G 6G19
  21144483.313     2132266.701 7   1661501.22122
  23229891.8204   -5798165.30746  -4518055.66661
  23722321.7194   -4076871.81946  -3176767.91261
  23980125.938    -2260460.367 5  -1704117.24921
  24523565.1884    -233128.88944    -30239.48561
  20845407.234     -343417.179 6   -267599.06422
 91  5 14 18 46  0.0000000  0  6G18G 2G11G16G 6G19
  21149168.188     2156876.624 7   1680677.73222
  23220727.9694   -5846329.97246  -4555586.58061
  23716559.0864   -4107150.98646  -3200361.93061
  23974623.0004   -2289373.41145  -1726646.89261
  24516186.047     -271920.253 4    -60466.44821
  20845342.9064    -343751.48146   -267859.56162
 91  5 14 18 46 15.0000000  0  6G18G 2G11G16G 6G19
  21153869.844     2181587.162 7   1699932.64722
  23211570.3134   -5894440.10446  -4593074.99461
  23710818.453    -4137320.201 6  -3223870.26521
  23969145.5634   -2318165.83245  -1749082.57561
  24508809.9924    -310691.86444    -90678.01461
  20845288.3754    -344039.24046   -268083.79462
 91  5 14 18 46 30.0000000  0  6G18G 2G11G16G 6G19
  21158588.500     2206395.532 7   1719263.79923
  23202430.7274   -5942498.44746  -4630523.05961
  23705097.9454   -4167382.10446  -3247294.97961
  23963693.8204   -2346840.50245  -1771426.46661
  24501430.102     -349446.693 4   -120876.49621
  20845246.7664    -344283.51946   -268274.14662
 91  5 14 18 46 45.0000000  0  6G18G 2G11G16G 6G19
  21163329.828     2231299.644 7   1738669.54722
  23193292.8984   -5990506.71346  -4667932.09761
  23699396.320    -4197337.986 6  -3270637.10321
  23958253.3054   -2375398.92345  -1793679.80561
  24494065.383     -388186.507 4   -151063.28621
  20845201.6024    -344485.99446   -268431.91862
 91  5 14 18 47  0.0000000  0  6G18G 2G11G16G 6G19
  21168087.641     2256304.152 7   1758153.53023
  23184162.8984   -6038460.25946  -4705298.49261
  23693717.5164   -4227183.09646  -3293892.89261
  23952839.813    -2403836.829 5  -1815839.21421
  24486694.523     -426906.621 4   -181234.72721
  20845177.9924    -344642.22746
 91  5 14 18 47 15.0000000  0  6G18G 2G11G16G 6G19
  21172864.609     2281406.981 7   1777714.12022
  23175050.8674   -6086360.76246  -4742623.55361
  23688058.516    -4256919.068 6  -3317063.63821
  23947454.5944   -2432155.62045  -1837905.80661
  24479332.320     -465609.239 4   -211392.50721
  20845152.4924    -344754.23347
 91  5 14 18 47 30.0000000  0  6G18G 2G11G16G 6G19
  21177660.203     2306605.951 7   1797349.63123
  23165949.5554   -6134210.01146  -4779908.68461
  23682419.391    -4286547.663 6  -3340150.71321
  23942090.2114   -2460357.01045  -1859880.93761
  24471971.039     -504296.420 4   -241538.24321
  20845140.9614    -344824.11447
 91  5 14 18 47 45.0000000  0  6G18G 2G11G16G 6G19
  21182475.375     2331904.973 7   1817063.10623
  23156849.688    -6182003.997 6  -4817150.73321
  23676803.5164   -4316064.69846  -3363150.86461
  23936745.2114   -2488437.24945  -1881761.64561
  24464611.2034    -542964.38944   -271669.06061
  20845133.2194    -344847.87147
 91  5 14 18 48  0.0000000  0  6G18G 2G11G16G 6G19
  21187305.422     2357291.617 7   1836844.85323
  23147763.875    -6229754.804 6  -4854359.14221
  23671205.1804   -4345481.93646  -3386073.26761
  23931417.211    -2516408.072 5  -1903557.11021
  24457251.5474    -581625.18544   -301794.25461
  20845136.8914    -344837.62646
 91  5 14 18 48 15.0000000  0  6G18G 2G11G16G 6G19
  21192153.055     2382774.997 7   1856701.98423
  23138685.7504   -6277452.82746  -4891526.42261
  23665627.063    -4374789.732 6  -3408910.38121
  23926120.344    -2544260.119 5  -1925260.00621
  24449900.0004    -620269.62444   -331906.73461
  20845146.1884    -344784.11747
 91  5 14 18 48 30.0000000  0  6G18G 2G11G16G 6G19
  21197021.484     2408355.691 7   1876634.94023
  23129621.055    -6325097.317 6  -4928651.97521
  23660072.688    -4403987.157 6  -3431661.48221
  23920843.961    -2571992.561 5  -1946869.71821
  24442548.023     -658897.106 4   -362005.99721
  20845168.1414    -344686.86047
 91  5 14 18 48 45.0000000  0  6G18G 2G11G16G 6G19
  21201907.547     2434033.002 7   1896643.18223
  23120563.1884   -6372689.26046  -4965736.59861
  23654536.547    -4433074.957 6  -3454327.17321
  23915589.8984   -2599606.12245  -1968386.77161
  24435203.7814    -697508.72544   -392092.88761
  20845194.297     -344546.845 7
 91  5 14 18 49  0.0000000  0  6G18G 2G11G16G 6G19
  21206813.203     2459807.569 7   1916727.21523
  23111519.0474   -6420227.05846  -5002779.01061
  23649021.9384   -4462051.47246  -3476906.14661
  23910357.8914   -2627099.43545  -1989810.16261
  24427857.578     -736103.131 4   -422166.38221
  20845227.4844    -344362.68847
 91  5 14 18 49 15.0000000  0  6G18G 2G11G16G 6G19
  21211736.266     2485679.887 7   1936887.41423
  23102482.031    -6467710.025 6  -5039778.69821
  23643529.4064   -4490915.83346  -3499397.74761
  23905151.8204   -2654471.51945  -2011139.05861
  24420513.7114    -774679.88644   -452226.12761
  20845269.070     -344133.729 7   -268157.32222
 91  5 14 18 49 30.0000000  0  6G18G 2G11G16G 6G19
  21216679.227     2511649.782 7   1957123.64523
  23093455.1334   -6515138.16546  -5076735.65061
  23638057.6254   -4519667.97546  -3521801.88161
  23899965.0554   -2681722.78045  -2032373.81261
  24413177.281     -813239.139 4   -482272.19921
  20845327.656     -343860.222 6   -267944.18922
 91  5 14 18 49 45.0000000  0  6G18G 2G11G16G 6G19
  21221638.906     2537717.686 7   1977436.24523
  23084443.461    -6562511.171 6  -5113649.66021
  23632605.6024   -4548307.31546  -3544118.12861
  23894801.6484   -2708852.60645  -2053513.94161
  24405840.758     -851780.671 4   -512304.48621
  20845384.477     -343542.181 7   -267696.35122
 91  5 14 18 50  0.0000000  0  6G18G 2G11G16G 6G19
  21226616.141     2563883.724 7   1997825.31423
  23075441.5554   -6609828.40746  -5150520.19761
  23627180.102    -4576832.878 6  -3566345.73421
  23889659.586    -2735860.331 5  -2074558.94121
  24398517.750     -890304.071 4   -542322.63321
  20845456.7114    -343178.91446   -267413.28062
 91  5 14 18 50 15.0000000  0  6G18G 2G11G16G 6G19
  21231616.664     2590145.225 7   2018288.76723
  23066442.7344   -6657092.10246  -5187349.01061
  23621774.602    -4605246.839 6  -3588486.37121
  23884545.6024   -2762748.40645  -2095510.68361
  24391183.906     -928811.807 4   -572328.60321
  20845530.039     -342772.831 7   -267096.83722
 91  5 14 18 50 30.0000000  0  6G18G 2G11G16G 6G19
  21236632.797     2616501.835 7   2038826.33423
  23057455.922    -6704302.654 6  -5224136.41821
  23616385.758    -4633549.527 6  -3610540.30621
  23879453.6484   -2789517.15045  -2116369.45261
  24383855.531     -967304.616 4   -602322.93321
  20845616.977     -342324.652 7   -266747.59422
 91  5 14 18 50 45.0000000  0  6G18G 2G11G16G 6G19
  21241664.898     2642964.283 7   2059446.36823
  23048490.625    -6751448.895 6  -5260873.70121
  23611025.766    -4661729.742 6  -3632498.81721
  23874386.336    -2816155.501 5  -2137126.62221
  24376544.1334   -1005771.39544   -632296.99061
  20845709.4774    -341823.50747   -266357.09262
 91  5 14 18 51  0.0000000  0  6G18G 2G11G16G 6G19
  21246721.617     2669526.789 7   2080144.37423
  23039527.469    -6798536.269 6  -5297565.11821
  23605683.531    -4689792.565 6  -3654365.83921
  23869338.898    -2842668.564 5  -2157786.16421
  24369221.313    -1044217.741 4   -662255.10421
  20845816.633     -341274.830 6   -265929.53322
 91  5 14 18 51 15.0000000  0  6G18G 2G11G16G 6G19
  21251795.258     2696185.089 7   2100917.01823
  23030576.1724   -6845568.87746  -5334213.86861
  23600366.164    -4717742.011 6  -3676144.52121
  23864313.6484   -2869060.41445  -2178351.24161
  24361913.6804   -1082647.98844   -692200.69361
  20845926.4694    -340682.93247   -265468.31362
 91  5 14 18 51 30.0000000  0  6G18G 2G11G16G 6G19
  21256884.9614    2722938.03447   2121763.41463
  23021638.102    -6892547.835 6  -5370820.79721
  23595070.336    -4745578.900 6  -3697835.49121
  23859316.594    -2895332.160 5  -2198822.75321
  24354596.8284   -1121063.30944   -722134.64461
  20846051.367     -340048.907 6   -264974.25922
 91  5 14 18 51 45.0000000  0  6G18G 2G11G16G 6G19
  21261993.953     2749784.904 7   2142682.99723
  23012711.148    -6939473.239 6  -5407386.00021
  23589791.9064   -4773303.38346  -3719438.89161
  23854337.570    -2921484.335 5  -2219201.07921
  24347292.4454   -1159464.27344   -752057.38361
  20846176.5164    -339373.14547   -264447.68162
 91  5 14 18 52  0.0000000  0  6G18G 2G11G16G 6G19
  21267119.008     2776718.196 7   2163669.92423
  23003786.813    -6986352.106 6  -5443914.92821
  23584537.3984   -4800922.30046  -3740960.01061
  23849386.789    -2947523.790 5  -2239491.57921
  24339990.2034   -1197857.95244   -781974.44561
  20846313.2194    -338662.84746   -263894.19362
 91  5 14 18 52 15.0000000  0  6G18G 2G11G16G 6G19
  21272262.688     2803747.475 7   2184731.64723
  22994878.594    -7033175.100 6  -5480400.33421
  23579303.727    -4828426.164 6  -3762391.47821
  23844450.3834   -2973441.19445  -2259686.94961
  24332680.0394   -1236235.22744   -811878.72461
  20846454.7974    -337908.62546   -263306.48062
 91  5 14 18 52 30.0000000  0  6G18G 2G11G16G 6G19
  21277426.719     2830872.713 7   2205868.14123
  22985980.734    -7079941.737 6  -5516841.82121
  23574090.461    -4855814.295 6  -3783732.78021
  23839542.0634   -2999236.21445  -2279786.97061
  24325382.8284   -1274595.80844   -841770.02361
  20846610.2974    -337110.31146   -262684.41362
 91  5 14 18 52 45.0000000  0  6G18G 2G11G16G 6G19
  21282605.6724    2858091.64847   2227077.63863
  22977088.4454   -7126653.91246  -5553240.85261
  23568901.641    -4883088.527 6  -3804985.31921
  23834657.328    -3024910.281 5  -2299792.75421
  24318086.7424   -1312941.76444   -871649.90961
  20846766.5314    -336269.97747   -262029.59662
 91  5 14 18 53  0.0000000  0  6G18G 2G11G16G 6G19
  21287803.5314    2885407.19347   2248362.42563
  22968213.2114   -7173308.51646  -5589595.02761
  23563733.8754   -4910245.43446  -3826146.45761
  23829797.1644   -3050460.11545  -2319701.71161
  24310792.2344   -1351270.14344   -901516.11161
  20846936.7504    -335384.74046   -261339.79262
 91  5 14 18 53 15.0000000  0  6G18G 2G11G16G 6G19
  21293019.5164    2912818.04847   2269721.47563
  22959342.1094   -7219906.57246  -5625905.13961
  23558585.445    -4937285.859 6  -3847216.79921
  23824958.0554   -3075887.03545  -2339514.90961
  24303498.9304   -1389582.14044   -931369.50161
  20847111.0394    -334455.76746   -260615.91062
 91  5 14 18 53 30.0000000  0  6G18G 2G11G16G 6G19
  21298253.3674    2940322.34347   2291153.33163
  22950486.9774   -7266449.77246  -5662172.49861
  23553464.063    -4964211.432 6  -3868197.67721
  23820142.6024   -3101192.76445  -2359233.65661
  24296214.8984   -1427879.63944   -961211.60361
  20847299.359     -333484.756 6   -259859.26522
 91  5 14 18 53 45.0000000  0  6G18G 2G11G16G 6G19
  21303505.156     2967924.017 7   2312661.07623
  22941638.1254   -7312934.05746  -5698393.94561
  23548362.0554   -4991017.94146  -3889085.77661
  23815342.8134   -3126373.46345  -2378854.97461
  24288930.500    -1466158.841 4   -991039.46521
  20847488.8204    -332467.98346   -259066.96562
 91  5 14 18 54  0.0000000  0  6G18G 2G11G16G 6G19
  21308776.555     2995623.470 7   2334245.01123
  22932805.4924   -7359358.67146  -5734568.90161
  23543282.781    -5017704.544 6  -3909880.43121
  23810579.9774   -3151428.12445  -2398378.09861
  24281647.3674   -1504419.22044  -1020852.66061
  20847697.531     -331404.778 6   -258238.48122
 91  5 14 18 54 15.0000000  0  6G18G 2G11G16G 6G19
  21314066.2034    3023419.19247   2355903.95662
  22923983.641    -7405724.756 6  -5770698.24521
  23538226.953    -5044272.349 6  -3930582.51521
  23805834.3284   -3176358.13845  -2417804.07461
  24274372.727    -1542662.177 4  -1050652.26321
  20847904.227     -330296.474 7   -257374.85722
 91  5 14 18 54 30.0000000  0  6G18G 2G11G16G 6G19
  21319372.820     3051307.085 7   2377634.72723
  22915168.805    -7452036.104 6  -5806784.92721
  23533193.8834   -5070724.92546  -3951194.83361
  23801118.9774   -3201167.38445  -2437135.94761
  24267098.648    -1580891.535 4  -1080441.28421
  20848122.703     -329146.938 6   -256479.10122
 91  5 14 18 54 45.0000000  0  6G18G 2G11G16G 6G19
  21324697.695     3079290.143 7   2399439.65423
  22906368.3754   -7498289.29946  -5842826.30761
  23528182.6884   -5097058.66446  -3971714.53561
  23796418.0704   -3225852.31145  -2456370.96261
  24259824.117    -1619104.129 4  -1110217.23221
  20848350.2974    -327953.05847   -255548.80062
 91  5 14 18 55  0.0000000  0  6G18G 2G11G16G 6G19
  21330041.539     3107368.003 7   2421318.45023
  22897578.203    -7544484.639 6  -5878822.58821
  23523192.6174   -5123273.81146  -3992141.82661
  23791742.9304   -3250413.05145  -2475509.19961
  24252555.7504   -1657300.52744  -1139980.57261
  20848586.719     -326715.365 6   -254584.34822
 91  5 14 18 55 15.0000000  0  6G18G 2G11G16G 6G19
  21335402.391     3135540.599 7   2443271.06623
  22888795.039    -7590621.938 6  -5914773.65021
  23518227.8204   -5149369.91646  -4012476.36461
  23787093.5784   -3274849.38445  -2494550.49561
  24245284.2114   -1695480.56144  -1169731.15861
  20848827.563     -325433.755 6   -253585.67822
 91  5 14 18 55 30.0000000  0  6G18G 2G11G16G 6G19
  21340781.250     3163805.727 7   2465295.78823
  22880030.1094   -7636703.00846  -5950680.88961
  23513284.0864   -5175348.82746  -4032719.58361
  23782468.328    -3299163.113 5  -2513496.25521
  24238029.1094   -1733646.50144  -1199470.77061
  20849083.3834    -324110.18046   -252554.31462
 91  5 14 18 55 45.0000000  0  6G18G 2G11G16G 6G19
  21346176.508     3192168.777 7   2487396.80923
  22871273.3134   -7682722.11646  -5986539.83961
  23508363.7974   -5201204.45046  -4052866.72561
  23777865.9144   -3323348.57645  -2532342.06661
  24230771.852    -1771792.560 4  -1229194.87321
  20849340.844     -322738.802 6   -251485.69222
 91  5 14 18 56  0.0000000  0  6G18G 2G11G16G 6G19
  21351593.0784    3220628.16747   2509572.89963
  22862527.2664   -7728680.61246  -6022351.55861
  23503466.438    -5226937.972 6  -4072918.74421
  23773285.4144   -3347407.09145  -2551088.95861
  24223517.547    -1809920.253 4  -1258904.66821
  20849613.5944    -321321.20546   -250381.06562
 91  5 14 18 56 15.0000000  0  6G18G 2G11G16G 6G19
  21357028.258     3249181.335 7   2531822.07123
  22853794.0004   -7774581.00446  -6058118.00761
  23498591.555    -5252551.817 6  -4092877.50121
  23768731.031    -3371341.443 5  -2569739.08821
  24216263.5474   -1848032.25944  -1288602.22061
  20849890.8364    -319860.20247   -249242.61162
 91  5 14 18 56 30.0000000  0  6G18G 2G11G16G 6G19
  21362479.047     3277831.497 7   2554146.81823
  22845067.242    -7820419.743 6  -6093836.41021
  23493741.9224   -5278042.47346  -4112740.25861
  23764200.9774   -3395147.83345  -2588289.51561
  24209011.0084   -1886125.40344  -1318285.11361
  20850178.3054    -318352.40246   -248067.69262
 91  5 14 18 56 45.0000000  0  6G18G 2G11G16G 6G19
  21367949.172     3306578.912 7   2576547.34923
  22836356.0704   -7866196.18646  -6129506.25961
  23488917.109    -5303408.928 6  -4132506.25121
  23759696.758    -3418825.756 5  -2606739.84621
  24201768.156          -0.02214
  20850472.0704    -316797.23746   -246855.86962
 91  5 14 18 57  0.0000000  0  6G18G 2G11G16G 6G19
  21373438.672     3335418.725 7   2599019.88123
  22827659.648    -7911914.806 6  -6165131.06221
  23484109.4774   -5328655.51046  -4152178.82761
  23755212.8914   -3442379.67445  -2625093.54461
  24194525.898      -38058.816 4
  20850778.867     -315199.100 6   -245610.55022
 91  5 14 18 57 15.0000000  0  6G18G 2G11G16G 6G19
  21378944.664     3364353.625 7   2621566.50023
  22818964.992    -7957572.708 6  -6200708.53521
  23479328.211    -5353779.362 6  -4171755.77921
  23750759.461    -3465806.642 5  -2643348.29421
  24187283.828      -76100.073 4
  20851088.1094    -313555.37146   -244329.71462
 91  5 14 18 57 30.0000000  0  6G18G 2G11G16G 6G19
  21384468.555     3393385.085 7   2644188.37023
  22810292.758    -8003168.395 6  -6236237.53621
  23474570.0004   -5378778.75546  -4191235.73261
  23746323.3754   -3489105.25445  -2661503.06361
  24180045.1024    -114122.63244        -0.26871
  20851412.680     -311864.892 6   -243012.44922
 91  5 14 18 57 45.0000000  0  6G18G 2G11G16G 6G19
  21390011.922     3422510.022 7   2666883.07023
  22801627.367    -8048704.758 6  -6271720.29921
  23469837.797    -5403656.258 6  -4210620.72021
  23741915.078    -3512278.011 5  -2679559.75721
  24172822.031     -152129.310 4    -29615.76621
  20851740.461     -310130.497 6   -241660.95822
 91  5 14 18 58  0.0000000  0  6G18G 2G11G16G 6G19
  21395570.273     3451729.451 7   2689651.40623
  22792973.656    -8094180.311 6  -6307155.68821
  23465127.938    -5428410.402 6  -4229909.56221
  23737528.9454   -3535323.89145  -2697517.56961
  24165588.4304    -190118.94045    -59218.04061
  20852082.352     -308350.789 6   -240274.16122
 91  5 14 18 58 15.0000000  0  6G18G 2G11G16G 6G19
  21401147.453     3481043.488 7   2712493.45823
  22784335.617    -8139594.442 6  -6342543.21421
  23460440.9304   -5453040.62746  -4249101.85561
  23733168.258    -3558242.473 5  -2715376.18721
  24158360.2584    -228091.24244    -88806.76661
  20852426.2114    -306525.53946   -238851.88462
 91  5 14 18 58 30.0000000  0  6G18G 2G11G16G 6G19
  21406745.727     3510454.121 7   2735410.79023
  22775699.320    -8184944.934 6  -6377881.14321
  23455780.1644   -5477544.45146  -4268195.64461
  23728831.445    -3581031.331 5  -2733133.75221
  24151139.563     -266044.014 4   -118380.28621
  20852783.0864    -304652.56646   -237392.41662
 91  5 14 18 58 45.0000000  0  6G18G 2G11G16G 6G19
  21412360.742     3539954.025 7   2758397.67923
  22767081.945    -8230238.862 6  -6413175.00221
  23451138.313    -5501928.888 6  -4287196.39721
  23724518.352    -3603697.723 5  -2750795.85421
  24143926.984     -303984.657 5   -147944.35821
  20853148.5704    -302739.19946   -235901.47662
 91  5 14 18 59  0.0000000  0  6G18G 2G11G16G 6G19
  21417993.273     3569547.789 7   2781457.70223
  22758475.5704   -8275471.60446  -6448421.17461
  23446518.2814   -5526189.17246  -4306100.41561
  23720228.0864   -3626236.78845  -2768358.76461
  24136699.242     -341908.587 4   -177495.39821
  20853525.1414    -300780.97346   -234375.57962
 91  5 14 18 59 15.0000000  0  6G18G 2G11G16G 6G19
  21423642.000     3599233.635 7   2804589.47523
  22749877.266    -8320644.312 6  -6483620.58221
  23441926.547    -5550326.248 6  -4324908.42021
  23715960.711    -3648649.756 5  -2785823.40021
  24129487.711     -379817.219 5   -207034.51321
  20853900.6414    -298779.08146   -232815.66362
 91  5 14 18 59 30.0000000  0  6G18G 2G11G16G 6G19
  21429307.492     3629013.126 7   2827794.22723
  22741292.7734   -8365755.31046  -6518771.89361
  23437359.2664   -5574338.34046  -4343619.05261
  23711719.906    -3670934.773 5  -2803188.36321
  24122280.9224    -417709.05745   -236560.55961
  20854294.7274    -296731.98446   -231220.52462
 91  5 14 18 59 45.0000000  0  6G18G 2G11G16G 6G19
  21434991.016     3658885.072 7   2851071.01723
  22732717.6334   -8410805.69546  -6553875.96361
  23432812.0394   -5598226.17446  -4362232.82861
  23707507.4304   -3693093.14145  -2820454.61661
  24115069.367     -455585.276 5   -266074.43721
  20854688.5784    -294640.90446   -229591.10862
 91  5 14 19  0  0.0000000  0  6G18G 2G11G16G 6G19
  21440693.109     3688849.791 7   2874420.09223
  22724159.7584   -8455794.72746  -6588932.23561
  23428290.898    -5621989.052 6  -4380749.24421
  23703313.3674   -3715124.07445  -2837621.57761
  24107873.9454    -493445.33245   -295575.71961
  20855095.1954    -292505.23346   -227926.95862
 91  5 14 19  0 15.0000000  0  6G18G 2G11G16G 6G19
  21446413.836     3718908.929 7   2897842.74423
  22715611.844    -8500720.324 6  -6623939.07921
  23423794.914    -5645624.856 6  -4399166.64821
  23699147.3914   -3737025.58745  -2854687.68261
  24100665.7194    -531287.36845   -325062.93961
  20855510.2424    -290323.04146   -226226.54962
 91  5 14 19  0 30.0000000  0  6G18G 2G11G16G 6G19
  21452152.336     3749062.782 7   2921339.19823
  22707075.3364   -8545582.20746  -6658896.27661
  23419318.125    -5669133.186 6  -4417484.72821
  23695001.1094   -3758797.51045  -2871652.81561
  24093466.4224    -569111.25044   -354536.02161
  20855934.9064    -288094.03846   -224489.67462
 91  5 14 19  0 45.0000000  0  6G18G 2G11G16G 6G19
  21457908.813     3779306.008 7   2944905.29423
  22698547.4774   -8590385.05146  -6693807.46261
  23414871.156    -5692518.593 6  -4435707.02021
  23690882.6884   -3780444.60345  -2888520.68561
  24086273.516     -606921.836 5   -383998.73521
  20856366.1414    -285823.06646   -222720.08862
 91  5 14 19  1  0.0000000  0  6G18G 2G11G16G 6G19
  21463681.203     3809643.272 7   2968544.67323
  22690032.5944   -8635123.91646  -6728668.79461
  23410442.516    -5715775.983 6  -4453829.56521
  23686789.6254   -3801962.00845  -2905287.49661
  24079080.9144    -644714.38745   -413447.40661
  20856808.563     -283505.514 6   -220914.21722
 91  5 14 19  1 15.0000000  0  6G18G 2G11G16G 6G19
  21469470.945     3840072.686 7   2992255.85423
  22681531.5704   -8679800.52346  -6763481.61461
  23406040.664    -5738906.902 6  -4471853.54421
  23682724.1564   -3823351.21445  -2921954.41361
  24071888.9614    -682490.75945   -442883.44261
  20857258.3134    -281143.32446   -219073.55662
 91  5 14 19  1 30.0000000  0  6G18G 2G11G16G 6G19
  21475277.6414    3870593.90647   3016038.56062
  22673043.4224   -8724415.39146  -6798246.32261
  23401663.031    -5761911.633 6  -4489779.20321
  23678674.7424   -3844612.68445  -2938521.79061
  24064706.180     -720251.460 5   -472307.30521
  20857715.7894    -278736.78046   -217198.33562
 91  5 14 19  1 45.0000000  0  6G18G 2G11G16G 6G19
  21481104.672     3901206.842 7   3039892.75522
  22664562.258    -8768968.144 6  -6832962.63721
  23397311.2814   -5784789.86646  -4507606.30261
  23674653.2814   -3865746.17845  -2954989.45661
  24057522.3284    -757996.54845   -501718.99961
  20858181.9614    -276285.80946   -215288.49262
 91  5 14 19  2  0.0000000  0  6G18G 2G11G16G 6G19
  21486947.547     3931913.224 7   3063819.75423
  22656097.578    -8813456.586 6  -6867628.84522
  23392979.766    -5807539.193 6  -4525332.94521
  23670656.3914   -3886749.20945  -2971355.45661
  24050345.1954    -795723.92745   -531116.86061
  20858662.1334    -273788.24846   -213342.34762
 91  5 14 19  2 15.0000000  0  6G18G 2G11G16G 6G19
  21492808.039     3962710.099 7   3087817.27022
  22647644.0704   -8857883.18646  -6902246.86061
  23388673.7894   -5830162.10446  -4542961.09761
  23666678.023    -3907624.737 5  -2987622.11321
  24043172.7894    -833436.34645   -560503.09761
  20859140.5004    -271246.87547   -211362.05862
 91  5 14 19  2 30.0000000  0  6G18G 2G11G16G 6G19
  21498687.039     3993600.504 7   3111887.66722
  22639199.234    -8902244.676 6  -6936814.14021
  23384395.7424   -5852655.17846  -4560488.07261
  23662736.4694   -3928369.62945  -3003786.96661
  24035995.8914    -871130.67045   -589875.22761
  20859637.6024    -268658.59446   -209345.22262
 91  5 14 19  2 45.0000000  0  6G18G 2G11G16G 6G19
  21504582.7344    4024583.12947   3136029.91762
  22630769.945    -8946542.305 6  -6971331.66421
  23380139.0234   -5875019.34746  -4577914.60761
  23658810.7424   -3948985.00245  -3019850.88861
  24028819.7504    -908808.21144   -619234.24961
  20860133.3284    -266024.58646   -207292.75362
 91  5 14 19  3  0.0000000  0  6G18G 2G11G16G 6G19
  21510495.109     4055655.685 7   3160242.24522
  22622354.1174   -8990778.19346  -7005801.05961
  23375909.1644   -5897256.72246  -4595242.35461
  23654914.4144   -3969472.79345  -3035815.40261
  24021663.0394    -946471.24445   -648581.98261
  20860645.1564    -263347.13446   -205206.42962
 91  5 14 19  3 15.0000000  0  6G18G 2G11G16G 6G19
  21516424.648     4086817.298 7   3184523.96722
  22613945.6804   -9034952.59746  -7040222.54861
  23371700.305    -5919367.490 6  -4612471.40621
  23651040.1024   -3989833.41745  -3051680.82061
  24014492.3204    -984120.26345   -677918.80161
  20861160.3984    -260626.59746   -203086.52962
 91  5 14 19  3 30.0000000  0  6G18G 2G11G16G 6G19
  21522372.180     4118070.213 7   3208876.83622
  22605555.234    -9079062.936 6  -7074594.13921
  23367512.367    -5941349.153 6  -4629599.89421
  23647192.5474   -4010064.65445  -3067445.41561
  24007322.391    -1021753.038 5   -707242.94521
  20861688.9064    -257860.76746   -200931.34462
 91  5 14 19  3 45.0000000  0  6G18G 2G11G16G 6G19
  21528336.844     4149415.919 7   3233302.00722
  22597171.516    -9123107.396 6  -7108914.38821
  23363357.938    -5963199.667 6  -4646626.17021
  23643362.7814   -4030164.58845  -3083107.71361
  24000181.273    -1059367.793 5   -736553.07921
  20862222.6564    -255047.89747   -198739.49562
 91  5 14 19  4  0.0000000  0  6G18G 2G11G16G 6G19
  21534318.844     4180851.241 7   3257797.01522
  22588803.914    -9167089.380 6  -7143185.95521
  23359223.766    -5984922.151 6  -4663552.67421
  23639558.7114   -4050136.20845  -3098670.01861
  23993019.3674   -1096967.99645   -765851.81961
  20862772.5314    -252191.36746   -196513.62762
 91  5 14 19  4 15.0000000  0  6G18G 2G11G16G 6G19
  21540320.148     4212380.684 7   3282365.35722
  22580445.656    -9211003.959 6  -7177405.00022
  23355115.7114   -6006511.53446  -4680375.48861
  23635786.8524   -4069974.92345  -3114128.74561
  23985866.4614   -1134548.94945   -795135.59161
  20863319.7194    -249286.13946   -194249.81662
 91  5 14 19  4 30.0000000  0  6G18G 2G11G16G 6G19
  21546335.969     4243999.094 7   3307003.03222
  22572101.3674   -9254856.04746  -7211575.36461
  23351032.9384   -6027972.72546  -4697098.39861
  23632036.703    -4089685.519 5  -3129487.63121
  23978719.422    -1172115.565 5   -824408.19221
  20863882.6174    -246337.39946   -191952.08562
 91  5 14 19  4 45.0000000  0  6G18G 2G11G16G 6G19
  21552370.469     4275708.668 7   3331711.73622
  22563769.930    -9298643.153 6  -7245695.07621
  23346974.8984   -6049303.05546  -4713719.34261
  23628311.484    -4109265.778 5  -3144744.99221
  23971574.625    -1209665.680 5   -853667.93621
  20864450.5944    -243342.81547   -189618.64262
 91  5 14 19  5  0.0000000  0  6G18G 2G11G16G 6G19
  21558420.234     4307505.111 7   3356488.13122
  22555449.4774   -9342369.06246  -7279767.12261
  23342938.0084   -6070506.36046  -4730241.30561
  23624608.844    -4128719.581 5  -3159903.79421
  23964432.0784   -1247203.39345   -882917.99161
  20865030.6414    -240306.49746   -187252.67762
 91  5 14 19  5 15.0000000  0  6G18G 2G11G16G 6G19
  21564487.641     4339392.903 7   3381335.71422
  22547140.9774   -9386029.02746  -7313787.78062
  23338926.4844   -6091577.70346  -4746660.45161
  23620934.1414   -4148042.12145  -3174960.31561
  23957295.3364   -1284723.88945   -912154.64061
  20865615.2584    -237223.63746   -184850.44662
 91  5 14 19  5 30.0000000  0  6G18G 2G11G16G 6G19
  21570575.242     4371371.931 7   3406254.39022
  22538845.0234   -9429622.80446  -7347756.85961
  23334944.9304   -6112516.63646  -4762976.40761
  23617279.8914   -4167232.96245  -3189914.19261
  23950154.234    -1322227.138 5   -941377.86321
  20866213.7424    -234094.18446   -182411.91462
 91  5 14 19  5 45.0000000  0  6G18G 2G11G16G 6G19
  21576677.141     4403442.232 7   3431244.18522
  22530560.453    -9473150.133 6  -7381674.17122
  23330984.875    -6133323.096 6  -4779189.12721
  23613652.367    -4186292.358 5  -3204765.67921
  23943023.6094   -1359713.32245   -970587.77261
  20866813.3364    -230918.24546   -179937.15462
 91  5 14 19  6  0.0000000  0  6G18G 2G11G16G 6G19
  21582796.906     4435602.147 7   3456303.80822
  22522291.6644   -9516612.48746  -7415540.85061
  23327053.219    -6153998.130 6  -4795299.46921
  23610049.7114   -4205221.44545  -3219515.61661
  23935889.3984   -1397183.64345   -999785.34461
  20867428.5314    -227696.93246   -177427.04162
 91  5 14 19  6 15.0000000  0  6G18G 2G11G16G 6G19
  21588934.703     4467850.403 7   3481432.26922
  22514031.0394   -9560010.70446  -7449357.55562
  23323142.8914   -6174542.53246  -4811308.00361
  23606473.7274   -4224021.24045  -3234164.80661
  23928767.148    -1434639.391 5  -1028971.54621
  20868047.7344    -224431.42246   -174882.48762
 91  5 14 19  6 30.0000000  0  6G18G 2G11G16G 6G19
  21595087.578     4500190.125 7   3506631.99822
  22505787.422    -9603341.534 6  -7483121.76221
  23319259.336    -6194952.986 6  -4827212.16821
  23602924.758    -4242688.366 5  -3248710.59221
  23921634.2974   -1472077.40145  -1058143.93161
  20868684.4064    -221118.55546   -172301.03962
 91  5 14 19  6 45.0000000  0  6G18G 2G11G16G 6G19
  21601259.438     4532618.292 7   3531900.64322
  22497555.906    -9646607.775 6  -7516835.63522
  23315399.688    -6215232.026 6  -4843013.93421
  23599391.5084   -4261225.61745  -3263155.21761
  23914521.3754   -1509500.50645  -1087304.72061
  20869319.7504    -217761.23846   -169684.95162
 91  5 14 19  7  0.0000000  0  6G18G 2G11G16G 6G19
  21607446.859     4565139.876 7   3557242.08422
  22489329.203    -9689804.240 6  -7550495.13022
  23311565.4224   -6235374.54746  -4858709.31561
  23595895.6644   -4279628.03645  -3277494.75861
  23907396.9224   -1546903.88944  -1116450.13761
  20869969.8444    -214354.43446   -167030.29962
 91  5 14 19  7 15.0000000  0  6G18G 2G11G16G 6G19
  21613653.906     4597748.522 7   3582651.36722
  22481129.5474   -9732936.63846  -7584104.70762
  23307757.734    -6255386.113 6  -4874302.66821
  23592415.922    -4297901.645 5  -3291733.93021
  23900285.961    -1584293.420 5  -1145584.75821
  20870623.5704    -210904.02546   -164341.67862
 91  5 14 19  7 30.0000000  0  6G18G 2G11G16G 6G19
  21619874.773     4630443.551 7   3608127.95922
  22472929.563    -9776005.467 6  -7617664.74722
  23303974.531    -6275267.098 6  -4889794.26721
  23588962.625    -4316046.545 5  -3305872.83021
  23893174.6724   -1621669.62945  -1174709.01461
  20871289.3054    -207410.56846   -161619.49862
 91  5 14 19  7 45.0000000  0  6G18G 2G11G16G 6G19
  21626113.922     4663226.704 7   3633673.21922
  22464748.477    -9819008.806 6  -7651173.76322
  23300217.4694   -6295015.44946  -4905182.50261
  23585533.8054   -4334061.00145  -3319910.05661
  23886061.6334   -1659030.76445  -1203821.51561
  20871961.0554    -203872.18046   -158862.32062
 91  5 14 19  8  0.0000000  0  6G18G 2G11G16G 6G19
  21632369.320     4696102.193 7   3659290.42722
  22456577.9224   -9861942.27346  -7684628.33262
  23296483.180    -6314626.707 6  -4920463.92721
  23582131.602    -4351940.804 5  -3333842.38121
  23878960.242    -1696372.584 4  -1232918.96621
  20872647.5084    -200284.60346   -156066.80962
 91  5 14 19  8 15.0000000  0  6G18G 2G11G16G 6G19
  21638641.5234    4729059.61647   3684971.48062
  22448418.328    -9904815.763 6  -7718036.16722
  23292776.547    -6334110.677 6  -4935646.15521
  23578753.6564   -4369695.56745  -3347677.25461
  23871853.492    -1733705.224 4  -1262009.23121
  20873334.1254    -196657.90846   -153240.81862
 91  5 14 19  8 30.0000000  0  6G18G 2G11G16G 6G19
  21644928.5084    4762101.43647   3710718.29862
  22440271.828    -9947626.340 6  -7751394.98622
  23289091.7274   -6353464.25646  -4950726.77661
  23575394.5944   -4387322.61345  -3361412.62261
  23864753.945    -1771025.812 5  -1291090.14321
  20874034.4144    -192989.13346   -150382.03362
 91  5 14 19  8 45.0000000  0  6G18G 2G11G16G 6G19
  21651233.516     4795229.844 7   3736532.58722
  22432136.203    -9990371.589 6  -7784702.89722
  23285435.313    -6372685.055 6  -4965703.94321
  23572068.9454   -4404819.71545  -3375046.72961
  23857650.367    -1808332.110 4  -1320159.92421
  20874737.7114    -189276.10846   -147488.76462
 91  5 14 19  9  0.0000000  0  6G18G 2G11G16G 6G19
  21657553.414     4828447.601 7   3762416.50122
  22424017.906   -10033048.632 6  -7817957.65822
  23281802.898    -6391770.114 6  -4980575.33221
  23568768.633    -4422183.784 5  -3388577.18421
  23850552.391    -1845621.483 4  -1349216.49421
  20875456.9694    -185516.07846   -144558.87262
 91  5 14 19  9 15.0000000  0  6G18G 2G11G16G 6G19
  21663892.7034    4861747.00847   3788364.02662
  22415904.242   -10075664.985 6  -7851165.13322
  23278193.6954   -6410726.77146  -4995346.67461
  23565488.0474   -4439422.48245  -3402009.94661
  23843468.8204   -1882901.61645  -1378265.86761
  20876177.6954    -181716.69546   -141598.31062
 91  5 14 19  9 30.0000000  0  6G18G 2G11G16G 6G19
  21670244.930     4895132.955 7   3814378.99822
  22407809.8984  -10118215.35646  -7884321.19762
  23274614.5704   -6429549.74746  -5010013.84061
  23562229.914    -4456530.897 5  -3415341.19021
  23836369.563    -1920167.298 5  -1407303.96921
  20876910.9614    -177872.82546   -138603.09162
 91  5 14 19  9 45.0000000  0  6G18G 2G11G16G 6G19
  21676612.0314    4928603.88347   3840460.18362
  22399725.328   -10160701.181 6  -7917426.96322
  23271056.625    -6448240.321 6  -5024577.84021
  23558998.820    -4473510.374 5  -3428571.97021
  23829285.1484   -1957420.16545  -1436332.10261
  20877650.2034    -173985.78646   -135574.22762
 91  5 14 19 10  0.0000000  0  6G18G 2G11G16G 6G19
  21682999.773     4962168.837 7   3866614.64022
  22391653.9304  -10203113.23646  -7950475.24762
  23267526.555    -6466789.115 6  -5039031.36621
  23555793.8594   -4490351.63845  -3441695.04861
  23822191.4454   -1994651.08044  -1465343.13861
  20878400.0234    -170046.45446   -132504.61162
 91  5 14 19 10 15.0000000  0  6G18G 2G11G16G 6G19
  21689404.5314    4995818.47047   3892835.06962
  22383596.492   -10245460.337 6  -7983472.91922
  23264024.5084   -6485204.89046  -5053381.22961
  23552617.320    -4507063.592 5  -3454717.38321
  23815113.078    -2031868.942 5  -1494343.98821
  20879155.9924    -166063.62746   -129401.11062
 91  5 14 19 10 30.0000000  0  6G18G 2G11G16G 6G19
  21695824.234     5029558.007 7   3919125.56522
  22375549.914   -10287736.855 6  -8016415.58722
  23260545.391    -6503481.938 6  -5067623.00821
  23549459.383    -4523640.723 5  -3467634.63521
  23808038.383    -2069068.441 5  -1523330.51921
  20879925.2194    -162031.94946   -126259.53762
 91  5 14 19 10 45.0000000  0  6G18G 2G11G16G 6G19
  21702261.4924    5063382.70347   3945482.41062
  22367516.5554  -10329947.36846  -8049306.82862
  23257091.531    -6521624.872 6  -5081760.27721
  23546332.6564   -4540087.40845  -3480450.26761
  23800955.430    -2106254.376 5  -1552306.50021
  20880699.1724    -157956.27946   -123083.69262
 91  5 14 19 11  0.0000000  0  6G18G 2G11G16G 6G19
  21708713.7114    5097296.63247   3971908.79062
  22359499.156   -10372087.456 6  -8082143.18622
  23253667.3594   -6539629.00746  -5095789.38561
  23543228.125    -4556399.477 5  -3493160.98721
  23793884.734    -2143422.257 5  -1581268.41621
  20881487.1174    -153832.18846   -119870.10762
 91  5 14 19 11 15.0000000  0  6G18G 2G11G16G 6G19
  21715185.992     5131296.246 7   3998401.94222
  22351492.406   -10414160.482 6  -8114927.29122
  23250265.398    -6557497.609 6  -5109712.88421
  23540144.266    -4572580.455 5  -3505769.54521
  23786817.7274   -2180575.55245  -1610218.97261
  20882277.5394    -149662.93246   -116621.33062
 91  5 14 19 11 30.0000000  0  6G18G 2G11G16G 6G19
  21721671.4064    5165381.86047   4024962.09862
  22343499.4534  -10456165.71746  -8147658.57662
  23246892.078    -6575229.994 6  -5123530.24721
  23537089.258    -4588629.650 5  -3518275.46021
  23779745.9534   -2217713.93845  -1639157.88361
  20883084.2274    -145448.04746   -113337.00262
 91  5 14 19 11 45.0000000  0  6G18G 2G11G16G 6G19
  21728172.8914    5199551.22547   4051587.51962
  22335516.3754  -10498105.11746  -8180338.55862
  23243540.336    -6592827.967 6  -5137242.87421
  23534062.0944   -4604548.82345  -3530680.01061
  23772682.266    -2254839.374 5  -1668086.72621
  20883890.8444    -141189.58046   -110018.71262
 91  5 14 19 12  0.0000000  0  6G18G 2G11G16G 6G19
  21734691.8914    5233807.43847   4078280.61062
  22327550.3444  -10539975.35646  -8212964.64862
  23240221.531    -6610288.042 6  -5150848.05821
  23531058.3674   -4620334.75445  -3542980.76661
  23765629.039    -2291948.680 5  -1697002.99021
  20884712.5554    -136884.41946   -106664.03962
 91  5 14 19 12 15.0000000  0  6G18G 2G11G16G 6G19
  21741226.164     5268149.764 7   4105040.80422
  22319595.0864  -10581776.89046  -8245537.20562
  23236923.8834   -6627610.69246  -5164346.15261
  23528081.602    -4635988.373 5  -3555178.39821
  23758566.1024   -2329042.58745  -1725907.26161
  20885537.1954    -132533.01146   -103273.33062
 91  5 14 19 12 30.0000000  0  6G18G 2G11G16G 6G19
  21747779.0474    5302578.79347   4131868.56262
  22311654.8984  -10623508.65046  -8278055.39462
  23233654.867    -6644794.888 6  -5177736.34921
  23525126.7194   -4651508.55745  -3567272.06461
  23751506.1484   -2366120.16145  -1754798.81061
  20886373.8444    -128134.45346    -99845.88662
 91  5 14 19 12 45.0000000  0  6G18G 2G11G16G 6G19
  21754347.016     5337097.279 7   4158766.02622
  22303722.7114  -10665167.61346  -8310516.85462
  23230411.156    -6661837.492 6  -5191016.22721
  23522198.5554   -4666892.24145  -3579259.36261
  23744456.4384   -2403178.55345  -1783675.41961
  20887219.7034    -123685.90546    -96379.49162
 91  5 14 19 13  0.0000000  0  6G18G 2G11G16G 6G19
  21760931.6094    5371700.12447   4185729.21762
  22295810.8134  -10706759.01046  -8342925.67362
  23227192.695    -6678743.480 6  -5204189.64621
  23519298.305    -4682144.489 5  -3591144.25021
  23737408.0634   -2440222.85845  -1812541.05861
  20888077.1884    -119192.39246    -92878.05662
 91  5 14 19 13 15.0000000  0  6G18G 2G11G16G 6G19
  21767530.7194    5406387.82847   4212758.53462
  22287910.9144  -10748281.83246  -8375281.05462
  23224002.1804   -6695511.59246  -5217255.65261
  23516417.094    -4697264.335 5  -3602925.96521
  23730363.656    -2477252.333 5  -1841395.10921
  20888937.8364    -114653.10146    -89340.94962
 91  5 14 19 13 30.0000000  0  6G18G 2G11G16G 6G19
  21774150.4694    5441158.80847   4239852.74262
  22280021.2584  -10789737.45946  -8407584.07062
  23220837.0084   -6712143.28846  -5230215.34161
  23513566.0004   -4712253.37945  -3614605.74961
  23723312.555    -2514268.362 5  -1870238.72121
  20889812.7664    -110069.52346    -85769.33362
 91  5 14 19 13 45.0000000  0  6G18G 2G11G16G 6G19
  21780780.6884    5476016.62547   4267014.61362
  22272144.3674  -10831121.90546  -8439831.62462
  23217698.4224   -6728634.60046  -5243065.65761
  23510739.3914   -4727107.71845  -3626180.58661
  23716274.570    -2551267.331 5  -1899069.00921
  20890693.5004    -105437.89846    -82160.27862
 91  5 14 19 14  0.0000000  0  6G18G 2G11G16G 6G19
  21787431.6334    5510958.83847   4294242.24662
  22264284.4144  -10872437.30946  -8472025.37762
  23214586.4534   -6744987.66046  -5255808.23861
  23507938.8444   -4741829.67445  -3637652.23661
  23709235.7274   -2588251.49645  -1927887.78061
  20891584.5234    -100760.34546    -78515.44262
 91  5 14 19 14 15.0000000  0  6G18G 2G11G16G 6G19
  21794099.1094    5545984.91347   4321535.22762
  22256435.8834  -10913683.77146  -8504165.40862
  23211503.1644   -6761202.61146  -5268443.20561
  23505164.1954   -4756419.60545  -3649021.03861
  23702202.641    -2625221.314 5  -1956695.34421
  20892482.1484     -96037.18746    -74835.06162
 91  5 14 19 14 30.0000000  0  6G18G 2G11G16G 6G19
  21800779.5554    5581096.41747   4348894.77762
  22248599.5554  -10954859.70246  -8536250.47862
  23208441.3364   -6777277.54346  -5280969.07061
  23502414.8754   -4770875.68445  -3660285.52261
  23695174.0554   -2662175.03545  -1985490.40061
  20893395.5084     -91266.80246    -71117.88462
 91  5 14 19 14 45.0000000  0  6G18G 2G11G16G 6G19
  21807476.9384    5616291.40347   4376319.37862
  22240777.7734  -10995966.71246  -8568281.84962
  23205410.5084   -6793213.99746  -5293387.02361
  23499686.945    -4785199.402 5  -3671446.87521
  23688139.6094   -2699114.52445  -2014274.32861
  20894308.3834     -86450.86146    -67365.21062
 91  5 14 19 15  0.0000000  0  6G18G 2G11G16G 6G19
  21814190.344     5651570.992 7   4403809.88722
  22232969.4384  -11037003.07146  -8600258.16562
  23202403.0864   -6809010.33746  -5305695.80561
  23496988.7584   -4799389.28545  -3682503.92661
  23681117.000    -2736038.227 5  -2043045.99721
  20895234.9774     -81587.86546    -63575.86662
 91  5 14 19 15 15.0000000  0  6G18G 2G11G16G 6G19
  21820918.9534    5686931.38647   4431363.38062
  22225170.3524  -11077972.50246  -8632182.33062
  23199425.6644   -6824670.08146  -5317898.14661
  23494306.320    -4813449.477 5  -3693459.94321
  23674094.2424   -2772949.84945  -2071808.23561
  20896165.3984     -76681.55746    -59752.77262
 91  5 14 19 15 30.0000000  0  6G18G 2G11G16G 6G19
  21827662.6954    5722375.86647   4458982.38462
  22217390.6414  -11118871.51746  -8664051.62562
  23196469.3674   -6840189.62046  -5329991.24261
  23491659.328    -4827376.110 5  -3704311.87321
  23667067.3524   -2809846.14545  -2100558.51561
  20897108.9694     -71728.46846    -55893.22362
 91  5 14 19 15 45.0000000  0  6G18G 2G11G16G 6G19
  21834425.8134    5757904.54147   4486667.00162
  22209622.4694  -11159699.45847  -8695865.53362
  23193542.617    -6855568.268 6  -5341974.55221
  23489032.906    -4841168.748 5  -3715059.41321
  23660052.063    -2846726.566 5  -2129296.43321
  20898060.0164     -66728.13546    -51996.86262
 91  5 14 19 16  0.0000000  0  6G18G 2G11G16G 6G19
  21841200.0314    5793515.29247   4514415.56962
  22201861.1644  -11200458.60046  -8727625.83462
  23190643.6724   -6870808.27146  -5353849.83861
  23486435.1024   -4854830.14445  -3725704.66661
  23653036.391    -2883593.588 5  -2158023.89821
  20899021.1804     -61682.82646    -48065.45462
 91  5 14 19 16 15.0000000  0  6G18G 2G11G16G 6G19
  21847993.1094    5829209.30747   4542229.01962
  22194120.0704  -11241147.23746  -8759331.20062
  23187770.477    -6885907.789 6  -5365615.64321
  23483857.055    -4868358.285 5  -3736246.08721
  23646022.0704   -2920445.41545  -2186739.54761
  20899988.3284     -56590.66546    -44097.53562
 91  5 14 19 16 30.0000000  0  6G18G 2G11G16G 6G19
  21854801.7664    5864985.31147   4570106.35362
  22186391.9924  -11281766.40147  -8790982.43062
  23184925.086    -6900867.831 6  -5377272.77421
  23481314.508    -4881754.235 5  -3746684.49421
  23639009.180    -2957283.360 5  -2215444.34321
  20900969.6954     -51453.03646    -40094.18562
 91  5 14 19 16 45.0000000  0  6G18G 2G11G16G 6G19
  21861624.6724    5900844.36447   4598048.40862
  22178674.3444  -11322314.51647  -8822578.29562
  23182103.648    -6915686.852 6  -5388820.01921
  23478788.813    -4895016.537 5  -3757018.77921
  23632006.7504   -2994106.06345  -2244137.29461
  20901951.4454     -46268.54846    -36054.32262
 91  5 14 19 17  0.0000000  0  6G18G 2G11G16G 6G19
  21868466.555     5936791.666 7   4626059.21422
  22170975.7734  -11362786.21047  -8854114.62062
  23179311.2424   -6930359.44546  -5400253.17061
  23476289.922    -4908139.928 5  -3767244.83021
  23625001.086    -3030908.280 5  -2272814.26521
  20902951.9694     -41031.85046    -31973.77762
 91  5 14 19 17 15.0000000  0  6G18G 2G11G16G 6G19
  21875324.1024    5972821.54847   4654134.37862
  22163284.2734  -11403187.00647  -8885595.69462
  23176547.594    -6944890.947 6  -5411576.36921
  23473815.086    -4921129.995 5  -3777366.97521
  23617999.1174   -3067695.59345  -2301479.62861
  20903954.4844     -35748.50646    -27856.88162
 91  5 14 19 17 30.0000000  0  6G18G 2G11G16G 6G19
  21882194.813     6008934.464 7   4682274.23622
  22155613.2274  -11443516.08247  -8917020.87962
  23173807.141    -6959280.375 6  -5422788.86021
  23471374.1644   -4933986.10545  -3787384.75161
  23611005.0314   -3104467.34545  -2330132.87861
  20904972.6414     -30417.62346    -23702.94862
 91  5 14 19 17 45.0000000  0  6G18G 2G11G16G 6G19
  21889082.188     6045129.244 7   4710477.88722
  22147949.750   -11483774.260 7  -8948390.81622
  23171096.031    -6973528.502 6  -5433891.25521
  23468954.7194   -4946708.88545  -3797298.63361
  23604005.852    -3141224.396 5  -2358774.65421
  20905992.7974     -25040.30446    -19512.82762
 91  5 14 19 18  0.0000000  0  6G18G 2G11G16G 6G19
  21895984.328     6081403.206 7   4738743.24322
  22140299.5704  -11523963.94647  -8979707.39462
  23168413.016    -6987637.685 6  -5444885.37121
  23466556.219    -4959301.012 5  -3807110.70621
  23597019.4694   -3177969.30445  -2387406.98161
  20907026.3204     -19618.91446    -15288.37562
 91  5 14 19 18 15.0000000  0  6G18G 2G11G16G 6G19
  21902902.938     6117758.101 7   4767071.64822
  22132669.6954  -11564083.09247  -9010969.00562
  23165753.4224   -7001606.00346  -5455769.72261
  23464186.0234   -4971760.77245  -3816819.64661
  23590026.4774   -3214700.17845  -2416028.37961
  20908064.8594     -14151.49446    -11028.05362
 91  5 14 19 18 30.0000000  0  6G18G 2G11G16G 6G19
  21909836.4144    6154194.46747   4795463.55862
  22125045.6484  -11604130.98747  -9042175.09562
  23163122.734    -7015432.734 6  -5466543.74421
  23461844.281    -4984087.301 5  -3826424.75421
  23583035.1884   -3251416.58345  -2444638.50161
  20909115.2114      -8637.48846     -6731.42762
 91  5 14 19 18 45.0000000  0  6G18G 2G11G16G 6G19
  21916784.961     6190711.866 7   4823918.59722
  22117439.5234  -11644107.69447  -9073325.71762
  23160517.359    -7029117.792 6  -5477207.38021
  23459518.6334   -4996280.78045  -3835926.19361
  23576055.1484   -3288118.70745  -2473237.49861
  20910171.6884      -3077.00646     -2398.58962
 91  5 14 19 19  0.0000000  0  6G18G 2G11G16G 6G19
  21923751.945     6227315.419 7   4852440.76922
  22109847.7274  -11684007.95047  -9104416.76462
  23157942.1804   -7042655.71246  -5487756.34261
  23457222.2504   -5008335.78945  -3845319.73761
  23569074.9534   -3324801.18545  -2501821.19061
  20911243.4534       2535.24446      1974.59162
 91  5 14 19 19 15.0000000  0  6G18G 2G11G16G 6G19
  21930731.875     6263994.342 7   4881021.66622
  22102267.4534  -11723841.81747  -9135456.08262
  23155392.094    -7056056.620 6  -5498198.55821
  23454953.047    -5020262.483 5  -3854613.28921
  23562096.180    -3361474.372 5  -2530397.65821
  20912315.8204       8188.90846      6380.03462
 91  5 14 19 19 30.0000000  0  6G18G 2G11G16G 6G19
  21937727.852     6300755.913 7   4909666.97422
  22094701.3284  -11763602.08547  -9166438.04962
  23152870.2734   -7069313.19146  -5508528.28461
  23452719.3054   -5032054.25245  -3863801.70361
  23555120.2814   -3398131.12345  -2558961.29661
  20913402.5784      13891.28446     10823.43962
 91  5 14 19 19 45.0000000  0  6G18G 2G11G16G 6G19
  21944736.484     6337596.447 7   4938373.80422
  22087148.1414  -11803291.88947  -9197365.10162
  23150374.6094   -7082428.53546  -5518747.97361
  23450495.984    -5043714.088 5  -3872887.32121
  23548142.570    -3434774.717 5  -2587514.69821
  20914494.3204      19639.01746     15302.19062
 91  5 14 19 20  0.0000000  0  6G18G 2G11G16G 6G19
  21951763.914     6374515.216 7   4967141.58622
  22079608.5704  -11842911.87447  -9228237.76262
  23147905.8134   -7095403.09346  -5528857.95361
  23448301.250    -5055242.406 5  -3881870.45921
  23541177.7584   -3471405.79445  -2616058.33761
  20915599.3444      25431.58246     19815.87162
 91  5 14 19 20 15.0000000  0  6G18G 2G11G16G 6G19
  21958804.578     6411515.433 7   4995972.85222
  22072085.6644  -11882458.59647  -9259053.33262
  23145462.9384   -7108233.61246  -5538855.69161
  23446128.641    -5066636.233 5  -3890748.78421
  23534210.0784   -3508021.16645  -2644589.73761
  20916708.5234      31272.17846     24366.98462
 91  5 14 19 20 30.0000000  0  6G18G 2G11G16G 6G19
  21965861.7734    6448593.43247   5024864.71662
  22064571.2344  -11921935.26047  -9289814.30762
  23143046.4614   -7120923.17346  -5548743.59661
  23443988.0164   -5077898.98545  -3899524.98161
  23527244.180    -3544624.282 5  -2673111.59921
  20917831.2114      37157.58746     28953.01562
 91  5 14 19 20 45.0000000  0  6G18G 2G11G16G 6G19
  21972929.977     6485747.024 7   5053815.48622
  22057072.3834  -11961343.73947  -9320522.15562
  23140660.8984   -7133473.49046  -5558522.99761
  23441869.164    -5089032.577 5  -3908200.53421
  23520276.4304   -3581217.01045  -2701625.35761
  20918956.0004      43086.05146     33572.59262
 91  5 14 19 21  0.0000000  0  6G18G 2G11G16G 6G19
  21980017.445     6522983.624 7   5082830.94022
  22049584.9064  -12000676.52647  -9351171.01662
  23138298.6174   -7145876.96446  -5568187.97761
  23439777.7664   -5100029.39245  -3916769.50061
  23513318.2274   -3617791.84545  -2730125.18861
  20920096.7584      49064.89646     38231.42662
 91  5 14 19 21 15.0000000  0  6G18G 2G11G16G 6G19
  21987117.500     6560299.466 7   5111908.13822
  22042116.2584  -12039937.12447  -9381763.63562
  23135966.742    -7158137.246 6  -5577741.38721
  23437710.242    -5110893.082 5  -3925234.73321
  23506359.672    -3654352.622 5  -2758614.05021
  20921241.8134      55090.40246     42926.62662
 91  5 14 19 21 30.0000000  0  6G18G 2G11G16G 6G19
  21994233.078     6597693.584 7   5141046.33922
  22034656.3754  -12079126.05247  -9412300.39962
  23133661.2814   -7170254.87446  -5587183.62461
  23435671.0944   -5121624.14245  -3933596.61761
  23499409.586    -3690899.881 5  -2787092.39021
  20922399.0784      61161.97146     47657.71762
 91  5 14 19 21 45.0000000  0  6G18G 2G11G16G 6G19
  22001363.945     6635167.935 7   5170247.04322
  22027216.1724  -12118241.07047  -9442779.57762
  23131382.4064   -7182227.35446  -5596512.75961
  23433654.086    -5132220.613 5  -3941853.64421
  23492459.3834   -3727431.40045  -2815558.46561
  20923560.7894      67281.97546     52426.53962
 91  5 14 19 22  0.0000000  0  6G18G 2G11G16G 6G19
  22008513.070     6672720.065 7   5199508.35822
  22019784.5784  -12157284.46647  -9473202.94062
  23129130.1334   -7194056.86846  -5605730.50561
  23431663.734    -5142684.741 5  -3950007.52421
  23485504.7034   -3763949.55845  -2844014.12661
  20924736.0704      73448.35246     57231.50762
 91  5 14 19 22 15.0000000  0  6G18G 2G11G16G 6G19
  22015671.219     6710354.720 7   5228833.98122
  22012370.2504  -12196250.94647  -9503566.37262
  23126906.2584   -7205738.38446  -5614832.91761
  23429694.7504   -5153011.30545  -3958054.21061
  23478562.1644   -3800449.57245  -2872455.64561
  20925917.2114      79665.82046     62076.28762
 91  5 14 19 22 30.0000000  0  6G18G 2G11G16G 6G19
  22022850.703     6748071.741 7   5258223.78822
  22004966.9694  -12235140.45847  -9533869.82262
  23124715.2194   -7217271.73246  -5623819.89261
  23427758.7034   -5163200.64045  -3965993.96761
  23471617.5634   -3836931.25645  -2900882.88361
  20927110.8834      85934.51046     66960.97062
 91  5 14 19 22 45.0000000  0  6G18G 2G11G16G 6G19
  22030041.563     6785866.759 7   5287674.36322
  21997583.3524  -12273957.30047  -9564116.65362
  23122546.867    -7228660.979 6  -5632694.55421
  23425835.2584   -5173256.85945  -3973829.99261
  23464682.0394   -3873398.93245  -2929299.21961
  20928312.9534      92250.02146     71882.13362
 91  5 14 19 23  0.0000000  0  6G18G 2G11G16G 6G19
  22037247.344     6823730.328 7   5317178.36022
  21990205.422   -12312710.409 7  -9594313.82422
  23120406.3524   -7239915.17646  -5641463.98861
  23423950.383    -5183188.933 5  -3981569.28521
  23457741.680    -3909861.754 5  -2957711.74721
  20929524.6094      98603.34446     76832.77262
 91  5 14 19 23 15.0000000  0  6G18G 2G11G16G 6G19
  22044466.6724    6861672.61147   5346743.69462
  21982847.508   -12351389.068 7  -9624452.98322
  23118290.4224   -7251023.50246  -5650119.76961
  23422085.4064   -5192986.47545  -3989203.76261
  23450808.6954   -3946309.09845  -2986112.24161
  20930740.1724     105005.15046     81821.18662
 91  5 14 19 23 30.0000000  0  6G18G 2G11G16G 6G19
  22051701.4844    6899691.72147   5376368.88862
  21975500.688   -12389995.229 7  -9654535.65122
  23116202.969    -7261987.922 6  -5658663.41821
  23420248.930    -5202651.351 5  -3996734.85921
  23443870.242    -3982742.997 5  -3014502.22321
  20931966.7664     111453.51046     86845.87862
 91  5 14 19 23 45.0000000  0  6G18G 2G11G16G 6G19
  22058951.469     6937789.273 7   5406055.21122
  21968167.328   -12428527.081 7  -9684560.41722
  23114144.6024   -7272806.50246  -5667093.42561
  23418433.5234   -5212182.33945  -4004161.62561
  23436943.563    -4019161.828 5  -3042880.48421
  20933202.680      117950.195 6     91908.21822
 91  5 14 19 24  0.0000000  0  6G18G 2G11G16G 6G19
  22066217.102     6975966.480 7   5435803.60822
  21960851.2424  -12466982.78047  -9714525.83662
  23112114.281    -7283477.444 6  -5675408.39321
  23416651.875    -5221577.419 5  -4011482.47821
  23430013.6484   -4055563.89145  -3071245.67861
  20934451.508      124496.761 6     97009.42422
 91  5 14 19 24 15.0000000  0  6G18G 2G11G16G 6G19
  22073497.539     7014224.125 7   5465614.67822
  21953546.508   -12505361.415 7  -9744431.21822
  23110113.398    -7293999.908 6  -5683607.67321
  23414882.3284   -5230835.61945  -4018696.68961
  23423088.3984   -4091948.36845  -3099597.16061
  20935705.031      131094.116 6    102150.20622
 91  5 14 19 24 30.0000000  0  6G18G 2G11G16G 6G19
  22080791.6564    7052562.94347   5495488.99662
  21946258.180   -12543662.166 7  -9774275.90822
  23108138.578    -7304372.766 6  -5691690.36521
  23413150.766    -5239956.500 5  -4025803.89221
  23416167.477    -4128314.431 5  -3127934.30121
  20936973.148      137743.213 6    107331.30922
 91  5 14 19 24 45.0000000  0  6G18G 2G11G16G 6G19
  22088102.758     7090975.343 7   5525420.65222
  21938983.516   -12581892.177 7  -9804065.46822
  23106192.8134   -7314603.20646  -5699662.09761
  23411436.273    -5248947.258 5  -4032809.70621
  23409250.1484   -4164669.40845  -3156262.81861
  20938244.7034     144436.77246    112547.06162
 91  5 14 19 25  0.0000000  0  6G18G 2G11G16G 6G19
  22095426.102     7129461.736 7   5555409.97822
  21931724.258   -12620050.622 7  -9833799.27322
  23104273.9144   -7324690.63546  -5707522.37061
  23409752.4774   -5257807.14745  -4039713.53661
  23402335.8754   -4201012.71145  -3184582.21961
  20939526.172      151175.391 6    117797.92322
 91  5 14 19 25 15.0000000  0  6G18G 2G11G16G 6G19
  22102766.1174    7168025.06047   5585459.23462
  21924475.836   -12658134.320 7  -9863474.83322
  23102380.063    -7334631.554 6  -5715268.49421
  23408093.203    -5266532.999 5  -4046512.92621
  23395422.766    -4237341.001 5  -3212889.92821
  20940816.5004     157962.44346    123086.52762
 91  5 14 19 25 30.0000000  0  6G18G 2G11G16G 6G19
  22110117.438     7206665.338 7   5615568.45622
  21917243.953   -12696142.898 7  -9893091.85022
  23100516.852    -7344425.675 6  -5722900.23921
  23406459.0394   -5275124.65345  -4053207.77661
  23388511.156    -4273654.178 5  -3241185.86121
  20942118.2894     164798.18046    128413.06262
 91  5 14 19 25 45.0000000  0  6G18G 2G11G16G 6G19
  22117484.000     7245382.041 7   5645737.23722
  21910022.7194  -12734076.75147  -9922650.64062
  23098681.0704   -7354073.29246  -5730417.80961
  23404847.984    -5283582.416 5  -4059798.24821
  23381606.9924   -4309952.58545  -3269470.30261
  20943427.2034     171682.20346    133777.22762
 91  5 14 19 26  0.0000000  0  6G18G 2G11G16G 6G19
  22124869.781     7284179.100 7   5675968.63122
  21902820.9224  -12771931.61447  -9952147.87662
  23096874.8914   -7363570.20346  -5737817.94461
  23403263.359    -5291902.307 5  -4066281.32421
  23374701.5004   -4346232.21845  -3297740.09361
  20944750.125      178618.882 6    139182.41622
 91  5 14 19 26 15.0000000  0  6G18G 2G11G16G 6G19
  22132268.8984    7323056.62747   5706262.72162
  21895630.3594  -12809707.25047  -9981583.38262
  23095095.102    -7372916.317 6  -5745100.57421
  23401713.1884   -5300084.28445  -4072656.92161
  23367801.8984   -4382492.98845  -3325995.19161
  20946079.219      185608.146 6    144628.58122
 91  5 14 19 26 30.0000000  0  6G18G 2G11G16G 6G19
  22139677.445     7362008.851 6   5736615.01722
  21888457.758   -12847408.798 7 -10010961.15622
  23093342.758    -7382116.580 6  -5752269.54821
  23400177.867    -5308133.147 5  -4078928.79221
  23360899.609    -4418740.000 5  -3354239.57921
  20947419.1334     192644.79246    150111.67662
 91  5 14 19 26 45.0000000  0  6G18G 2G11G16G 6G19
  22147104.734     7401033.954 6   5767024.11622
  21881295.727   -12885038.026 7 -10040282.58222
  23091619.781    -7391172.655 6  -5759326.18021
  23398667.7974   -5316051.22345  -4085098.74561
  23354010.1564   -4454975.15545  -3382474.71061
  20948763.2194     199727.02846    155630.29162
 91  5 14 19 27  0.0000000  0  6G18G 2G11G16G 6G19
  22154545.070     7440139.407 6   5797495.81522
  21874151.789   -12922586.950 7 -10069541.43222
  23089926.9304   -7400076.69346  -5766264.31961
  23397188.7974   -5323830.70345  -4091160.70361
  23347117.992    -4491190.737 5  -3410694.60221
  20950128.0314     206862.77446    161190.60762
 91  5 14 19 27 15.0000000  0  6G18G 2G11G16G 6G19
  22162001.2424    7479317.10046   5828023.79762
  21867018.7894  -12960063.61347 -10098743.96962
  23088259.6334   -7408836.62546  -5773090.18261
  23395732.109    -5331479.595 5  -4097120.92221
  23340226.9064   -4527394.76045  -3438905.48761
  20951488.4924     214044.10346    166786.44062
 91  5 14 19 27 30.0000000  0  6G18G 2G11G16G 6G19
  22169471.938     7518567.406 6   5858608.37222
  21859903.820   -12997467.214 7 -10127889.58222
  23086618.688    -7417451.601 6  -5779803.10521
  23394307.672    -5338997.234 5  -4102978.84021
  23333336.688    -4563586.448 5  -3467106.75521
  20952867.6884     221271.74546    172418.36362
 91  5 14 19 27 45.0000000  0  6G18G 2G11G16G 6G19
  22176954.500     7557895.339 6   5889253.43022
  21852799.609   -13034792.194 7 -10156973.93422
  23085010.055    -7425916.150 6  -5786398.80221
  23392898.852    -5346378.441 5  -4108730.47921
  23326452.695    -4599760.526 5  -3495294.28721
  20954249.3524     228550.88246    178090.41262
 91  5 14 19 28  0.0000000  0  6G18G 2G11G16G 6G19
  22184452.617     7597299.628 6   5919957.98622
  21845710.953   -13072040.079 7 -10185998.20822
  23083427.305    -7434231.682 6  -5792878.38321
  23391520.3594   -5353624.43745  -4114376.73761
  23319577.5704   -4635918.50545  -3523469.30461
  20955648.2114     235880.24646    183801.59362
 91  5 14 19 28 15.0000000  0  6G18G 2G11G16G 6G19
  22191964.563     7636778.838 6   5950720.93122
  21838640.914   -13109211.543 7 -10214962.93022
  23081872.242    -7442399.071 6  -5799242.52621
  23390169.008    -5360736.139 5  -4119918.38321
  23312701.102    -4672061.239 5  -3551632.42821
  20957047.1254     243258.85746    189551.15162
 91  5 14 19 28 30.0000000  0  6G18G 2G11G16G 6G19
  22199493.4844    7676331.19946   5981540.85462
  21831579.914   -13146308.160 7 -10243869.34222
  23080348.8594   -7450419.74946  -5805492.34161
  23388840.070    -5367715.090 5  -4125356.54421
  23305824.383    -4708190.344 5  -3579784.93821
  20958462.5314     250685.19746    195337.89862
 91  5 14 19 28 45.0000000  0  6G18G 2G11G16G 6G19
  22207033.734     7715957.392 6   6012418.33022
  21824532.750   -13183329.353 7 -10272716.97422
  23078846.4844   -7458292.94446  -5811627.23961
  23387535.664    -5374561.226 5  -4130691.22821
  23298952.8674   -4744305.21745  -3607926.35561
  20959883.6484     258160.05246    201162.45462
 91  5 14 19 29  0.0000000  0  6G18G 2G11G16G 6G19
  22214586.875     7755659.530 6   6043354.98022
  21817503.234   -13220272.388 7 -10301503.70622
  23077376.6484   -7466015.98346  -5817645.13761
  23386260.5394   -5381271.85745  -4135920.32461
  23292082.023    -4780403.367 5  -3636054.73221
  20961320.5704     265685.88546    207026.72962
 91  5 14 19 29 15.0000000  0  6G18G 2G11G16G 6G19
  22222157.055     7795432.675 6   6074346.95222
  21810487.055   -13257141.964 7 -10330233.19722
  23075936.945    -7473593.713 6  -5823549.81321
  23385004.6954   -5387851.88345  -4141047.64761
  23285217.555    -4816489.628 5  -3664173.84721
  20962755.9534     273257.88146    212926.98162
 91  5 14 19 29 30.0000000  0  6G18G 2G11G16G 6G19
  22229738.992     7835276.349 6   6105393.89221
  21803486.844   -13293938.400 7 -10358905.69722
  23074524.617    -7481026.417 6  -5829341.47321
  23383780.859    -5394301.568 5  -4146073.41221
  23278350.8914   -4852564.30545  -3692283.94961
  20964207.3054     280875.90946    218863.09362
 91  5 14 19 29 45.0000000  0  6G18G 2G11G16G 6G19
  22237334.0634    7875189.81646   6136495.20761
  21796499.672   -13330662.138 7 -10387521.54522
  23073135.6094   -7488314.32446  -5835020.30261
  23382575.3444   -5400621.40445  -4150997.99261
  23271488.4384   -4888627.77345  -3720385.31561
  20965663.0704     288539.48946    224834.71062
 91  5 14 19 30  0.0000000  0  6G18G 2G11G16G 6G19
  22244944.430     7915179.508 6   6167655.92122
  21789522.992   -13367306.227 7 -10416075.32622
  23071778.0164   -7495450.56246  -5840580.95161
  23381398.078    -5406804.802 5  -4155816.27821
  23264629.3834   -4924673.34345  -3748472.74261
  20967136.1334     296255.53446    230847.20262
 91  5 14 19 30 15.0000000  0  6G18G 2G11G16G 6G19
  22252566.281     7955242.491 6   6198873.75621
  21782567.031   -13403873.477 7 -10444569.23922
  23070446.766    -7502437.817 6  -5846025.51721
  23380246.102    -5412854.324 5  -4160530.23321
  23257773.672    -4960703.824 5  -3776548.39821
  20968611.5864     304021.24646    236898.39962
 91  5 14 19 30 30.0000000  0  6G18G 2G11G16G 6G19
  22260205.8204    7995377.48646   6230147.68761
  21775621.031   -13440364.854 7 -10473004.02922
  23069146.195    -7509277.370 6  -5851354.99921
  23379119.219    -5418771.454 5  -4165141.01921
  23250918.6024   -4996720.43045  -3804613.25961
  20970099.9924     311835.22646    242987.20262
 91  5 14 19 30 45.0000000  0  6G18G 2G11G16G 6G19
  22267859.156     8035586.311 6   6261479.15821
  21768691.508   -13476778.173 7 -10501378.00022
  23067874.1564   -7515967.03946  -5856567.66661
  23378023.2734   -5424554.32845  -4169647.18061
  23244067.5164   -5032721.12445  -3832665.70461
  20971595.6094     319699.76046    249115.40462
 91  5 14 19 31  0.0000000  0  6G18G 2G11G16G 6G19
  22275522.109     8075868.404 6   6292867.71921
  21761778.844   -13513113.623 7 -10529691.28722
  23066628.688    -7522506.851 6  -5861663.57221
  23376949.9694   -5430202.79045  -4174048.61861
  23237218.8754   -5068706.06345  -3860705.88761
  20973103.7664     327614.76046    255282.92762
 91  5 14 19 31 15.0000000  0  6G18G 2G11G16G 6G19
  22283202.7664    8116221.36446   6324311.49661
  21754876.9454  -13549373.54347 -10557945.73462
  23065411.461    -7528899.091 6  -5866644.49521
  23375898.586    -5435719.278 5  -4178347.22221
  23230373.2664   -5104677.64545  -3888735.64661
  20974615.4064     335577.88146    261487.95162
 91  5 14 19 31 30.0000000  0  6G18G 2G11G16G 6G19
  22290894.672     8156646.140 6   6355811.23921
  21747991.5944  -13585556.51047 -10586140.21762
  23064224.102    -7535142.292 6  -5871509.27721
  23374872.992    -5441102.557 5  -4182542.02421
  23223531.8134   -5140634.44845  -3916753.90461
  20976144.8524     343590.35946    267731.42762
 91  5 14 19 31 45.0000000  0  6G18G 2G11G16G 6G19
  22298599.594     8197142.409 6   6387366.69121
  21741120.5314  -13621662.89847 -10614275.03262
  23063063.109    -7541236.860 6  -5876258.24221
  23373873.1724   -5446353.17845  -4186633.44561
  23216692.844    -5176576.928 5  -3944760.98721
  20977675.0784     351651.97246    274013.19162
 91  5 14 19 32  0.0000000  0  6G18G 2G11G16G 6G19
  22306321.758     8237711.058 6   6418978.54021
  21734262.5314  -13657691.11147
  23061932.3594   -7547181.35046  -5880890.26461
  23372904.898    -5451469.762 5  -4190620.43521
  23209859.4534   -5212503.69845
  20979221.8594     359764.11646    280334.33962
 91  5 14 19 32 15.0000000  0  6G18G 2G11G16G 6G19
  22314055.430     8278349.780 6   6450644.99721
  21727423.0004  -13693643.25847
  23060830.117    -7552977.872 6  -5885406.98521
  23371949.4384   -5456454.68145  -4194504.83361
  23203021.1884   -5248416.99445
  20980771.7504     367924.65146    286693.18662
 91  5 14 19 32 30.0000000  0  6G18G 2G11G16G 6G19
  22321799.813     8319056.311 6   6482364.28321
  21720593.2114  -13729521.29047
  23059754.4304   -7558628.31746  -5889809.89361
  23371030.789    -5461310.060 5  -4198288.27821
  23196192.9454   -5284318.86945
  20982335.2274     376131.78546    293088.34862
 91  5 14 19 32 45.0000000  0  6G18G 2G11G16G 6G19
  22329559.867     8359833.038 6   6514138.27621
  21713782.953   -13765322.461 7 -10726217.40022
  23058707.945    -7564130.035 6  -5894096.90321
  23370129.4144   -5466033.00845  -4201968.53561
  23189363.906    -5320206.653 5  -4056680.07821
  20983905.8984     384388.02146    299521.77362
 91  5 14 19 33  0.0000000  0  6G18G 2G11G16G 6G19
  22337333.891     8400681.684 6   6545968.30421
  21706987.8524  -13801044.92447 -10754053.04662
  23057690.664    -7569481.122 6  -5898266.52521
  23369258.992    -5470622.167 5  -4205544.53621
  23182535.7584   -5356078.50945  -4084632.13961
  20985487.3674     392695.23946    305994.92762
 91  5 14 19 33 15.0000000  0  6G18G 2G11G16G 6G19
  22345119.859     8441603.987 6   6577855.73321
  21700203.7664  -13836686.66647 -10781825.79362
  23056699.047    -7574679.646 6  -5902317.27721
  23368404.039    -5475075.585 5  -4209014.77121
  23175711.6564   -5391932.57645  -4112570.33161
  20987074.4614     401055.42546    312509.35662
 91  5 14 19 33 30.0000000  0  6G18G 2G11G16G 6G19
  22352923.9924    8482595.08146   6609796.76361
  21693434.8054  -13872251.98847 -10809538.99462
  23055739.313    -7579729.904 6  -5906252.50121
  23367588.820    -5479397.497 5  -4212382.52421
  23168888.875    -5427773.253 5  -4140498.07621
  20988678.3834     409464.11246    319061.57062
 91  5 14 19 33 45.0000000  0  6G18G 2G11G16G 6G19
  22360735.984     8523657.857 6   6641793.64721
  21686684.5004  -13907738.00547 -10837190.40162
  23054805.898    -7584628.791 6  -5910069.76921
  23366790.2584   -5483585.11345  -4215645.64561
  23162074.563    -5463597.607 5  -4168413.12421
  20990285.9694     417924.38546    325653.99362
 91  5 14 19 34  0.0000000  0  6G18G 2G11G16G 6G19
  22368561.008     8564790.492 6   6673844.97321
  21679944.281   -13943146.303 7 -10864781.23922
  23053901.820    -7589377.959 6  -5913770.36821
  23366016.6254   -5487640.34645  -4218805.59961
  23155259.938    -5499407.241 5  -4196316.69021
  20991909.0084     426434.54546    332285.28362
 91  5 14 19 34 15.0000000  0  6G18G 2G11G16G 6G19
  22376404.188     8605989.851 6   6705948.27721
  21673219.1484  -13978479.81247 -10892313.80562
  23053025.617    -7593980.445 6  -5917356.68021
  23365269.5864   -5491566.16945  -4221864.71661
  23148444.2664   -5535205.38245  -4224211.30261
  20993536.0704     434991.60346    338953.11862
 91  5 14 19 34 30.0000000  0  6G18G 2G11G16G 6G19
  22384258.617     8647256.493 6   6738104.01421
  21666511.9304  -14013737.47547 -10919787.27162
  23052179.750    -7598435.158 6  -5920827.83421
  23364547.156    -5495361.749 5  -4224822.34821
  23141635.688    -5570990.873 5  -4252096.05121
  20995173.2344     443596.65446    345658.35162
 91  5 14 19 34 45.0000000  0  6G18G 2G11G16G 6G19
  22392121.000     8688588.097 6   6770310.38421
  21659817.2734  -14048921.26847 -10947203.18162
  23051355.3674   -7602744.15346  -5924185.45461
  23363845.719    -5499029.340 5  -4227680.25321
  23134828.688    -5606765.768 5  -4279972.54921
  20996816.8674     452247.72746    352399.44762
 91  5 14 19 35  0.0000000  0  6G18G 2G11G16G 6G19
  22399995.586     8729987.200 6   6802569.34421
  21653132.9064  -14084028.44947 -10974559.38662
  23050567.789    -7606904.635 6  -5927427.34221
  23363178.633    -5502565.988 5  -4230436.11721
  23128019.313    -5642527.436 5  -4307838.73221
  20998475.4534     460947.48646    359178.47462
 91  5 14 19 35 15.0000000  0  6G18G 2G11G16G 6G19
  22407889.859     8771456.680 6   6834883.13321
  21646471.6024  -14119055.87047 -11001853.44462
  23049802.133    -7610913.652 6  -5930551.21221
  23362531.0084   -5505968.76145  -4233087.66461
  23121223.828    -5678272.853 5  -4335692.26221
  21000138.5474     469699.05646    365997.87362
 91  5 14 19 35 30.0000000  0  6G18G 2G11G16G 6G19
  22415795.7274    8812995.75046   6867251.15261
  21639820.4454  -14154003.96847 -11029085.69062
  23049069.672    -7614771.448 6  -5933557.24121
  23361911.6024   -5509238.60145  -4235635.62161
  23114422.484    -5714002.532 5  -4363533.52721
  21001817.4774     478501.95946    372857.27762
 91  5 14 19 35 45.0000000  0  6G18G 2G11G16G 6G19
  22423712.2814    8854601.13446   6899670.84861
  21633181.9614  -14188875.57047 -11056258.32962
  23048363.8204   -7618481.02846  -5936447.78261
  23361311.6254   -5512378.39745  -4238082.24961
  23107628.0474   -5749719.35345  -4391364.77361
  21003498.0784     487353.17246    379754.32062
 91  5 14 19 36  0.0000000  0  6G18G 2G11G16G 6G19
  22431642.203     8896272.793 6   6932142.18721
  21626563.2114  -14223670.50947 -11083371.23662
  23047684.750    -7622042.249 6  -5939222.70621
  23360739.641    -5515388.037 5  -4240427.47321
  23100829.000    -5785423.292 5  -4419185.97321
  21005193.3914     496253.01246    386689.26062
 91  5 14 19 36 15.0000000  0  6G18G 2G11G16G 6G19
  22439584.688     8938013.718 6   6964667.49921
  21619955.6024  -14258385.60947 -11110421.92762
  23047036.859    -7625451.748 6  -5941879.42021
  23360190.633    -5518264.392 5  -4242668.82221
  23094042.648    -5821111.142 5  -4446994.63221
  21006894.6094     505204.83046    393664.69962
 91  5 14 19 36 30.0000000  0  6G18G 2G11G16G 6G19
  22447539.1174    8979819.60846   6997243.42261
  21613363.766   -14293025.155 7 -11137413.74222
  23046417.156    -7628713.892 6  -5944421.30921
  23359671.539    -5521011.883 5  -4244809.77721
  23087252.891    -5856787.200 5  -4474794.11621
  21008612.7974     514204.23046    400677.21762
 91  5 14 19 36 45.0000000  0  6G18G 2G11G16G 6G19
  22455508.391     9021693.340 6   7029872.22621
  21606789.313   -14327585.768 7 -11164344.05223
  23045824.211    -7631825.377 6  -5946845.79321
  23359171.9224   -5523627.24345  -4246847.74261
  23080466.203    -5892448.200 5  -4502581.86521
  21010330.6804     523254.64646    407729.48662
 91  5 14 19 37  0.0000000  0  6G18G 2G11G16G 6G19
  22463491.164     9063630.738 6   7062550.63921
  21600224.9144  -14362071.50747 -11191216.01562
  23045260.336    -7634790.374 6  -5949156.12721
  23358696.5704   -5526115.05245  -4248786.32561
  23073677.320    -5928098.319 5  -4530361.13521
  21012066.2584     532351.75846    414818.14362
 91  5 14 19 37 15.0000000  0  6G18G 2G11G16G 6G19
  22471483.6884    9105632.41346   7095279.12861
  21593676.6414  -14396481.30347 -11218028.80863
  23044720.9774   -7637607.60346  -5951351.33261
  23358247.477    -5528474.021 5  -4250624.52921
  23066898.523    -5963736.340 5  -4558130.97421
  21013801.0234     541496.70146    421944.07262
 91  5 14 19 37 30.0000000  0  6G18G 2G11G16G 6G19
  22479486.6564    9147697.50346   7128057.03861
  21587144.633   -14430815.526 7 -11244782.70823
  23044216.125    -7640277.685 6  -5953431.87121
  23357825.1884   -5530704.94445  -4252362.95261
  23060120.7664   -5999362.97645  -4585891.95261
  21015550.5784     550688.98746    429106.88462
 91  5 14 19 37 45.0000000  0  6G18G 2G11G16G 6G19
  22487507.4694    9189828.54146   7160886.32461
  21580626.8054  -14465071.22347 -11271475.42163
  23043735.2584   -7642797.77046  -5955395.53061
  23357424.0314   -5532804.88445  -4253999.30361
  23053345.953    -6034975.284 5  -4613641.75121
  21017309.5474     559931.61946    436308.93362
 91  5 14 19 38  0.0000000  0  6G18G 2G11G16G 6G19
  22495535.648     9232024.640 6   7193766.32221
  21574120.7584  -14499249.29447 -11298107.64762
  23043287.102    -7645168.746 6  -5957242.99621
  23357048.6094   -5534774.86445  -4255534.39161
  23046572.0004   -6070574.28445  -4641381.19661
  21019078.1564     569223.76346    443549.56262
 91  5 14 19 38 15.0000000  0  6G18G 2G11G16G 6G19
  22503574.922     9274286.985 6   7226697.93121
  21567633.2734  -14533348.43647 -11324678.37363
  23042863.922    -7647389.080 6  -5958973.09221
  23356701.4304   -5536613.39345  -4256967.04861
  23039799.156    -6106158.477 5  -4669109.09321
  21020855.7734     578566.84746    450829.87962
 91  5 14 19 38 30.0000000  0  6G18G 2G11G16G 6G19
  22511631.8594    9316609.95646   7259676.77861
  21561160.5394  -14567373.86547 -11351191.66263
  23042466.367    -7649464.209 6  -5960590.03421
  23356375.5704   -5538326.36645  -4258301.86761
  23033026.9144   -6141733.31945  -4696829.70461
  21022643.5394     587955.38446    458145.62462
 91  5 14 19 38 45.0000000  0  6G18G 2G11G16G 6G19
  22519697.016     9358999.831 6   7292707.76821
  21554697.6954  -14601318.94047 -11377642.32763
  23042101.766    -7651387.558 6  -5962088.71221
  23356074.078    -5539907.589 5  -4259534.03121
  23026262.6724   -6177292.22745  -4724537.90061
  21024439.1414     597396.09446    465502.01462
 91  5 14 19 39  0.0000000  0  6G18G 2G11G16G 6G19
  22527776.1254    9401455.37546   7325789.92661
  21548251.195   -14635184.380 7 -11404030.93423
  23041763.727    -7653159.990 6  -5963469.79521
  23355797.133    -5541357.553 5  -4260663.91021
  23019496.047    -6212836.090 5  -4752234.37421
  21026246.1094     606888.13046    472898.40562
 91  5 14 19 39 15.0000000  0  6G18G 2G11G16G 6G19
  22535866.3914    9443976.65846   7358923.30161
  21541821.9304  -14668970.17447 -11430357.48563
  23041457.570    -7654781.283 6  -5964733.10021
  23355546.352    -5542676.254 5  -4261691.52321
  23012734.8754   -6248364.85245  -4779919.08861
  21028060.6724     616431.57446    480334.84762
 91  5 14 19 39 30.0000000  0  6G18G 2G11G16G 6G19
  22543970.844     9486555.633 6   7392101.63821
  21535408.9614  -14702683.89047 -11456627.87963
  23041174.5554   -7656259.23446  -5965884.71661
  23355315.844    -5543871.625 5  -4262623.02121
  23005978.539    -6283886.161 5  -4807597.97621
  21029890.9064     626018.80346    487805.40962
 91  5 14 19 39 45.0000000  0  6G18G 2G11G16G 6G19
  22552085.9694    9529199.79846   7425330.77261
  21529006.4144  -14736317.96047 -11482836.20963
  23040919.5234   -7657586.29046  -5966918.75161
  23355118.6644   -5544936.51345  -4263452.85961
  22999217.539    -6319392.338 5  -4835265.08121
  21031719.3984     635657.48246    495316.06162
 91  5 14 19 40  0.0000000  0  6G18G 2G11G16G 6G19
  22560211.1884    9571907.80646   7458609.64961
  21522622.359   -14769873.286 7 -11508983.17923
  23040697.516    -7658763.294 6  -5967835.87221
  23354939.461    -5545871.801 5  -4264181.70421
  22992463.984    -6354884.411 5  -4862921.19321
  21033568.6024     645346.60946    502866.02262
 91  5 14 19 40 15.0000000  0  6G18G 2G11G16G 6G19
  22568354.3444    9614679.59746   7491938.23061
  21516252.4384  -14803349.57147 -11535068.56363
  23040500.2034   -7659789.96446  -5968635.84461
  23354785.352    -5546677.315 5  -4264809.42621
  22985719.141    -6390362.246 5  -4890566.21721
  21035416.8524     655086.24946    510455.35762
 91  5 14 19 40 30.0000000  0  6G18G 2G11G16G 6G19
  22576505.2424    9657515.65846   7525316.88061
  21509898.1804  -14836745.89347 -11561091.63963
  23040336.7114   -7660665.45346  -5969318.02461
  23354657.352    -5547352.233 5  -4265335.39121
  22978965.922    -6425825.102 5  -4918199.56221
  21037280.1884     664877.54046    518084.92262
 91  5 14 19 40 45.0000000  0  6G18G 2G11G16G 6G19
  22584666.844     9700415.131 6   7558744.95921
  21503557.7034  -14870062.99547 -11587052.98463
  23040198.3524   -7661390.50346  -5969882.96861
  23354555.820    -5547897.254 5  -4265760.12621
  22972219.016    -6461273.518 5  -4945821.64721
  21039152.7894     674719.63046    525754.07962
 91  5 14 19 41  0.0000000  0  6G18G 2G11G16G 6G19
  22592841.6724    9743380.24046   7592224.17261
  21497231.4224  -14903298.59647 -11612950.81763
  23040088.797    -7661962.911 6  -5970328.98221
  23354473.9534   -5548310.13645  -4266081.90861
  22965478.594    -6496705.304 6  -4973430.78521
  21041036.9224     684615.08246    533464.81762
 91  5 14 19 41 15.0000000  0  6G18G 2G11G16G 6G19
  22601032.4774    9786408.95346   7625752.94761
  21490925.1644  -14936454.34247 -11638786.42963
  23040009.922    -7662384.471 6  -5970657.44521
  23354421.695    -5548593.254 5  -4266302.56721
  22958741.523    -6532122.243 6  -5001028.36121
  21042929.3984     694562.05647    541215.69962
 91  5 14 19 41 30.0000000  0  6G18G 2G11G16G 6G19
  22609232.0164    9829497.27646   7659328.16761
  21484628.242   -14969533.713 7 -11664562.52123
  23039954.6484   -7662658.77446  -5970871.15961
  23354390.211    -5548750.023 5
  22952005.188    -6567527.862 6  -5028617.09521
  21044835.4614     704556.99046    549003.95462
 91  5 14 19 41 44.9990000  0  6G18G 2G11G16G 6G19
  22617440.8944    9872646.90146   7692951.16361
  21478352.1054  -15002529.93247 -11690273.82863
  23039934.6984   -7662781.02046
  23354384.870    -5548775.935 5
  22945268.800    -6602915.103 5  -5056191.52121
  21046742.745      714604.028 6    556832.80022
 91  5 14 19 41 59.9990000  0  6G18G 2G11G16G 6G19
  22625664.4644    9915862.50546   7726625.55661
  21472086.9874  -15035448.20247 -11715924.39163
  23039939.5034   -7662752.20546
  23354407.636    -5548672.325 5
  22938532.6364   -6638289.75245  -5083756.14361
  21048667.3234     724703.54446    564702.54462
 91  5 14 19 42 14.9990000  0  6G18G 2G11G16G 6G19
  22633901.315     9959137.371 6   7760346.12921
  21465837.9484  -15068289.64047 -11741515.08463
  23039973.5654   -7662575.67446
  23354447.230    -5548442.621 5
  22931804.433    -6673652.771 5  -5111311.69221
  21050595.3154     734851.61546    572610.12562
 91  5 14 19 42 29.9990000  0  6G18G 2G11G16G 6G19
  22642147.2694   10002472.89546   7794113.98661
  21459603.5974  -15101052.69947 -11767044.71063
  23040035.112    -7662249.898 6
  23354514.355    -5548085.092 5
  22925077.6674   -6709002.54946  -5138856.93161
  21052539.7374     745049.82346    580556.76962
 91  5 14 19 42 44.9990000  0  6G18G 2G11G16G 6G19
  22650403.2924   10045874.51646   7827933.33561
  21453381.0264  -15133731.98447 -11792509.06063
  23040125.0034   -7661769.42246
  23354609.394    -5547594.525 5
  22918357.987    -6744333.583 6  -5166387.56021
  21054485.4484     755303.72346    588546.81262
 91  5 14 19 42 59.9990000  0  6G18G 2G11G16G 6G19
  22658678.0424   10089338.35346   7861801.15861
  21447179.5974  -15166330.54947 -11817910.50863
  23040246.589    -7661137.685 6
  23354728.722    -5546974.524 5
  22911641.003    -6779649.298 6  -5193906.24821
  21056450.815      765609.901 6    596577.58122
 91  5 14 19 43 14.9990000  0  6G18G 2G11G16G 6G19
  22666960.026    10132863.480 6   7895716.73621
  21440991.042   -15198849.355 7 -11843249.80723
  23040392.237    -7660355.391 6
  23354869.136    -5546225.850 5
  22904919.1444   -6814950.53746  -5221413.66761
  21058421.9254     775967.41947    604648.37462
 91  5 14 19 43 29.9990000  0  6G18G 2G11G16G 6G19
  22675253.6984   10176448.98446   7929679.36961
  21434816.8084  -15231288.87147 -11868527.32463
  23040572.487    -7659423.294 6
  23355033.636    -5545349.651 5
  22898200.128    -6850237.912 6  -5248910.27421
  21060403.4404     786375.83146    612758.81262
 91  5 14 19 43 44.9990000  0  6G18G 2G11G16G 6G19
  22683560.651    10220092.959 6   7963687.54921
  21428659.8234  -15263650.64247 -11893744.25763
  23040776.308    -7658342.947 6
  23355230.120    -5544347.130 5
  22891488.776    -6885513.066 6  -5276397.35921
  21062391.183      796833.606 7    620907.71622
 91  5 14 19 43 59.9990000  0  6G18G 2G11G16G 6G19
  22691875.222    10263796.586 6   7997742.22421
  21422517.1204  -15295933.36447 -11918899.58863
  23041010.3624   -7657113.12946  -5966549.67961
  23355440.0034   -5543217.37345
  22884776.9174   -6920774.61146  -5303873.84461
  21064394.089      807342.055 6    629096.10922
 91  5 14 19 44 14.9990000  0  6G18G 2G11G16G 6G19
  22700203.440    10307559.996 6   8031843.47821
  21416386.6674  -15328136.50447 -11943992.91363
  23041275.8474   -7655733.30346  -5965474.48061
  23355680.026    -5541960.077 5
  22878072.925    -6956022.076 6  -5331339.35621
  21066398.956      817901.839 6    637324.49822
 91  5 14 19 44 29.9990000  0  6G18G 2G11G16G 6G19
  22708541.597    10351382.423 6   8065990.72721
  21410276.3154  -15360260.70247 -11969024.72763
  23041566.401    -7654204.001 6  -5964282.80021
  23355943.0194   -5540575.76145  -4260055.73561
  22871369.894    -6991256.021 6  -5358794.33421
  21068420.2304     828512.27246    645592.36062
 91  5 14 19 44 44.9990000  0  6G18G 2G11G16G 6G19
  22716892.058    10395263.901 6   8100183.97321
  21404178.9254  -15392305.48847 -11993994.65263
  23041885.487    -7652524.972 6  -5962974.44621
  23356232.448    -5539064.466 5  -4258878.14421
  22864665.417    -7026476.157 6  -5386238.55421
  21070447.909      839173.867 7    653900.08022
 91  5 14 19 44 59.9990000  0  6G18G 2G11G16G 6G19
  22725254.651    10439201.554 6   8134420.99221
  21398094.7534  -15424273.30247 -12018904.60163
  23042232.5034   -7650698.82646  -5961551.46361
  23356544.948    -5537428.825 5  -4257603.66921
  22857964.675    -7061685.012 5  -5413673.98121
  21072488.3314     849883.88746    662245.54162
 91  5 14 19 45 14.9990000  0  6G18G 2G11G16G 6G19
  22733627.753    10483193.398 6   8168700.25321
  21392025.3314  -15456166.15747 -12043756.13663
  23042608.183    -7648727.499 6  -5960015.34321
  23356880.112    -5535670.965 5  -4256233.95221
  22851266.1594   -7096884.54946  -5441102.13161
  21074533.714      860640.520 6    670627.32122
 91  5 14 19 45 29.9990000  0  6G18G 2G11G16G 6G19
  22742008.933    10527242.490 6   8203024.11121
  21385972.8554  -15487980.81447 -12068546.74663
  23043012.409    -7646607.865 6  -5958363.65821
  23357235.347    -5533787.776 5  -4254766.57921
  22844573.550    -7132071.511 6  -5468520.49221
  21076593.065      871447.053 6    679047.98322
 91  5 14 19 45 44.9990000  0  6G18G 2G11G16G 6G19
  22750400.6284   10571348.82946   8237392.58661
  21379931.9174  -15519716.55347 -12093275.85663
  23043438.6594   -7644339.32146  -5956595.94261
  23357621.5814   -5531778.84545  -4253201.23761
  22837879.425    -7167245.432 6  -5495928.69621
  21078656.534      882304.196 7    687508.08422
 91  5 14 19 45 59.9990000  0  6G18G 2G11G16G 6G19
  22758805.245    10615511.510 6   8271804.95121
  21373909.0194  -15551374.42047 -12117944.28863
  23043904.448    -7641922.677 6  -5954712.81621
  23358026.698    -5529645.102 5  -4251538.63421
  22831185.6514   -7202407.07646  -5523327.33761
  21080733.144      893210.971 6    696006.84822
 91  5 14 19 46 14.9990000  0  6G18G 2G11G16G 6G19
  22767221.581    10659732.096 6   8306262.44421
  21367899.4804  -15582952.33547 -12142550.42063
  23044390.5974   -7639356.38746  -5952713.08861
  23358461.315    -5527385.210 5  -4249777.71121
  22824495.159    -7237554.751 5  -5550715.08321
  21082815.651      904169.226 6    704545.73622
 91  5 14 19 46 29.9990000  0  6G18G 2G11G16G 6G19
  22775645.526    10704009.459 6   8340764.19021
  21361903.9334  -15614451.30247 -12167095.03563
  23044906.855    -7636641.225 6  -5950597.36321
  23358911.315    -5524999.935 5  -4247919.11421
  22817814.620    -7272689.143 6  -5578092.48921
  21084911.675      915178.247 6    713124.16922
 91  5 14 19 46 44.9990000  0  6G18G 2G11G16G 6G19
  22784082.120    10748344.238 6   8375310.65921
  21355925.7534  -15645870.41647 -12191577.42663
  23045455.3704   -7633776.20346  -5948364.85661
  23359387.050    -5522488.173 5  -4245961.93821
  22811128.8474   -7307809.36846  -5605458.85761
  21087016.464      926239.006 7    721742.92822
 91  5 14 19 46 59.9990000  0  6G18G 2G11G16G 6G19
  22792528.7454   10792733.35146   8409899.46161
  21349962.3624  -15677212.32447 -12215999.65763
  23046026.2304   -7630764.32246  -5946017.90061
  23359886.972    -5519853.447 5  -4243908.95921
  22804450.917    -7342918.307 6  -5632816.41821
  21089132.839      937348.598 6    730399.73322
 91  5 14 19 47 14.9990000  0  6G18G 2G11G16G 6G19
  22800991.315    10837177.576 6   8444531.21621
  21344013.7694  -15708475.87847 -12240360.83263
  23046627.6204   -7627604.57146  -5943555.71861
  23360416.6124   -5517094.52845  -4241759.21161
  22797766.214    -7378014.907 6  -5660164.36921
  21091253.690      948508.015 7    739095.36322
 91  5 14 19 47 29.9990000  0  6G18G 2G11G16G 6G19
  22809454.534    10881676.679 6   8479205.73721
  21338077.7694  -15739661.21247 -12264661.05563
  23047257.4954   -7624296.96846  -5940978.33761
  23360965.5344   -5514212.07345  -4239513.19961
  22791094.409    -7413099.192 6  -5687502.73521
  21093387.425      959717.268 6    747829.83322
 91  5 14 19 47 44.9990000  0  6G18G 2G11G16G 6G19
  22817935.5114   10926229.69846   8513922.26361
  21332159.190   -15770769.004 7 -12288900.85023
  23047914.581    -7620842.409 6  -5938286.43621
  23361536.605    -5511206.710 5  -4237171.41821
  22784420.284    -7448171.841 6  -5714832.02621
  21095526.909      970975.944 6    756602.80922
 91  5 14 19 47 59.9990000  0  6G18G 2G11G16G 6G19
  22826420.870    10970839.549 6   8548683.07021
  21326252.9404  -15801796.07447 -12313077.74863
  23048601.4724   -7617237.76946  -5935477.58961
  23362134.862    -5508075.529 5  -4234731.57021
  22777748.597    -7483229.742 6  -5742149.82421
  21097683.440      982287.188 6    765416.74622
 91  5 14 19 48 14.9990000  0  6G18G 2G11G16G 6G19
  22834922.4564   11015505.49646   8583487.59061
  21320364.5894  -15832742.89447 -12337192.11763
  23049313.1364   -7613483.63546  -5932552.25161
  23362755.917    -5504818.707 5  -4232193.83921
  22771081.112    -7518273.437 6  -5769456.54321
  21099843.073      993650.358 6    774271.14922
 91  5 14 19 48 29.9990000  0  6G18G 2G11G16G 6G19
  22843429.761    11060225.046 6   8618333.89621
  21314492.0584  -15863611.56847 -12361245.59963
  23050056.198    -7609582.057 6  -5929512.02221
  23363392.0194   -5501439.00445  -4229560.34361
  22764411.9094   -7553304.99946  -5796753.83061
  21102015.495     1005063.545 6    783164.52222
 91  5 14 19 48 44.9990000  0  6G18G 2G11G16G 6G19
  22851952.7694   11104999.71446   8653223.13961
  21308629.6444  -15894400.16047 -12385236.66763
  23050825.5264   -7605531.18846  -5926355.46161
  23364065.487    -5497934.635 5  -4226829.71821
  22757749.925    -7588322.507 6  -5824040.15121
  21104197.573     1016528.543 7    792098.26922
 91  5 14 19 48 59.9990000  0  6G18G 2G11G16G 6G19
  22860485.1904   11149834.33346   8688159.08561
  21302789.5654  -15925103.81147 -12409161.55763
  23051625.6054   -7601326.23146  -5923078.84261
  23364757.948    -5494300.958 5  -4223998.33321
  22751086.433    -7623321.116 6  -5851311.74421
  21106395.503     1028050.330 6    801076.26722
 91  5 14 19 49 14.9990000  0  6G18G 2G11G16G 6G19
  22869029.3234   11194725.35546   8723138.98161
  21296964.2224  -15955725.92747 -12433022.91163
  23052455.190    -7596970.710 6  -5919684.89121
  23365468.5814   -5490541.48445  -4221068.92761
  22744436.4014   -7658304.26146  -5878571.30261
  21108590.925     1039625.477 6    810095.84822
 91  5 14 19 49 29.9990000  0  6G18G 2G11G16G 6G19
  22877579.9014   11239669.94046   8758160.61661
  21291149.9724  -15986268.70847 -12456822.43663
  23053312.534    -7592466.941 6  -5916175.41721
  23366205.8554   -5486658.77445  -4218043.49761
  22737779.3554   -7693274.23046  -5905820.58261
  21110808.401     1051251.776 6    819155.28322
 91  5 14 19 49 44.9990000  0  6G18G 2G11G16G 6G19
  22886142.097    11284668.252 6   8793224.13621
  21285353.0584  -16016731.87347 -12480559.93063
  23054198.753    -7587814.616 6  -5912550.17921
  23366971.034    -5482652.681 5  -4214921.92321
  22731123.769    -7728230.670 6  -5933059.31421
  21113027.323     1062929.589 7    828254.86122
 91  5 14 19 49 59.9990000  0  6G18G 2G11G16G 6G19
  22894717.722    11329722.703 6   8828331.38121
  21279571.3394  -16047112.66047 -12504233.23163
  23055112.378    -7583011.215 6  -5908807.22721
  23367753.4174   -5478520.55845  -4211702.12861
  22724476.6514   -7763170.98246  -5960285.50161
  21115260.042     1074661.477 6    837396.56922
 91  5 14 19 50 14.9990000  0  6G18G 2G11G16G 6G19
  22903300.0264   11374829.60446   8863479.49561
  21273803.519   -16077414.850 7 -12527845.27923
  23056053.261    -7578060.503 6  -5904949.48321
  23368561.6204   -5474266.30545  -4208387.17561
  22717830.7374   -7798098.78246  -5987501.91561
  21117501.339     1086444.008 6    846577.74722
 91  5 14 19 50 29.9990000  0  6G18G 2G11G16G 6G19
  22911894.2144   11419991.55146   8898670.50661
  21268053.1444  -16107635.31847 -12551393.66263
  23057026.167    -7572959.458 6  -5900974.59221
  23369393.901    -5469886.892 5  -4204974.69421
  22711189.792    -7833010.869 6  -6014706.09221
  21119756.940     1098280.158 6    855800.70122
 91  5 14 19 50 44.9990000  0  6G18G 2G11G16G 6G19
  22920498.784    11465204.539 6   8933901.29521
  21262319.2764  -16137777.72047 -12574881.21163
  23058023.862    -7567711.855 6  -5896885.50721
  23370255.776    -5465386.559 5  -4201467.98421
  22704545.948    -7867911.108 6  -6041901.03921
  21122015.7924    1110166.36046    865062.66362
 91  5 14 19 50 59.9990000  0  6G18G 2G11G16G 6G19
  22929109.847    11510471.596 6   8969174.20921
  21256598.847   -16167838.680 7 -12598305.28823
  23059051.331    -7562314.446 6  -5892679.69221
  23371133.659    -5460761.892 5  -4197864.40221
  22697911.3624   -7902796.11246  -6069084.12261
  21124288.401     1122105.862 6    874366.15922
 91  5 14 19 51 14.9990000  0  6G18G 2G11G16G 6G19
  22937737.6204   11555791.87346   9004488.58661
  21250891.526   -16197818.982 7 -12621666.51623
  23060106.612    -7556768.062 6  -5888357.79421
  23372036.542    -5456014.051 5  -4194164.83321
  22691270.190    -7937666.665 6  -6096255.93321
  21126569.073     1134098.055 6    883710.71222
 91  5 14 19 51 29.9990000  0  6G18G 2G11G16G 6G19
  22946370.9804   11601163.58346   9039843.05661
  21245204.526   -16227720.004 7 -12644965.96823
  23061188.761    -7551074.128 6  -5883920.91521
  23372963.878    -5451144.442 5  -4190370.39021
  22684636.980    -7972524.173 6  -6123417.59521
  21128862.894     1146141.517 6    893095.21022
 91  5 14 19 51 44.9990000  0  6G18G 2G11G16G 6G19
  22955016.901    11646591.551 6   9075241.34721
  21239529.956   -16257536.716 7 -12668199.72823
  23062302.003    -7545227.628 6  -5879365.15821
  23373918.5344   -5446148.10745  -4186477.19461
  22678008.1364   -8007363.42546  -6150565.01761
  21131165.722     1158241.401 6    902523.67722
 91  5 14 19 51 59.9990000  0  6G18G 2G11G16G 6G19
  22963670.5814   11692072.20646   9110680.69661
  21233870.5264  -16287272.41747 -12691370.36663
  23063444.1444   -7539232.20846  -5874693.36661
  23374889.292    -5441028.806 5  -4182488.17321
  22671384.917    -8042188.165 6  -6177701.14221
  21133483.534     1170394.216 6    911993.38422
 91  5 14 19 52 14.9990000  0  6G18G 2G11G16G 6G19
  22972336.511    11737603.883 6   9146159.81221
  21228227.5974  -16316928.35547 -12714478.85363
  23064610.1124   -7533089.20446  -5869906.57361
  23375884.730    -5435787.956 5  -4178404.45121
  22664757.0424   -8076999.35246  -6204826.70661
  21135801.464     1182598.690 6    921503.34722
 91  5 14 19 52 29.9990000  0  6G18G 2G11G16G 6G19
  22981009.034    11783188.277 6   9181679.99721
  21222599.6444  -16346502.41947 -12737523.53263
  23065808.0034   -7526796.57246  -5865003.18461
  23376907.4564   -5430423.59945  -4174224.48961
  22658134.472    -8111795.033 6  -6231940.16121
  21138137.0194    1194857.00546    931055.26762
 91  5 14 19 52 44.9990000  0  6G18G 2G11G16G 6G19
  22989692.6124   11828821.38546   9217238.14361
  21216985.401   -16375998.671 7 -12760507.57823
  23067033.5344   -7520358.24846  -5859986.27661
  23377956.558    -5424940.039 5  -4169951.63721
  22651517.308    -8146579.058 6  -6259044.55921
  21140472.753     1207165.422 6    940646.22822
 91  5 14 19 52 59.9990000  0  6G18G 2G11G16G 6G19
  22998386.8394   11874498.96946   9252830.94361
  21211386.7614  -16405421.15447 -12783434.15663
  23068287.362    -7513778.498 6  -5854859.15721
  23379016.105    -5419341.317 5  -4165589.05421
  22644892.8314   -8181355.50946  -6286143.05461
  21142827.706     1219519.755 6    950272.96522
 91  5 14 19 53 14.9990000  0  6G18G 2G11G16G 6G19
  23007084.472    11920226.680 6   9288462.82521
  21205801.6444  -16434763.62747 -12806298.37763
  23069566.690    -7507051.201 6  -5849617.07721
  23380107.894    -5413621.841 5  -4161132.36521
  22638283.190    -8216118.135 6  -6313230.76621
  21145187.581     1231926.172 7    959940.29222
 91  5 14 19 53 29.9990000  0  6G18G 2G11G16G 6G19
  23015797.5194   11965994.87146   9324126.21461
  21200233.0264  -16464035.82947 -12829107.84863
  23070875.4404   -7500186.04146  -5844267.57561
  23381215.573    -5407791.017 5  -4156588.94421
  22631667.300    -8250876.639 6  -6340315.26121
  21147558.901     1244375.336 6    969640.92222
 91  5 14 19 53 44.9990000  0  6G18G 2G11G16G 6G19
  23024516.8784   12011817.60646   9359832.11561
  21194678.8554  -16493223.20547 -12851851.22663
  23072209.019    -7493168.833 6  -5838799.57221
  23382345.597    -5401835.085 5  -4151948.01821
  22625055.3154   -8285616.71646  -6367385.39861
  21149935.144     1256881.509 7    979385.97222
 91  5 14 19 53 59.9990000  0  6G18G 2G11G16G 6G19
  23033246.597    12057684.319 6   9395572.29921
  21189139.065   -16522335.974 7 -12874536.45723
  23073572.5734   -7486009.95346  -5833221.19461
  23383507.269    -5395764.347 5  -4147217.62121
  22618450.831    -8320348.607 6  -6394449.16821
  21152328.8624    1269434.29646    989167.35762
 91  5 14 19 54 14.9990000  0  6G18G 2G11G16G 6G19
  23041981.894    12103597.680 6   9431348.81221
  21183612.1984  -16551371.16647 -12897161.24563
  23074959.9094   -7478706.50246  -5827530.16361
  23384677.4804   -5389575.92645  -4142395.54461
  22611842.776    -8355069.301 6  -6421504.19821
  21154724.198     1282036.705 7    998987.39422
 91  5 14 19 54 29.9990000  0  6G18G 2G11G16G 6G19
  23050732.3624   12149568.23746   9467169.89561
  21178104.8474  -16580317.98847 -12919717.17563
  23076381.026    -7471247.497 6  -5821717.92721
  23385887.261    -5383259.084 5  -4137473.39021
  22605239.394    -8389767.763 6  -6448541.91321
  21157132.878     1294699.972 6   1008854.85922
 91  5 14 19 54 44.9990000  0  6G18G 2G11G16G 6G19
  23059486.167    12195587.727 6   9503029.12421
  21172613.5654  -16609184.65747 -12942210.64763
  23077827.8704   -7463641.23646  -5815790.94061
  23387115.956    -5376822.333 5  -4132457.77321
  22598640.847    -8424452.164 6  -6475568.67421
  21159552.339     1307415.765 6   1018763.25222
 91  5 14 19 54 59.9990000  0  6G18G 2G11G16G 6G19
  23068255.0424   12241657.82346   9538927.77161
  21167134.3864  -16637969.04747 -12964639.99763
  23079302.315    -7455885.877 6  -5809747.78321
  23388353.3394   -5370263.77545  -4127347.28661
  22592042.7844   -8459120.53146  -6502582.94461
  21161985.933     1320186.202 6   1028714.22122
 91  5 14 19 55 14.9990000  0  6G18G 2G11G16G 6G19
  23077032.050    12287780.906 6   9574867.69821
  21161672.4804  -16666668.39047 -12987003.08863
  23080806.933    -7447979.000 6  -5803586.56121
  23389630.995    -5363581.078 5  -4122140.04621
  22585448.253    -8493770.199 6  -6529582.63721
  21164421.4094    1333013.85347   1038709.78162
 91  5 14 19 55 29.9990000  0  6G18G 2G11G16G 6G19
  23085817.323    12333952.555 6   9610845.48121
  21156227.620   -16695286.872 7 -13009303.16523
  23082339.917    -7439924.513 6  -5797310.31721
  23390926.9874   -5356778.25345  -4116839.20261
  22578856.878    -8528405.382 6  -6556571.05021
  21166875.730     1345894.784 6   1048746.85122
 91  5 14 19 55 44.9990000  0  6G18G 2G11G16G 6G19
  23094613.690    12380166.287 6   9646856.04521
  21150796.526   -16723830.876 7 -13031545.19623
  23083900.9094   -7431729.13146  -5790924.28561
  23392235.0344   -5349861.96745  -4111449.94061
  22572267.308    -8563032.254 6  -6583552.97721
  21169336.175     1358822.515 7   1058820.38622
 91  5 14 19 55 59.9990000  0  6G18G 2G11G16G 6G19
  23103414.3004   12426426.09946   9682902.51861
  21145379.6284  -16752296.17647 -13053725.91363
  23085488.534    -7423388.724 6  -5784425.24821
  23393582.1444   -5342828.47645  -4105969.34961
  22565678.261    -8597646.692 6  -6610525.22021
  21171805.198     1371801.305 6   1068933.71022
 91  5 14 19 56 14.9990000  0  6G18G 2G11G16G 6G19
  23112226.3234   12472729.50846   9718982.99061
  21139976.2694  -16780684.74347 -13075846.83763
  23087104.2534   -7414905.42246  -5777814.87661
  23394933.909    -5335680.095 5  -4100399.25321
  22559093.737    -8632250.759 6  -6637489.37621
  21174281.855     1384829.230 7   1079085.32222
 91  5 14 19 56 29.9990000  0  6G18G 2G11G16G 6G19
  23121045.855    12519080.219 6   9755100.29421
  21134588.4804  -16808992.87347 -13097905.08263
  23088742.9724   -7406275.49946  -5771090.26061
  23396318.620    -5328412.993 5  -4094736.62621
  22552513.230    -8666840.612 6  -6664442.46421
  21176778.995     1397910.247 6   1089278.30722
 91  5 14 19 56 44.9990000  0  6G18G 2G11G16G 6G19
  23129877.878    12565479.224 6   9791255.22121
  21129217.0264  -16837219.21247 -13119899.59763
  23090414.394    -7397497.804 6  -5764250.47421
  23397727.8624   -5321026.14745  -4088980.68161
  22545936.6124   -8701414.77146  -6691383.32861
  21179271.417     1411045.580 7   1099513.61322
 91  5 14 19 56 59.9990000  0  6G18G 2G11G16G 6G19
  23138713.644    12611923.272 6   9827445.25021
  21123862.605   -16865366.654 7 -13141832.63123
  23092112.144    -7388575.218 6  -5757297.80621
  23399151.7304   -5313522.64545  -4083133.84361
  22539358.761    -8735976.389 6  -6718314.40321
  21181784.987     1424232.365 6   1109789.00522
 91  5 14 19 57 14.9990000  0  6G18G 2G11G16G 6G19
  23147560.503    12658412.116 6   9863670.19721
  21118520.4804  -16893435.36347 -13163704.30963
  23093837.6834   -7379507.99346  -5750232.42461
  23400601.0504   -5305902.50545  -4077196.12661
  22532783.901    -8770525.222 6  -6745235.52921
  21184300.675     1437470.657 7   1120104.53922
 91  5 14 19 57 29.9990000  0  6G18G 2G11G16G 6G19
  23156419.065    12704949.304 6   9899932.79921
  21113196.1054  -16921421.34347 -13185511.53163
  23095592.3314   -7370292.41246  -5743051.44261
  23402074.9094   -5298162.34945  -4071164.89661
  22526210.425    -8805057.691 6  -6772143.89121
  21186831.253     1450764.224 6   1130463.14422
 91  5 14 19 57 44.9990000  0  6G18G 2G11G16G 6G19
  23165281.308    12751533.701 6   9936232.18721
  21107885.9564  -16949325.59647 -13207255.06763
  23097371.9954   -7360929.43646  -5735755.60761
  23403568.081    -5290303.183 5  -4065040.94421
  22519645.698    -8839574.423 6  -6799039.99521
  21189371.370     1464112.403 7   1140864.29722
 91  5 14 19 57 59.9990000  0  6G18G 2G11G16G 6G19
  23174154.042    12798167.479 6   9972570.07621
  21102590.7764  -16977145.43247 -13228932.82263
  23099182.8234   -7351416.63946  -5728343.03861
  23405092.8784   -5282322.65745  -4058822.38961
  22513080.1674   -8874072.92946  -6825921.89361
  21191923.3944    1477517.54146   1151309.85262
 91  5 14 19 58 14.9990000  0  6G18G 2G11G16G 6G19
  23183038.331    12844842.985 6  10008940.46121
  21097312.198   -17004888.212 7 -13250550.52923
  23101020.2454   -7341761.54146  -5720819.58061
  23406632.2454   -5274228.40745  -4052515.23561
  22506514.6904   -8908560.58146  -6852795.33661
  21194480.511     1490972.400 6   1161794.13422
 91  5 14 19 58 29.9990000  0  6G18G 2G11G16G 6G19
  23191927.6674   12891561.84146  10045344.60861
  21092045.550   -17032552.267 7 -13272106.88923
  23102884.6204   -7331962.55046  -5713183.99761
  23408190.417    -5266018.930 5  -4046118.29821
  22499956.519    -8943035.655 6  -6879658.97321
  21197054.769     1504478.581 6   1172318.41422
 91  5 14 19 58 44.9990000  0  6G18G 2G11G16G 6G19
  23200825.8624   12938323.02946  10081781.76361
  21086797.995   -17060138.329 7 -13293602.48023
  23104777.5814   -7322020.51746  -5705436.95661
  23409779.9644   -5257695.34145  -4039632.41261
  22493396.409    -8977498.903 6  -6906513.41121
  21199631.386     1518035.557 6   1182882.27722
 91  5 14 19 58 59.9990000  0  6G18G 2G11G16G 6G19
  23209732.050    12985126.218 6  10118251.63221
  21081562.2534  -17087646.53247 -13315037.40063
  23106695.394    -7311935.643 6  -5697578.60321
  23411383.128    -5249257.879 5  -4033057.83021
  22486843.0584   -9011950.34646  -6933358.65361
  21202223.901     1531643.310 6   1193485.69322
 91  5 14 19 59 14.9990000  0  6G18G 2G11G16G 6G19
  23218647.159    13031978.049 5  10154759.42121
  21076346.4334  -17115069.75747 -13336406.11463
  23108644.3154   -7301700.93446  -5689603.50261
  23413011.675    -5240699.900 5  -4026389.33221
  22480286.511    -9046382.854 6  -6960189.13621
  21204822.847     1545308.805 7   1204134.12022
 91  5 14 19 59 29.9990000  0  6G18G 2G11G16G 6G19
  23227569.7144   13078872.78745  10191300.63661
  21071140.9094  -17142413.73447 -13357713.06663
  23110617.3474   -7291322.15846  -5681516.15261
  23414662.5424   -5232026.93645  -4019631.24361
  22473740.800    -9080802.105 6  -6987009.28521
  21207433.526     1559026.449 6   1214823.17322
 91  5 14 19 59 44.9990000  0  6G18G 2G11G16G 6G19
  23236504.0734   13125810.25545  10227875.13261
  21065952.8394  -17169678.47947 -13378958.28963
  23112622.3944   -7280799.58446  -5673316.75261
  23416339.2224   -5223239.26645  -4012783.77261
  22467192.237    -9115208.013 6  -7013819.03521
  21210052.292     1572796.516 6   1225553.07922
 91  5 14 19 59 59.9990000  0  6G18G 2G11G16G 6G19
  23245443.9644   13172783.48246  10264477.51261
  21060778.636   -17196870.433 7 -13400146.78423
  23114649.8864   -7270139.66046  -5665010.31661
  23418025.4954   -5214343.69045  -4005852.20861
  22460645.4644   -9149607.14446  -7040623.51161
  21212682.331     1586612.665 6   1236318.89322
 91  5 14 20  0 14.9990000  0  6G18G 2G11G16G 6G19
  23254392.2224   13219801.17346  10301114.52561
  21055619.8154  -17223980.54547 -13421271.50763
  23116707.3704   -7259333.62946  -5656590.03761
  23419746.651    -5205331.753 5  -3998829.97121
  22454103.339    -9183990.371 6  -7067415.59121
  21215319.175     1600483.751 6   1247127.51222
 91  5 14 20  0 29.9990000  0  6G18G 2G11G16G 6G19
  23263345.331    13266869.753 5  10337791.20621
  21050477.5974  -17251002.13947 -13442327.25763
  23118792.3154   -7248374.93446  -5648050.81161
  23421481.6364   -5196196.60845  -3991711.73961
  22447564.3784   -9218351.06646  -7094190.11961
  21217973.940     1614416.346 6   1257984.05722
 91  5 14 20  0 44.9990000  0  6G18G 2G11G16G 6G19
  23272312.8864   13313980.46745  10374500.69261
  21045350.308   -17277943.640 7 -13463320.58923
  23120904.7694   -7237272.20846  -5639399.35261
  23423241.550    -5186947.062 5  -3984504.33821
  22441027.6054   -9252697.69546  -7120953.69061
  21220633.487     1628401.968 7   1268881.92722
 91  5 14 20  0 59.9990000  0  6G18G 2G11G16G 6G19
  23281285.0654   13361132.64045  10411242.50561
  21040239.6444  -17304805.60447 -13484251.95063
  23123043.901    -7226025.924 6  -5630636.02221
  23425024.9174   -5177584.00745  -3977208.51861
  22434492.347    -9287030.667 6  -7147706.60021
  21223305.940     1642440.313 6   1279820.87822
 91  5 14 20  1 14.9990000  0  6G18G 2G11G16G 6G19
  23290268.284    13408327.747 6  10448017.76721
  21035143.5734  -17331586.22047 -13505119.92663
  23125208.628    -7214634.680 6  -5621759.75121
  23426827.480    -5168105.574 5  -3969822.79221
  22427961.9954   -9321348.27746  -7174447.55661
  21225988.175     1656532.980 6   1290802.15522
 91  5 14 20  1 29.9990000  0  6G18G 2G11G16G 6G19
  23299255.0194   13455560.84646  10484822.63761
  21030062.7224  -17358290.12447 -13525928.12863
  23127408.823    -7203103.059 6  -5612774.09021
  23428647.0034   -5158516.53845  -3962350.86861
  22421434.855    -9355655.075 6  -7201180.08021
  21228682.636     1670675.580 6   1301822.34422
 91  5 14 20  1 44.9990000  0  6G18G 2G11G16G 6G19
  23308250.9094   13502833.71146  10521658.52161
  21024992.9954  -17384915.83847 -13546675.40063
  23129628.9724   -7191429.54046  -5603677.85061
  23430502.894    -5148815.830 5  -3954791.92421
  22414908.4174   -9389949.24646  -7227902.76761
  21231378.105     1684869.856 7   1312882.79722
 91  5 14 20  1 59.9990000  0  6G18G 2G11G16G 6G19
  23317254.0734   13550145.20046  10558524.45261
  21019943.0974  -17411464.02047 -13567362.26463
  23131876.112    -7179614.895 6  -5594471.65621
  23432366.222    -5139004.102 5  -3947146.50321
  22408382.901    -9424231.535 6  -7254616.19221
  21234094.901     1699115.183 6   1323983.03922
 91  5 14 20  2 14.9990000  0  6G18G 2G11G16G 6G19
  23326265.347    13597500.153 5  10595424.27421
  21014905.7224  -17437929.58447 -13587984.74263
  23134151.964    -7167654.250 6  -5585151.69721
  23434254.339    -5129076.661 5  -3939410.88121
  22401862.378    -9458496.835 6  -7281316.38321
  21236810.519     1713416.619 7   1335126.99622
 91  5 14 20  2 29.9990000  0  6G18G 2G11G16G 6G19
  23335283.815    13644895.903 6  10632355.88421
  21009885.2374  -17464314.55847 -13608544.42863
  23136455.1444   -7155549.94746  -5575719.76661
  23436161.651    -5119035.940 5  -3931587.00721
  22395347.151    -9492747.152 6  -7308004.89821
  21239545.362     1727772.074 6   1346313.05022
 91  5 14 20  2 44.9990000  0  6G18G 2G11G16G 6G19
  23344309.1984   13692334.09046  10669320.55161
  21004878.0424  -17490617.04547 -13629039.84063
  23138785.6284   -7143300.29646  -5566174.60361
  23438094.0894   -5108880.20645  -3923673.50861
  22388835.292    -9526980.850 6  -7334680.46121
  21242284.487     1742183.491 6   1357542.70922
 91  5 14 20  2 59.9990000  0  6G18G 2G11G16G 6G19
  23353348.737    13739812.048 6  10706316.22421
  20999890.0344  -17516839.47347 -13649472.86963
  23141144.878    -7130907.798 6  -5556518.13121
  23440053.073    -5098612.148 5  -3915672.48021
  22382321.886    -9561200.086 6  -7361344.75121
  21245038.948     1756648.525 6   1368814.14522
 91  5 14 20  3 14.9990000  0  6G18G 2G11G16G 6G19
  23362390.6054   13787329.24746  10743342.48861
  20994913.7534  -17542982.26947 -13669843.84463
  23143528.815    -7118372.973 6  -5546750.74821
  23442022.9174   -5088232.34145  -3907584.37761
  22375811.847    -9595405.437 6  -7387998.23021
  21247801.628     1771166.633 6   1380126.93822
 91  5 14 20  3 29.9990000  0  6G18G 2G11G16G 6G19
  23371439.6514   13834885.45746  10780399.12461
  20989956.5424  -17569045.38647 -13690152.73063
  23145942.550    -7105695.958 6  -5536872.57021
  23444025.4954   -5077741.11245  -3899409.45861
  22369305.995    -9629596.612 6  -7414640.65521
  21250576.651     1785737.921 6   1391481.17022
 91  5 14 20  3 44.9990000  0  6G18G 2G11G16G 6G19
  23380497.9644   13882492.47946  10817495.37261
  20985013.4404  -17595016.72847 -13710390.10763
  23148383.1284   -7092864.86146  -5526874.31961
  23446043.7924   -5067126.50045  -3891138.40061
  22362804.784    -9663761.596 6  -7441262.67721
  21253359.503     1800374.467 7   1402886.24922
 91  5 14 20  3 59.9990000  0  6G18G 2G11G16G 6G19
  23389564.940    13930143.326 6  10854625.73621
  20980087.1594  -17620902.92547 -13730561.13663
  23150852.0734   -7079886.43946  -5516761.27761
  23448079.331    -5056395.439 5  -3882776.59621
  22356303.7764   -9697906.93246  -7467869.39061
  21256156.526     1815069.869 6   1414337.19922
 91  5 14 20  4 14.9990000  0  6G18G 2G11G16G 6G19
  23398642.2304   13977834.37146  10891787.45361
  20975177.0194  -17646707.55547 -13750668.60563
  23153351.503    -7066764.434 6  -5506536.35621
  23450150.6594   -5045551.78145  -3874327.06061
  22349813.120    -9732036.254 6  -7494463.63021
  21258961.776     1829820.577 6   1425831.23622
 91  5 14 20  4 29.9990000  0  6G18G 2G11G16G 6G19
  23407725.4804   14025564.12946  10928979.32461
  20970279.7924  -17672431.71147 -13770713.36863
  23155871.737    -7053499.863 6  -5496200.35021
  23452235.0424   -5034596.73845  -3865790.72661
  22343321.8784   -9766150.39746  -7521046.03261
  21261785.948     1844625.640 6   1437367.62822
 91  5 14 20  4 44.9990000  0  6G18G 2G11G16G 6G19
  23416815.089    14073331.914 6  10966200.82621
  20965403.1444  -17698075.78447 -13790695.73163
  23158425.5814   -7040093.31946  -5485753.69361
  23454336.6594   -5023530.85245  -3857168.01661
  22336832.823    -9800249.799 6  -7547616.95021
  21264607.5114    1859484.68246   1448946.08162
 91  5 14 20  4 59.9990000  0  6G18G 2G11G16G 6G19
  23425910.1984   14121136.93946  11003451.35261
  20960535.6204  -17723640.41347 -13810616.19163
  23161005.7844   -7026545.64946  -5475197.07761
  23456466.7924   -5012354.90945  -3848459.55361
  22330349.3154   -9834334.97746  -7574176.80061
  21267449.300     1874397.117 6   1460566.14522
 91  5 14 20  5 14.9990000  0  6G18G 2G11G16G 6G19
  23435011.456    14168971.679 5  11040725.03021
  20955685.7924  -17749133.08747 -13830480.57463
  23163605.8704   -7012864.43446  -5464536.40261
  23458610.4334   -5001076.78245  -3839671.48161
  22323858.198    -9868413.472 6  -7600731.42321
  21270292.019     1889355.540 6   1472222.03622
 91  5 14 20  5 29.9990000  0  6G18G 2G11G16G 6G19
  23444125.714    14216849.835 5  11078032.54721
  20950850.7304  -17774539.32747 -13850277.61663
  23166237.9724   -6999035.55646  -5453760.65061
  23460779.3004   -4989682.46045  -3830792.84761
  22317379.792    -9902470.894 6  -7627269.63121
  21273151.878     1904374.281 6   1483924.92622
 91  5 14 20  5 44.9990000  0  6G18G 2G11G16G 6G19
  23453244.386    14264767.878 5  11115371.11521
  20946032.2924  -17799862.42647 -13870009.85763
  23168898.8474   -6985062.31846  -5442872.42161
  23462968.933    -4978175.317 5  -3821826.29721
  22310900.776    -9936510.290 6  -7653793.79221
  21276017.011     1919450.289 6   1495672.45322
 91  5 14 20  5 59.9990000  0  6G18G 2G11G16G 6G19
  23462368.065    14312720.567 5  11152736.70521
  20941230.2304  -17825107.47047 -13889681.28163
  23171582.3314   -6970950.06646  -5431875.84961
  23465179.7764   -4966560.61245  -3812775.95661
  22304425.612    -9970536.971 6  -7680308.04621
  21278899.065     1934578.318 6   1507460.50822
 91  5 14 20  6 14.9990000  0  6G18G 2G11G16G 6G19
  23471501.0974   14360709.98445  11190130.90761
  20936438.3154  -17850272.19447 -13909290.11863
  23174296.230    -6956696.667 6  -5420769.29821
  23467411.3784   -4954836.33545  -3803640.21861
  22297954.534   -10004548.332 6  -7706810.35921
  21281786.190     1949760.649 6   1519290.87822
 91  5 14 20  6 29.9990000  0  6G18G 2G11G16G 6G19
  23480642.519    14408736.290 5  11227553.84321
  20931663.2764  -17875356.23947 -13928836.09363
  23177034.9094   -6942301.85346  -5409552.54761
  23469661.1124   -4943002.34345  -3794418.99661
  22291487.026   -10038544.131 6  -7733300.54521
  21284690.339     1964997.754 6   1531163.92422
 91  5 14 20  6 44.9990000  0  6G18G 2G11G16G 6G19
  23489783.605    14456793.752 5  11265001.05321
  20926906.8004  -17900365.28647 -13948323.62463
  23179800.034    -6927771.333 6  -5398230.05721
  23471934.3624   -4931064.57245  -3785116.91961
  22285019.784   -10072529.852 6  -7759782.87621
  21287594.261     1980284.230 6   1543075.44822
 91  5 14 20  6 59.9990000  0  6G18G 2G11G16G 6G19
  23498935.737    14504887.069 5  11302476.22421
  20922164.1124  -17925294.25147 -13967748.75563
  23182592.245    -6913100.218 6  -5386798.01121
  23474228.1444   -4919018.34645  -3775730.33161
  22278554.0504  -10106500.21246  -7786253.24761
  21290516.605     1995625.049 6   1555029.30722
 91  5 14 20  7 14.9990000  0  6G18G 2G11G16G 6G19
  23508096.136    14553011.521 5  11339975.65121
  20917434.9724  -17950147.38147 -13987114.79263
  23185412.1514   -6898293.11746  -5375259.99161
  23476544.1444   -4906868.13145  -3766262.70161
  22272091.9724  -10140459.80946  -7812715.23361
  21293441.9484    2011016.02746   1567022.25662
 91  5 14 20  7 29.9990000  0  6G18G 2G11G16G 6G19
  23517260.0194   14601176.36645  11377506.53861
  20912720.0654  -17974915.55947 -14006414.62963
  23188251.690    -6883340.949 6  -5363608.93521
  23478874.980    -4894604.883 5  -3756706.98121
  22265630.925   -10174399.303 6  -7839161.54021
  21296385.894     2026466.521 6   1579061.58222
 91  5 14 20  7 44.9990000  0  6G18G 2G11G16G 6G19
  23526430.7534   14649381.05245  11415068.48761
  20908022.3864  -17999598.70347 -14025648.20763
  23191126.745    -6868243.898 6  -5351844.98821
  23481230.245    -4882229.127 5  -3747063.61521
  22259179.909   -10208318.528 6  -7865592.05621
  21299334.261     2041976.334 6   1591147.12822
 91  5 14 20  7 59.9990000  0  6G18G 2G11G16G 6G19
  23535612.276    14697615.409 5  11452653.53821
  20903339.0584  -18024206.89347 -14044823.38363
  23194025.690    -6853011.969 6  -5339975.93821
  23483604.855    -4869750.735 5  -3737340.25621
  22252724.7304  -10242227.46146  -7892014.55861
  21302294.933     2057535.613 6   1603271.21522
 91  5 14 20  8 14.9990000  0  6G18G 2G11G16G 6G19
  23544799.0034   14745889.26445  11490269.38161
  20898673.9804  -18048730.03847 -14063932.28863
  23196952.5034   -6837635.29846  -5327994.09061
  23486001.5974   -4857160.09545  -3727529.42161
  22246277.339   -10276115.861 6  -7918421.06121
  21305267.448     2073154.457 6   1615441.71622
 91  5 14 20  8 29.9990000  0  6G18G 2G11G16G 6G19
  23553991.495    14794199.213 5  11527913.33321
  20894020.7454  -18073171.41847 -14082977.48363
  23199903.237    -6822117.357 6  -5315902.16421
  23488414.409    -4844460.544 5  -3717633.75721
  22239831.0894  -10309987.12846  -7944814.21661
  21308253.7304    2088829.80846   1627656.24862
 91  5 14 20  8 44.9990000  0  6G18G 2G11G16G 6G19
  23563188.878    14842539.221 5  11565580.68821
  20889385.4334  -18097536.78347 -14101963.44363
  23202883.128    -6806463.979 6
  23490846.901    -4831658.025 5  -3707657.84321
  22233389.222   -10343846.886 6  -7971198.39821
  21311244.2064    2104556.10346
 91  5 14 20  8 59.9990000  0  6G18G 2G11G16G 6G19
  23572395.675    14890910.136 5  11603272.18321
  20884764.5894  -18121824.84147 -14120889.17063
  23205888.394    -6790674.103 6
  23493300.315    -4818751.566 5  -3697600.94421
  22226948.0814  -10377693.81046  -7997572.58361
  21314251.7844    2120334.50946
 91  5 14 20  9 14.9990000  0  6G18G 2G11G16G 6G19
  23581606.526    14939312.072 5  11640987.80421
  20880156.6284  -18146035.36847 -14139754.48263
  23208919.5734   -6774747.64646  -5278990.65261
  23495786.4174   -4805741.27545  -3687463.10661
  22220508.0344  -10411527.44046  -8023936.41361
  21317258.0424    2136165.25046   1664540.93362
 91  5 14 20  9 29.9990000  0  6G18G 2G11G16G 6G19
  23590822.1754   14987749.38945  11678731.01261
  20875562.4804  -18170163.81547 -14158555.83263
  23211977.4484   -6758680.23846  -5266470.56561
  23498283.440    -4792622.871 5  -3677241.05121
  22214073.9404  -10445343.30446  -8050286.39761
  21320282.183     2152052.956 6   1676920.94022
 91  5 14 20  9 44.9990000  0  6G18G 2G11G16G 6G19
  23600047.089    15036231.293 5  11716508.94521
  20870991.6124  -18194200.28147 -14177285.50763
  23215062.667    -6742462.441 6  -5253833.30121
  23500801.519    -4779387.005 5  -3666927.47421
  22207647.4804  -10479131.75246  -8076615.01761
  21323315.956     2168007.350 6   1689352.91322
 91  5 14 20  9 59.9990000  0  6G18G 2G11G16G 6G19
  23609282.2534   15084741.45445  11754308.92261
  20866430.6514  -18218161.04247 -14195956.18963
  23218174.0814   -6726110.55546  -5241091.54261
  23503330.980    -4766050.026 5  -3656535.09421
  22201217.0654  -10512908.80846  -8102934.76261
  21326365.105     2184012.167 6   1701824.17722
 91  5 14 20 10 14.9990000  0  6G18G 2G11G16G 6G19
  23618522.7224   15133284.56245  11792134.55261
  20861886.269   -18242041.353 7 -14214564.18323
  23221309.644    -6709619.853 6  -5228241.60621
  23505893.3234   -4752607.44845  -3646060.44161
  22194790.690   -10546669.681 6  -8129241.89421
  21329420.511     2200072.365 6   1714338.59622
 91  5 14 20 10 29.9990000  0  6G18G 2G11G16G 6G19
  23627759.1204   15181855.47445  11829981.84761
  20857356.4484  -18265845.92747 -14233113.16563
  23224477.089    -6692995.187 6  -5215287.30421
  23508474.4334   -4739064.02845  -3635507.19561
  22188370.370   -10580418.818 6  -8155539.88121
  21332486.995     2216183.553 6   1726892.74822
 91  5 14 20 10 44.9990000  0  6G18G 2G11G16G 6G19
  23637008.7304   15230457.65845  11867853.51161
  20852844.1904  -18289571.21447 -14251600.36363
  23227664.6984   -6676233.17146  -5202225.95161
  23511066.980    -4725416.478 5  -3624872.80521
  22181949.901   -10614152.639 6  -8181825.93321
  21335562.4954    2232349.30846   1739489.42862
 91  5 14 20 10 59.9990000  0  6G18G 2G11G16G 6G19
  23646265.1904   15279091.55745  11905749.90761
  20848343.7844  -18313216.56147 -14270025.26963
  23230879.6984   -6659333.40646  -5189057.27461
  23513689.4404   -4711664.34845  -3614156.92761
  22175535.206   -10647870.460 6  -8208099.50821
  21338650.901     2248570.083 6   1752128.96922
 91  5 14 20 11 14.9990000  0  6G18G 2G11G16G 6G19
  23655530.034    15327761.049 5  11943674.03121
  20843859.1204  -18336777.33547 -14288384.27463
  23234123.2144   -6642291.65246  -5175777.95561
  23516326.1834   -4697803.44745  -3603356.32061
  22169122.190   -10681567.657 6  -8234357.01621
  21341748.190     2264850.553 6   1764815.03122
 91  5 14 20 11 29.9990000  0  6G18G 2G11G16G 6G19
  23664794.651    15376460.608 5  11981621.57921
  20839392.2844  -18360259.37547 -14306681.93263
  23237393.128    -6625113.763 6  -5162392.56021
  23518981.105    -4683839.887 5  -3592475.70121
  22162710.573   -10715250.167 6  -8260603.08421
  21344856.542     2281185.014 6   1777543.16522
 91  5 14 20 11 44.9990000  0  6G18G 2G11G16G 6G19
  23674067.2844   15425183.73645  12019587.48861
  20834937.1364  -18383668.69247 -14324922.91863
  23240687.1054   -6607805.71246  -5148905.73061
  23521655.7764   -4669779.91145  -3581519.96661
  22156306.800   -10748923.635 6  -8286842.11121
  21347972.136     2297567.672 6   1790308.85322
 91  5 14 20 11 59.9990000  0  6G18G 2G11G16G 6G19
  23683343.5424   15473936.93645  12057576.82261
  20830497.3234  -18406998.50347 -14343101.95563
  23244006.730    -6590361.189 6  -5135312.57221
  23524348.0034   -4655617.26145  -3570484.20261
  22149900.300   -10782581.346 6  -8313068.84621
  21351102.9644    2314005.01746   1803117.16062
 91  5 14 20 12 14.9990000  0  6G18G 2G11G16G 6G19
  23692627.8234   15522720.30745  12095589.66961
  20826074.3394  -18430248.54647 -14361218.82863
  23247351.128    -6572780.115 6  -5121612.99721
  23527063.573    -4641351.842 5  -3559368.39021
  22143495.690   -10816222.870 6  -8339282.97421
  21354239.214     2330497.685 6   1815968.57022
 91  5 14 20 12 29.9990000  0  6G18G 2G11G16G 6G19
  23701913.1594   15571530.05845  12133623.09461
  20821663.487   -18453422.351 7 -14379276.30023
  23250721.222    -6555066.062 6  -5107809.80621
  23529806.425    -4626987.165 5  -3548175.20821
  22137099.237   -10849851.819 6  -8365487.30721
  21357388.995     2347042.160 6   1828860.35322
 91  5 14 20 12 44.9990000  0  6G18G 2G11G16G 6G19
  23711210.542    15620367.153 5  12171677.80821
  20817271.7924  -18476518.75147 -14397273.46263
  23254118.2064   -6537217.99446  -5093902.18761
  23532556.300    -4612522.217 5  -3536903.89721
  22130703.089   -10883466.815 6  -8391680.76421
  21360546.034     2363639.626 6   1841793.42822
 91  5 14 20 12 59.9990000  0  6G18G 2G11G16G 6G19
  23720508.034    15669231.412 5  12209753.69421
  20812888.4014  -18499537.66747 -14415210.23863
  23257542.503    -6519235.918 6  -5079890.15721
  23535325.870    -4597957.314 5  -3525554.70321
  22124306.464   -10917067.565 6  -8417863.11821
  21363717.714     2380290.379 6   1854768.02222
 91  5 14 20 13 14.9990000  0  6G18G 2G11G16G 6G19
  23729813.8154   15718126.48245  12247853.59261
  20808524.2144  -18522475.06147 -14433083.49663
  23260991.737    -6501116.174 6  -5065770.85621
  23538120.792    -4583288.619 5  -3514124.60421
  22117916.855   -10950650.128 6  -8444031.30521
  21366893.105     2396998.347 6   1867787.20222
 91  5 14 20 13 29.9990000  0  6G18G 2G11G16G 6G19
  23739123.026    15767048.971 5  12285974.85521
  20804170.4724  -18545334.53847 -14450896.04063
  23264464.4804   -6482862.42646  -5051547.11561
  23540927.5034   -4568520.05445  -3502616.72861
  22111529.964   -10984218.040 6  -8470188.08421
  21370084.3394    2413760.05146   1880848.26062
 91  5 14 20 13 44.9990000  0  6G18G 2G11G16G 6G19
  23748436.917    15815999.971 5  12324118.33221
  20799839.0194  -18568114.18847 -14468646.37763
  23267962.683    -6464472.978 6  -5037217.66221
  23543755.214    -4553650.057 5  -3491029.81921
  22105145.4874  -11017769.26646  -8496331.85361
  21373283.4014    2430577.33946   1893952.62862
 91  5 14 20 13 59.9990000  0  6G18G 2G11G16G 6G19
  23757755.472    15864974.613 5  12362280.21421
  20795517.9484  -18590818.79047 -14486338.25063
  23271486.769    -6445952.830 6  -5022786.36321
  23546606.159    -4538683.555 5  -3479367.68821
  22098762.909   -11051308.555 6  -8522466.32321
  21376498.401     2447445.665 6   1907096.76322
 91  5 14 20 14 14.9990000  0  6G18G 2G11G16G 6G19
  23767080.870    15913976.844 5  12400463.61921
  20791212.0194  -18613444.13347 -14503968.35463
  23275036.4484   -6427298.03446  -5008250.14861
  23549473.7844   -4523616.42745  -3467627.13561
  22092382.136   -11084831.764 6  -8548588.26121
  21379712.9014    2464369.09946   1920283.84362
 91  5 14 20 14 29.9990000  0  6G18G 2G11G16G 6G19
  23776412.815    15963005.363 5  12438667.48721
  20786920.3784  -18635991.36147 -14521537.59463
  23278608.440    -6408509.795 6  -4993609.93421
  23552357.987    -4508450.275 5  -3455809.42121
  22086008.683   -11118339.685 6  -8574698.28921
  21382950.0114    2481346.72946   1933513.15462
 91  5 14 20 14 44.9990000  0  6G18G 2G11G16G 6G19
  23785747.472    16012060.904 5  12476892.44721
  20782645.0894  -18658459.67747 -14539045.34063
  23282212.394    -6389587.462 6  -4978865.24021
  23555260.6904   -4493184.51045  -3443914.08161
  22079633.0654  -11151831.52646  -8600795.78561
  21386186.761     2498379.392 6   1946785.34422
 91  5 14 20 14 59.9990000  0  6G18G 2G11G16G 6G19
  23795084.128    16061143.676 5  12515138.58721
  20778386.4404  -18680848.55347 -14556491.18763
  23285839.355    -6370530.773 6  -4964015.84821
  23558187.417    -4477818.903 5  -3431940.96521
  22073261.034   -11185306.664 6  -8626880.25921
  21389437.355     2515467.731 6   1960100.91222
 91  5 14 20 15 14.9990000  0  6G18G 2G11G16G 6G19
  23804432.3084   16110253.55545  12553405.85561
  20774141.5504  -18703157.77347 -14573874.96963
  23289492.214    -6351339.730 6  -4949061.76821
  23561130.9014   -4462353.28345  -3419889.90561
  22066896.495   -11218764.799 6  -8652951.48821
  21392700.620     2532611.969 6   1973460.04622
 91  5 14 20 15 29.9990000  0  6G18G 2G11G16G 6G19
  23813781.222    16159387.272 5  12591691.71721
  20769909.1904  -18725390.39547 -14591199.05763
  23293168.792    -6332017.568 6  -4934005.52921
  23564094.253    -4446791.264 5  -3407763.73521
  22060532.5344  -11252208.86046  -8679011.75561
  21395974.0584    2549808.96546   1986860.29362
 91  5 14 20 15 44.9990000  0  6G18G 2G11G16G 6G19
  23823139.144    16208546.500 5  12629997.47221
  20765695.6364  -18747544.40347 -14608461.89563
  23296871.245    -6312562.410 6  -4918845.64921
  23567073.558    -4431131.381 5  -3395561.30721
  22054168.683   -11285636.921 6  -8705059.54921
  21399255.347     2567060.878 6   2000303.32722
 91  5 14 20 15 59.9990000  0  6G18G 2G11G16G 6G19
  23832496.4874   16257729.93045  12668322.02261
  20761492.605   -18769621.107 7 -14625664.49123
  23300594.4874   -6292975.66646  -4903583.25261
  23570073.4254   -4415374.67245  -3383283.42661
  22047813.2614  -11319049.96846  -8731095.64461
  21402551.058     2584366.423 6   2013788.15322
 91  5 14 20 16 14.9990000  0  6G18G 2G11G16G 6G19
  23841859.5194   16306934.29845  12706662.94661
  20757305.5034  -18791623.23747 -14642808.98163
  23304352.2224   -6273260.29346  -4888220.60561
  23573086.409    -4399524.181 5  -3370932.49021
  22041455.886   -11352450.752 6  -8757122.18221
  21405850.690     2601722.978 6   2027312.73122
 91  5 14 20 16 29.9990000  0  6G18G 2G11G16G 6G19
  23851228.2224   16356163.91945  12745023.53261
  20753134.1514  -18813546.40847 -14659891.93963
  23308125.9094   -6253412.21146  -4872754.55561
  23576115.940    -4383576.007 5  -3358505.41821
  22035103.3154  -11385834.83746  -8783135.72561
  21409164.472     2619135.141 6   2040880.63222
 91  5 14 20 16 44.9990000  0  6G18G 2G11G16G 6G19
  23860602.9254   16405416.13045  12783401.72661
  20748974.9564  -18835392.91747 -14676915.16063
  23311929.0264   -6233433.92446  -4857187.04761
  23579174.4564   -4367532.56545  -3346004.12561
  22028753.831   -11419204.402 6  -8809137.93321
  21412488.308     2636600.541 6   2054490.02622
 91  5 14 20 16 59.9990000  0  6G18G 2G11G16G 6G19
  23869976.855    16454689.172 5  12821796.12921
  20744834.1444  -18857164.14647 -14693879.72463
  23315753.6054   -6213326.99946  -4841519.31061
  23582243.097    -4351395.740 5  -3333430.06621
  22022405.987   -11452560.896 6  -8835129.96221
  21415826.706     2654117.837 6   2068139.85322
 91  5 14 20 17 14.9990000  0  6G18G 2G11G16G 6G19
  23879355.1984   16503980.32545  12860204.64661
  20740705.1204  -18878862.93847 -14710787.84063
  23319603.9644   -6193094.49346  -4825753.71861
  23585335.800    -4335168.540 5  -3320785.55221
  22016060.1514  -11485906.88446  -8861113.81361
  21419163.995     2671684.250 6   2081827.95222
 91  5 14 20 17 29.9990000  0  6G18G 2G11G16G 6G19
  23888744.269    16553311.050 5  12898644.01221
  20736592.4484  -18900467.34947 -14727622.41663
  23323479.730    -6172714.540 6  -4809873.22321
  23588444.1364   -4318829.24145  -3308053.71361
  22009720.565   -11519220.347 6  -8887072.31021
  21422525.2694    2689321.93146   2095571.58662
 91  5 14 20 17 44.9990000  0  6G18G 2G11G16G 6G19
  23898136.425    16602666.571 5  12937102.66521
  20732496.0264  -18921992.08947 -14744394.90863
  23327384.1124   -6152202.00546  -4793889.42361
  23591569.401    -4302392.558 5  -3295245.99521
  22003386.253   -11552515.858 6  -8913016.81921
  21425887.800     2707016.408 6   2109359.47522
 91  5 14 20 17 59.9990000  0  6G18G 2G11G16G 6G19
  23907534.628    16652044.970 5  12975579.17521
  20728414.1204  -18943438.82747 -14761106.62263
  23331312.5424   -6131558.77946  -4777803.79061
  23594722.972    -4285860.473 5  -3282363.92621
  21997051.5734  -11585794.84146  -8938948.45061
  21429266.011     2724765.979 6   2123190.29822
 91  5 14 20 18 14.9990000  0  6G18G 2G11G16G 6G19
  23916930.698    16701440.240 5  13014068.83921
  20724345.7374  -18964813.36747 -14777762.08263
  23335265.261    -6110790.965 6  -4761621.06621
  23597880.5344   -4269239.35345  -3269412.50961
  21990722.5344  -11619063.36046  -8964871.93361
  21432653.011     2742564.705 6   2137059.42522
 91  5 14 20 18 29.9990000  0  6G18G 2G11G16G 6G19
  23926336.956    16750859.598 5  13052577.25021
  20720295.9484  -18986108.03147 -14794355.29363
  23339244.0424   -6089891.18846  -4745335.51561
  23601060.1834   -4252521.77145  -3256385.89961
  21984391.855   -11652313.573 6  -8990781.15121
  21436051.870     2760420.190 6   2150972.77522
 91  5 14 20 18 44.9990000  0  6G18G 2G11G16G 6G19
  23935745.120    16800298.632 5  13091100.99021
  20716258.4254  -19007326.88047 -14810889.43163
  23343243.7454   -6068863.64846  -4728950.41861
  23604260.7454   -4235712.32545  -3243287.71261
  21978067.1594  -11685549.29446  -9016679.07161
  21439459.0584    2778328.56346   2164927.33762
 91  5 14 20 18 59.9990000  0  6G18G 2G11G16G 6G19
  23945159.909    16849754.552 5  13129637.88521
  20712233.5034  -19028472.93047 -14827366.83963
  23347268.8474   -6047711.30746  -4712468.07561
  23607475.862    -4218813.832 5  -3230120.12021
  21971749.6984  -11718773.44746  -9042567.98261
  21442878.8314    2796287.21546   2178921.08362
 91  5 14 20 19 14.9990000  0  6G18G 2G11G16G 6G19
  23954573.526    16899231.892 5  13168191.50021
  20708224.440   -19049541.273 7 -14843783.70523
  23351317.339    -6026429.610 6  -4695884.91821
  23610708.565    -4201821.499 5  -3216879.43221
  21965426.940   -11751981.124 6  -9068444.04121
  21446304.589     2814300.919 6   2192957.71622
 91  5 14 20 19 29.9990000  0  6G18G 2G11G16G 6G19
  23963990.9094   16948726.86845  13206758.81661
  20704228.8784  -19070535.11347 -14860142.50663
  23355391.4804   -6005021.99546  -4679203.65461
  23613963.886    -4184739.219 5  -3203568.63521
  21959110.784   -11785175.397 6  -9094309.67121
  21449743.0264    2832366.40446   2207034.71562
 91  5 14 20 19 44.9990000  0  6G18G 2G11G16G 6G19
  23973412.4644   16998236.57445  13245337.66761
  20700248.8154  -19091457.16947 -14876445.37963
  23359490.2064   -5983491.38446  -4662426.54061
  23617226.276    -4167569.594 5  -3190189.76721
  21952797.4804  -11818358.92946  -9120166.93661
  21453187.808     2850481.126 6   2221150.06822
 91  5 14 20 19 59.9990000  0  6G18G 2G11G16G 6G19
  23982838.1594   17047764.66545  13283930.79161
  20696280.0264  -19112303.87247 -14892689.52463
  23363612.0974   -5961834.28246  -4645550.85561
  23620513.5504   -4150309.21145  -3176740.22361
  21946485.253   -11851527.885 6  -9146012.82021
  21456648.3234    2868648.89246   2235306.76062
 91  5 14 20 20 14.9990000  0  6G18G 2G11G16G 6G19
  23992267.1054   17097313.60345  13322540.19761
  20692330.1674  -19133072.48147 -14908872.82763
  23367757.1984   -5940048.10446  -4628574.60461
  23623815.167    -4132955.733 5  -3163218.09621
  21940174.347   -11884679.391 6  -9171845.11321
  21460114.5034    2886872.31646   2249506.82262
 91  5 14 20 20 29.9990000  0  6G18G 2G11G16G 6G19
  24001698.331    17146886.108 5  13361167.96421
  20688393.0584  -19153760.04647 -14924992.98063
  23371926.1124   -5918130.25646  -4611495.75761
  23627131.1754   -4115506.77345  -3149621.57661
  21933872.933   -11917810.599 6  -9197661.59521
  21463592.6754    2905154.35246   2263752.55362
 91  5 14 20 20 44.9990000  0  6G18G 2G11G16G 6G19
  24011134.4014   17196473.15745  13399807.00861
  20684469.8784  -19174375.27447 -14941056.76663
  23376121.4804   -5896089.72646  -4594321.31161
  23630469.870    -4097971.240 5  -3135957.60521
  21927568.894   -11950930.035 6  -9223468.90521
  21467081.0264    2923486.33046   2278037.20362
 91  5 14 20 20 59.9990000  0  6G18G 2G11G16G 6G19
  24020575.675    17246079.347 5  13438461.02921
  20680561.6444  -19194913.42147 -14957060.48763
  23380340.8084   -5873921.89446  -4577047.65961
  23633825.5344   -4080344.73045  -3122222.73361
  21921269.5504  -11984032.81646  -9249263.23361
  21470581.4334    2941873.37746   2292364.76262
 91  5 14 20 21 14.9990000  0  6G18G 2G11G16G 6G19
  24030022.4954   17295705.41245  13477130.50761
  20676668.706   -19215373.456 7 -14973003.34323
  23384584.058    -5851625.842 6  -4559674.12521
  23637199.144    -4062626.412 5  -3108416.33021
  21914975.823   -12017117.871 6  -9275043.75221
  21474088.878     2960316.360 6   2306735.90422
 91  5 14 20 21 29.9990000  0  6G18G 2G11G16G 6G19
  24039469.8624   17345350.69545  13515814.99861
  20672788.5424  -19235755.61247 -14988885.51663
  23388850.0894   -5829202.22046  -4542201.15861
  23640588.019    -4044816.870 5  -3094538.84421
  21908679.7304  -12050185.30446  -9300810.54161
  21477614.5194    2978814.97946   2321150.40162
 91  5 14 20 21 44.9990000  0  6G18G 2G11G16G 6G19
  24048919.7694   17395015.30045  13554514.50361
  20668926.808   -19256059.575 7 -15004706.76323
  23393142.394    -5806650.871 6  -4524628.65721
  23643991.675    -4026916.131 5  -3080590.26221
  21902392.4404  -12083234.83046  -9326563.38061
  21481140.0114    2997369.81446   2335608.70462
 91  5 14 20 21 59.9990000  0  6G18G 2G11G16G 6G19
  24058369.144    17444693.054 5  13593224.28821
  20665075.675   -19276291.319 7 -15020471.73723
  23397456.6834   -5783977.82646  -4506961.36461
  23647419.6754   -4008930.39445  -3066575.46561
  21896104.9644  -12116272.02946  -9352306.61561
  21484682.1204    3015974.86346   2350106.13962
 91  5 14 20 22 14.9990000  0  6G18G 2G11G16G 6G19
  24067825.8704   17494386.19845  13631946.06061
  20661240.433   -19296448.590 7 -15036178.67323
  23401791.7144   -5761181.02846  -4489197.61761
  23650853.245    -3990857.321 5  -3052492.61421
  21889821.9564  -12149294.59546  -9378038.44661
  21488232.8784    3034632.53546   2364644.57562
 91  5 14 20 22 29.9990000  0  6G18G 2G11G16G 6G19
  24077290.511    17544090.982 5  13670676.89321
  20657419.089   -19316534.767 7 -15051830.21823
  23406155.3784   -5738264.02446  -4471340.19861
  23654310.5734   -3972700.41245  -3038344.43461
  21883537.0504  -12182305.73246  -9403761.36461
  21491792.9174    3053339.56346   2379221.47462
 91  5 14 20 22 44.9990000  0  6G18G 2G11G16G 6G19
  24086749.151    17593811.448 5  13709419.93721
  20653608.456   -19336545.778 7 -15067423.19523
  23410540.245    -5715223.101 6  -4453386.24321
  23657777.573    -3954456.241 5  -3024128.27621
  21877261.730   -12215301.440 6  -9429472.26521
  21495360.151     3072100.126 6   2393840.07922
 91  5 14 20 22 59.9990000  0  6G18G 2G11G16G 6G19
  24096213.081    17643548.705 5  13748176.08221
  20649815.651   -19356480.105 7 -15082956.41423
  23414948.7064   -5692056.94646  -4435334.68261
  23661269.862    -3936123.495 5  -3009843.10421
  21870984.597   -12248279.972 6  -9455169.77721
  21498944.769     3090915.897 6   2408501.70822
 91  5 14 20 23 14.9990000  0  6G18G 2G11G16G 6G19
  24105682.4644   17693302.74845  13786945.30561
  20646038.198   -19376337.395 7 -15098429.61023
  23419381.3944   -5668765.47246  -4417185.49161
  23664771.331    -3917702.333 5  -2995489.00221
  21864712.4014  -12281240.90846  -9480853.59561
  21502532.894     3109787.008 6   2423206.45322
 91  5 14 20 23 29.9990000  0  6G18G 2G11G16G 6G19
  24115151.245    17743079.554 5  13825732.25521
  20642274.323   -19396111.534 7 -15113838.01023
  23423837.9954   -5645342.80746  -4398934.05661
  23668298.4804   -3899186.77945  -2981061.39761
  21858447.042   -12314178.140 6  -9506518.93021
  21506137.3624    3128719.60246   2437959.11262
 91  5 14 20 23 44.9990000  0  6G18G 2G11G16G 6G19
  24124631.7534   17792868.54845  13864528.68261
  20638526.948   -19415812.929 7 -15129189.72323
  23428317.2224   -5621799.46646  -4380588.59461
  23671838.112    -3880587.598 5  -2966568.56421
  21852178.3474  -12347101.84646  -9532173.71861
  21509748.519     3147703.512 6   2452751.75922
 91  5 14 20 23 59.9990000  0  6G18G 2G11G16G 6G19
  24134105.175    17842676.626 5  13903340.00021
  20634791.792   -19435434.130 7 -15144478.95423
  23432821.823    -5598128.368 6  -4362143.56521
  23675393.5504   -3861897.52845  -2952004.96161
  21845919.3004  -12380004.56146  -9557812.16461
  21513374.284     3166746.272 6   2467590.25922
 91  5 14 20 24 14.9990000  0  6G18G 2G11G16G 6G19
  24143583.2534   17892500.18544  13942163.35361
  20631072.331   -19454978.875 7 -15159708.60223
  23437347.355    -5574333.217 6  -4343601.90621
  23678972.4564   -3843120.30245  -2937373.42261
  21839662.1674  -12412889.67546  -9583436.88661
  21517006.901     3185844.359 6   2482471.87022
 91  5 14 20 24 29.9990000  0  5G 2G11G16G 6G19
  20627367.933   -19474444.678 7 -15174876.74223
  23441902.2374   -5550411.98646  -4324961.98561
  23682560.3004   -3824254.09945  -2922672.55361
  21833405.7304  -12445754.78446  -9609046.02261
  21520653.464     3205000.022 6   2497398.34422
 91  5 14 20 24 44.9990000  0  5G 2G11G16G 6G19
  20623678.784   -19493834.334 7 -15189985.54523
  23446477.362    -5526367.496 6  -4306226.03621
  23686166.026    -3805301.679 5  -2907904.51621
  21827154.730   -12478602.411 6  -9634641.52821
  21524306.870     3224210.804 6   2512367.76622
 91  5 14 20 24 59.9990000  0  5G 2G11G16G 6G19
  20620002.706   -19513146.396 7 -15205033.88623
  23451077.8154   -5502198.57746  -4287393.10661
  23689788.4334   -3786261.99345  -2893068.49061
  21820909.2374  -12511431.09046  -9660222.27761
  21527974.315     3243478.074 6   2527381.21522
 91  5 14 20 25 14.9990000  0  5G 2G11G16G 6G19
  20616344.144   -19532384.502 7 -15220024.59923
  23455701.7304   -5477909.00346  -4268466.17061
  23693429.8394   -3767139.16745  -2878167.67261
  21814662.9484  -12544244.23946  -9685790.91961
  21531649.034     3262798.475 6   2542436.05022
 91  5 14 20 25 29.9990000  0  5G 2G11G16G 6G19
  20612696.198   -19551545.381 7 -15234955.12823
  23460343.0424   -5453495.74446  -4249442.84461
  23697080.933    -3747929.908 5  -2863199.50821
  21808422.565   -12577038.603 6  -9711344.93021
  21535342.378     3282175.081 6   2557534.68922
 91  5 14 20 25 44.9990000  0  5G 2G11G16G 6G19
  20609063.706   -19570641.988 7 -15249835.57923
  23465010.261    -5428971.872 6  -4230333.34821
  23700759.2614   -3728647.62845  -2848174.41161
  21802186.175   -12609826.815 6  -9736894.14321
  21539033.323     3301595.242 6   2572667.26522
 91  5 14 20 25 59.9990000  0  5G 2G11G16G 6G19
  20605443.925   -19589658.474 7 -15264653.60223
  23469702.2454   -5404321.87846  -4211125.56361
  23704432.284    -3709276.517 4
  21795946.987   -12642592.967 6  -9762426.15621
  21542739.565     3321074.799 6
 91  5 14 20 26 14.9990000  0  5G 2G11G16G 6G19
  20601841.347   -19608591.829 7 -15279406.84223
  23474416.2144   -5379542.97046  -4191817.32161
  23708147.8474   -3689814.16845
  21789717.534   -12675333.945 6  -9787938.56921
  21546459.948     3340616.710 6
 91  5 14 20 26 29.9990000  0  5G 2G11G16G 6G19
  20598250.956   -19627457.697 7 -15294107.49423
  23479152.9014   -5354651.12346  -4172421.07161
  23711862.167    -3670276.391 5
  21783490.073   -12708065.340 6  -9813443.51121
  21550190.175     3360205.457 6
 91  5 14 20 26 44.9990000  0  5G 2G11G16G 6G19
  20594674.558   -19646248.040 7 -15308749.29523
  23483911.3474   -5329638.42746  -4152930.65761
  23715590.1754   -3650655.48545
  21777262.761   -12740778.842 6  -9838934.51521
  21553924.151     3379849.238 6
 91  5 14 20 26 59.9990000  0  5G 2G11G16G 6G19
  20591113.472   -19664961.036 7 -15323330.82923
  23488697.6754   -5304503.23046  -4133344.80261
  23719345.1514   -3630949.97645
  21771041.964   -12773472.642 6  -9864410.15321
  21557675.948     3399550.003 6   2648995.56322
 91  5 14 20 27 14.9990000  0  5G 2G11G16G 6G19
  20587566.995   -19683599.867 7 -15337854.57623
  23493502.972    -5279249.076 6  -4113666.23321
  23723111.6674   -3611163.21345
  21764824.1514  -12806149.68946  -9889872.74161
  21561432.862     3419304.593 6   2664388.73222
 91  5 14 20 27 29.9990000  0  5G 2G11G16G 6G19
  20584033.230   -19702169.002 7 -15352324.00923
  23498329.1124   -5253880.69346  -4093898.67161
  23726887.0194   -3591299.87345
  21758608.917   -12838814.416 6  -9915325.73021
  21565200.019     3439108.322 6
 91  5 14 20 27 44.9990000  0  5G 2G11G16G 6G19
  20580515.605   -19720658.371 7 -15366731.28323
  23503182.386    -5228388.115 6  -4074034.31521
  23730683.761    -3571350.036 5
  21752395.0034  -12871456.56346  -9940761.13061
  21568979.370     3458971.653 6   2695298.09822
 91  5 14 20 27 59.9990000  0  5G 2G11G16G 6G19
  20577009.792   -19739074.656 7 -15381081.61323
  23508055.1284   -5202778.28646  -4054078.61461
  23734501.042    -3551320.612 5        -0.12631
  21746190.886   -12904082.628 6  -9966183.99121
  21572772.519     3478887.825 6   2710817.17322
 91  5 14 20 28 14.9990000  0  5G 2G11G16G 6G19
  20573521.409   -19757414.421 7 -15395372.32123
  23512949.1444   -5177047.97846  -4034029.03061
  23738328.526    -3531208.722 5     15671.38321
  21739984.9174  -12936689.21046  -9991591.67961
  21576572.370     3498860.413 6   2726380.20822
 91  5 14 20 28 29.9990000  0  5G 2G11G16G 6G19
  20570045.362   -19775681.575 7 -15409606.43723
  23517869.2844   -5151201.31246  -4013888.78461
  23742159.6054   -3511018.45045     31403.97061
  21733781.8704  -12969279.89446 -10016986.97661
  21580383.1444    3518885.58246   2741984.20962
 91  5 14 20 28 44.9990000  0  5G 2G11G16G 6G19
  20566582.464   -19793870.855 7 -15423779.87723
  23522811.2064   -5125233.17846  -3993653.87561
  23746031.3704   -3490744.92345     47201.43961
  21727584.7144  -13001849.38846 -10042365.76061
  21584203.058     3538968.773 6   2757633.43422
 91  5 14 20 28 59.9990000  0  5G 2G11G16G 6G19
  20563134.776   -19811994.534 7 -15437902.19723
  23527773.0584   -5099156.04546  -3973334.03261
  23749894.222    -3470400.575 5     63054.08921
  21721390.105   -13034409.697 6 -10067737.37521
  21588034.9014    3559097.94546   2773318.47462
 91  5 14 20 29 14.9990000  0  5G 2G11G16G 6G19
  20559697.808   -19830048.827 7 -15451970.45423
  23532757.3944   -5072966.38646  -3952926.50461
  23753778.5344   -3449981.80345     78964.75061
  21715194.5114  -13066956.93346 -10093098.82261
  21591874.855     3579276.723 6   2789042.17922
 91  5 14 20 29 29.9990000  0  5G 2G11G16G 6G19
  20556276.683   -19848030.243 7 -15465981.92323
  23537763.5814   -5046660.98846  -3932428.79961
  23757681.8004   -3429485.29645     94935.98461
  21709004.2144  -13099487.59046 -10118447.34861
  21595729.394     3599508.604 6   2804807.26522
 91  5 14 20 29 44.9990000  0  5G 2G11G16G 6G19
  20552869.565   -19865932.563 7 -15479931.75623
  23542791.4254   -5020233.99846  -3911836.35861
  23761596.2374   -3408905.74045    110971.92361
  21702818.2844  -13131995.34846 -10143778.02161
  21599586.2144    3619799.92546   2820618.65862
 91  5 14 20 29 59.9990000  0  5G 2G11G16G 6G19
  20549477.487   -19883758.848 7 -15493822.34323
  23547842.159    -4993688.646 6  -3891151.68821
  23765529.9254   -3388246.04945    127070.29161
  21696634.8944  -13164483.02246 -10169093.05361
  21603464.050     3640147.685 6   2836474.03422
 91  5 14 20 30 14.9990000  0  5G 2G11G16G 6G19
  20546099.831   -19901509.158 7 -15507653.73023
  23552916.3394   -4967025.22446  -3870374.98361
  23769479.0034   -3367506.72445    143230.73861
  21690459.1054  -13196950.43046 -10194392.29861
  21607339.331     3660551.892 6   2852373.39022
 91  5 14 20 30 29.9990000  0  5G 2G11G16G 6G19
  20542736.4644  -19919184.79847 -15521426.92763
  23558013.5894   -4940245.05146  -3849507.31761
  23773438.597    -3346689.035 5    159452.24921
  21684282.8154  -13229398.71046 -10219676.63761
  21611236.706     3681011.468 6   2868315.90022
 91  5 14 20 30 44.9990000  0  5G 2G11G16G 6G19
  20539387.183   -19936786.021 7 -15535142.14323
  23563130.3154   -4913348.60346  -3828549.05461
  23777414.7224   -3325793.82945    175734.17461
  21678112.3394  -13261828.07246 -10244946.23661
  21615135.0654    3701526.35746   2884301.50062
 91  5 14 20 30 59.9990000  0  5G 2G11G16G 6G19
  20536052.5424  -19954314.38147 -15548800.57663
  23568271.409    -4886337.822 6  -3807501.70921
  23781405.8864   -3304822.76345    192075.17261
  21671944.0344  -13294239.94546 -10270202.20561
  21619051.769     3722094.783 6   2900328.82122
 91  5 14 20 31 14.9990000  0  5G 2G11G16G 6G19
  20532729.737   -19971770.692 7 -15562402.86623
  23573431.4484   -4859213.91946  -3786366.20561
  23785404.675    -3283777.008 5    208474.38621
  21665778.9874  -13326635.17846 -10295445.20861
  21622973.628     3742715.871 6   2916397.18122
 91  5 14 20 31 29.9990000  0  5G 2G11G16G 6G19
  20529424.495   -19989150.513 7 -15575945.55923
  23578615.0734   -4831972.60146  -3765139.21161
  23789432.769    -3262652.728 5    224934.79421
  21659618.1904  -13359009.00146 -10320671.53261
  21626913.480     3763394.398 6   2932510.30222
 91  5 14 20 31 44.9990000  0  5G 2G11G16G 6G19
  20526131.065   -20006450.212 7 -15589425.81523
  23583824.230    -4804610.391 6  -3743818.02921
  23793458.144    -3241446.270 5    241459.22621
  21653463.0734  -13391357.59146 -10345878.19361
  21630857.2924    3784134.06146   2948671.05062
 91  5 14 20 31 59.9990000  0  5G 2G11G16G 6G19
  20522850.175   -20023681.267 7 -15602852.58723
  23589054.8784   -4777139.10646  -3722411.83161
  23797508.144    -3220169.332 4    258038.56121
  21647309.9874  -13423692.35446 -10371074.07861
  21634815.433     3804923.363 6   2964870.48922
 91  5 14 20 32 14.9990000  0  5G 2G11G16G 6G19
  20519586.1834  -20040837.28247 -15616220.88563
  23594301.651    -4749552.304 6  -3700915.65621
  23801573.026    -3198815.649 4    274677.70721
  21641159.7694  -13456006.61346 -10396253.97961
  21638780.425     3825769.012 6   2981113.83222
 91  5 14 20 32 29.9990000  0  5G 2G11G16G 6G19
  20516334.855   -20057919.600 7 -15629531.75523
  23599570.714    -4721851.860 6  -3679330.88421
  23805655.331    -3177387.188 5    291375.13721
  21635016.3784  -13488301.75346 -10421418.99561
  21642760.339     3846669.564 6   2997399.95222
 91  5 14 20 32 44.9990000  0  5G 2G11G16G 6G19
  20513098.8084  -20074924.60947 -15642782.38763
  23604864.6124   -4694034.39646  -3657654.93861
  23809747.9804   -3155880.56045    308133.46361
  21628875.4254  -13520573.92446 -10446566.10961
  21646745.940     3867628.705 6   3013731.72922
 91  5 14 20 32 59.9990000  0  5G 2G11G16G 6G19
  20509877.0194  -20091854.70547 -15655974.64463
  23610181.4404   -4666102.46145  -3635889.80461
  23813858.042    -3134298.379 5    324950.63221
  21622737.2534  -13552825.35046 -10471697.05962
  21650747.605     3888644.046 6   3030107.30722
 91  5 14 20 33 14.9990000  0  5G 2G11G16G 6G19
  20506669.2374  -20108716.55147 -15669113.72063
  23615512.722    -4638062.821 5  -3614040.75121
  23817968.6514   -3112647.49645    341821.38461
  21616601.9724  -13585062.43146 -10496816.82062
  21654754.276     3909709.178 6   3046521.67122
 91  5 14 20 33 29.9990000  0  5G 2G11G16G 6G19
  20503475.8784  -20125499.22147 -15682191.09663
  23620872.980    -4609904.817 5  -3592099.46521
  23822119.8784   -3090917.44645    358753.78361
  21610473.5814  -13617274.13846 -10521916.82362
  21658774.886     3930835.071 6   3062983.38822
 91  5 14 20 33 44.9990000  0  5G 2G11G16G 6G19
  20500296.534   -20142202.613 7 -15695206.70123
  23626254.2374   -4581628.82745  -3570066.23261
  23826262.011    -3069108.234 5    375747.87921
  21604344.7844  -13649460.35346 -10546996.95861
  21662806.417     3952021.728 6   3079492.45022
 91  5 14 20 33 59.9990000  0  5G 2G11G16G 6G19
  20497131.026   -20158846.476 7 -15708175.92123
  23631652.370    -4553254.908 5  -3547956.69921
  23830423.440    -3047240.131 5    392787.89221
  21598224.5584  -13681640.72446 -10572072.54162
  21666849.495     3973249.535 6   3096033.57522
 91  5 14 20 34 14.9990000  0  5G 2G11G16G 6G19
  20493979.605   -20175414.745 7 -15721086.23523
  23637076.7844   -4524767.06345  -3525758.38161
  23834603.440    -3025297.206 5    409886.17121
  21592104.3234  -13713798.90846 -10597130.83461
  21670895.526     3994534.720 6   3112619.41522
 91  5 14 20 34 29.9990000  0  5G 2G11G16G 6G19
  20490836.628   -20191912.859 7 -15733941.87923
  23642517.425    -4496170.603 5  -3503475.44421
  23838786.1204   -3003284.80845    427038.56561
  21585987.2764  -13745939.88446 -10622175.71462
  21674958.323     4015872.210 6   3129246.00722
 91  5 14 20 34 44.9990000  0  5G 2G11G16G 6G19
  20487709.667   -20208339.838 7 -15746742.10423
  23647980.5894   -4467464.96045  -3481107.42761
  23842991.362    -2981202.621 5    444245.38621
  21579874.8554  -13778062.75146 -10647206.48662
  21679026.792     4037262.702 6   3145913.90022
 91  5 14 20 34 59.9990000  0  5G 2G11G16G 6G19
  20484602.362   -20224689.543 7 -15759482.11323
  23653461.472    -4438644.412 5  -3458649.86621
  23847199.2144   -2959044.79044    461511.14161
  21573768.0264  -13810161.39947 -10672218.38962
  21683109.714     4058712.371 6   3162627.89922
 91  5 14 20 35 14.9990000  0  5G 2G11G16G 6G19
  20481504.167   -20240970.306 7 -15772168.40223
  23658968.206    -4409717.614 5  -3436109.52421
  23851433.198    -2936819.893 5    478829.13121
  21567660.2454  -13842243.92246 -10697217.72662
  21687197.784     4080213.020 6   3179381.62822
 91  5 14 20 35 29.9990000  0  5G 2G11G16G 6G19
  20478419.519   -20257174.812 7 -15784795.27323
  23664495.9254   -4380677.31445  -3413480.71761
  23855676.792    -2914520.972 5    496204.80521
  21561561.9094  -13874302.67247 -10722198.53462
  21691304.269     4101772.209 6   3196180.97522
 91  5 14 20 35 44.9990000  0  5G 2G11G16G 6G19
  20475351.284   -20273303.640 7 -15797363.16823
  23670039.0654   -4351524.45345  -3390764.21361
  23859934.4014   -2892148.99845    513637.41761
  21555465.5584  -13906338.22947 -10747161.26562
  21695415.855     4123389.283 6   3213025.42422
 91  5 14 20 35 59.9990000  0  5G 2G11G16G 6G19
  20472294.034   -20289356.711 7 -15809872.03323
  23675610.4254   -4322259.17545  -3367960.10861
  23864208.065    -2869704.363 4    531126.66321
  21549372.6514  -13938350.33947 -10772105.73462
  21699541.9404    4145064.39346   3229915.09762
 91  5 14 20 36 14.9990000  0  5G 2G11G16G 6G19
  20469252.792   -20305338.329 7 -15822325.22423
  23681199.612    -4292886.047 5  -3345071.96621
  23868492.1984   -2847191.41444    548669.13161
  21543284.5584  -13970343.19647 -10797035.19662
  21703673.3624    4166793.25346   3246846.64762
 91  5 14 20 36 29.9990000  0  5G 2G11G16G 6G19
  20466225.776   -20321244.487 7 -15834719.61523
  23686812.8004   -4263401.35645  -3322096.87561
  23872788.1124   -2824606.52544    566267.64461
  21537202.8864  -14002312.64447 -10821946.42962
  21707823.050     4188579.924 6   3263823.25622
 91  5 14 20 36 44.9990000  0  5G 2G11G16G 6G19
  20463214.987   -20337074.944 7 -15847055.01323
  23692442.5504   -4233804.93445  -3299034.74061
  23877104.5114   -2801949.30344    583922.52861
  21531122.4804  -14034258.13747 -10846838.97662
  21711976.8864    4210424.88346   3280845.27462
 91  5 14 20 36 59.9990000  0  5G 2G11G16G 6G19
  20460215.940   -20352832.606 7 -15859333.68523
  23698095.8154   -4204099.83145  -3275887.91161
  23881427.292    -2779223.240 5    601631.04221
  21525047.7454  -14066182.38447 -10871714.98262
  21716147.9484    4232325.33446   3297910.52962
 91  5 14 20 37 14.9990000  0  5G 2G11G16G 6G19
  20457230.886   -20368520.114 7 -15871557.70023
  23703770.690    -4174289.049 5  -3252658.75121
  23885761.597    -2756431.134 4    619391.03321
  21518977.1054  -14098087.82947 -10896576.33262
  21720321.839     4254278.744 6   3315017.06122
 91  5 14 20 37 29.9990000  0  5G 2G11G16G 6G19
  20454258.003   -20384137.046 7 -15883726.71923
  23709461.097    -4144372.451 5  -3229347.13621
  23890099.8784   -2733572.98144    637202.49161
  21512908.6284  -14129973.93547 -10921422.61462
  21724513.003     4276285.520 6   3332165.17622
 91  5 14 20 37 44.9990000  0  5G 2G11G16G 6G19
  20451301.440   -20399676.116 7 -15895835.06023
  23715177.6364   -4114343.09146  -3205947.62761
  23894468.472    -2710641.491 4    655071.11921
  21506847.4874  -14161833.35647 -10946248.10162
  21728711.7374    4298353.05846   3349360.62762
 91  5 14 20 37 59.9990000  0  5G 2G11G16G 6G19
  20448359.292   -20415149.283 7 -15907892.05123
  23720909.6284   -4084213.16245  -3182469.76861
  23898858.0194   -2687649.09545    672987.17861
  21500785.0424  -14193677.79047 -10971061.90262
  21732923.448     4320469.349 6   3366594.07621
 91  5 14 20 38 14.9990000  0  4G 2G11G 6G19
  20445425.222   -20430556.494 7 -15919897.64423
  23726665.0894   -4053982.75445  -3158913.62361
  21494730.1594  -14225507.05947 -10995863.90362
  21737136.151     4342634.733 6   3383865.77322
 91  5 14 20 38 29.9990000  0  4G 2G11G 6G19
  20442509.136   -20445882.815 7 -15931840.21023
  23732439.198    -4023637.081 5  -3135267.66321
  21488678.1834  -14257305.86146 -11020642.14762
  21741368.323     4364864.221 6   3401187.43122
 91  5 14 20 38 44.9990000  0  4G 2G11G 6G19
  20439605.644   -20461137.563 7 -15943727.00623
  23738231.042    -3993185.873 5  -3111539.47121
  21482627.5114  -14289083.52146 -11045403.92962
  21745608.0814    4387148.22946   3418551.55762
 91  5 14 20 38 59.9990000  0  4G 2G11G 6G19
  20436717.112   -20476317.934 7 -15955555.84123
  23744048.6594   -3962626.67745  -3087727.11461
  21476586.597   -14320837.196 7 -11070147.01022
  21749865.3554    4409489.80846   3435960.54862
 91  5 14 20 39 14.9990000  0  4G 2G11G 6G19
  20433843.050   -20491419.438 7 -15967323.22623
  23749883.5424   -3931955.21845  -3063827.30161
  21470550.4724  -14352562.11547 -11094867.69262
  21754123.8004    4431893.65646   3453418.06262
 91  5 14 20 39 29.9990000  0  4G 2G11G 6G19
  20430981.417   -20506453.820 7 -15979038.30323
  23755739.8234   -3901183.52745  -3039849.36061
  21464519.7454  -14384269.95947 -11119575.06662
  21758400.4014    4454347.85646   3470914.80362
 91  5 14 20 39 44.9990000  0  4G 2G11G 6G19
  20428132.167   -20521420.560 7 -15990700.67523
  23761615.8624   -3870311.29245  -3015793.09561
  21458487.0814  -14415959.92746 -11144268.51362
  21762679.7374    4476853.09646   3488451.32261
 91  5 14 20 39 59.9990000  0  4G 2G11G 6G19
  20425299.706   -20536318.182 7 -16002309.18823
  23767508.6754   -3839337.03145  -2991657.31461
  21452460.3154  -14447630.22546 -11168946.62862
  21766970.7374    4499411.42846   3506029.20962
 91  5 14 20 40 14.9990000  0  4G 2G11G 6G19
  20422479.097   -20551145.704 7 -16013863.07723
  23773423.3624   -3808260.06845  -2967441.50761
  21446436.9014  -14479279.63946 -11193608.46862
  21771274.1444    4522023.52246   3523648.99662
 91  5 14 20 40 29.9990000  0  4G 2G11G 6G19
  20419670.230   -20565902.664 7 -16025361.98523
  23779358.058    -3777080.317 5  -2943145.61821
  21440417.4644  -14510907.76447 -11218253.73562
  21775589.612     4544689.808 6   3541310.99721
 91  5 14 20 40 44.9990000  0  4G 2G11G 6G19
  20416875.003   -20580588.829 7 -16036805.72323
  23785309.495    -3745797.793 5  -2918769.65121
  21434403.8944  -14542514.07346 -11242881.99762
  21779911.8234    4567410.74546   3559015.58861
 91  5 14 20 40 59.9990000  0  4G 2G11G 6G19
  20414095.026   -20595203.975 8 -16048194.12623
  23791279.620    -3714412.512 5  -2894313.61921
  21428393.4874  -14574098.26547 -11267493.01262
  21784246.4644    4590186.63846   3576763.00861
 91  5 14 20 41 14.9990000  0  4G 2G11G 6G19
  20411326.745   -20609746.924 7 -16059526.27123
  23797277.2144   -3682923.58245  -2869776.81661
  21422389.2144  -14605658.84547 -11292085.63862
  21788590.3624    4613018.51046   3594554.04361
 91  5 14 20 41 29.9990000  0  4G 2G11G 6G19
  20408572.2454  -20624218.43147 -16070802.74363
  23803289.2614   -3651332.07945  -2845160.07461
  21416387.0344  -14637196.51746 -11316660.41262
  21792945.6204    4635905.88946   3612388.33161
 91  5 14 20 41 44.9990000  0  4G 2G11G 6G19
  20405833.3704  -20638610.46447 -16082017.28863
  23809319.862    -3619630.057 5  -2820457.21721
  21410392.3474  -14668702.93246 -11341210.83162
  21797311.6834    4658856.88046   3630272.19061
 91  5 14 20 41 59.9990000  0  4G 2G11G 6G19
  20403108.909   -20652929.309 7 -16093174.80523
  23815369.894    -3587824.086 5  -2795673.35321
  21404400.1124  -14700184.17246 -11365741.63262
  21801695.1984    4681865.14146   3648200.66861
 91  5 14 20 42 14.9990000  0  4G 2G11G 6G19
  20400395.308   -20667186.168 7 -16104284.01923
  23821441.831    -3555925.649 5  -2770817.45521
  21398414.105   -14731651.426 6 -11390261.53222
  21806076.425     4704919.540 6   3666165.09121
 91  5 14 20 42 29.9990000  0  4G 2G11G 6G19
  20397695.5584  -20681371.80047 -16115337.73163
  23827529.995    -3523925.977 5  -2745882.65721
  21392430.003   -14763095.285 6 -11414763.20621
  21810478.9014    4728029.20946   3684172.59361
 91  5 14 20 42 44.9990000  0  4G 2G11G 6G19
  20395009.776   -20695485.171 7 -16126335.13323
  23833638.9804   -3491824.20445  -2720868.32361
  21386450.5894  -14794514.51847 -11439245.69162
  21814884.5584    4751195.53246   3702224.23562
 91  5 14 20 42 59.9990000  0  4G 2G11G 6G19
  20392334.4804  -20709549.92748 -16137294.65963
  23839760.870    -3459644.095 5  -2695792.94421
  21380473.3314  -14825932.41347 -11463727.13762
  21819298.6754    4774394.91146   3720301.63561
 91  5 14 20 43 14.9990000  0  4G 2G11G 6G19
  20389671.019   -20723538.599 7 -16148194.89723
  23845905.394    -3427358.443 5  -2670635.30921
  21374498.5894  -14857321.33446 -11488186.00062
  21823724.0424    4797655.16146   3738426.46861
 91  5 14 20 43 29.9990000  0  4G 2G11G 6G19
  20387024.464   -20737457.348 7 -16159040.65323
  23852071.870    -3394973.715 5  -2645400.47221
  21368529.9094  -14888687.23646 -11512626.92862
  21828162.3624    4820969.99646   3756593.83461
 91  5 14 20 43 44.9990000  0  4G 2G11G 6G19
  20384388.2924  -20751305.94447 -16169831.73863
  23858246.3784   -3362489.82945  -2620088.37861
  21362565.4484  -14920029.71247 -11537049.60062
  21832608.019     4844339.762 6   3774804.00321
 91  5 14 20 43 59.9990000  0  4G 2G11G 6G19
  20381768.542   -20765079.049 8 -16180564.00423
  23864450.5114   -3329901.92645  -2594695.23161
  21356607.2534  -14951343.32847 -11561449.78662
  21837071.0584    4867769.75646   3793061.10461
 91  5 14 20 44 14.9990000  0  4G 2G11G 6G19
  20379159.8084  -20778784.45147 -16191243.51363
  23870672.6514   -3297217.86545  -2569227.15761
  21350649.5584  -14982635.54546 -11585833.30262
  21841536.8624    4891252.29646   3811359.14661
 91  5 14 20 44 29.9990000  0  4G 2G11G 6G19
  20376564.925   -20792415.617 7 -16201865.17723
  23876910.230    -3264431.494 5  -2543679.36121
  21344703.120   -15013899.797 6 -11610195.01822
  21846015.917     4914794.041 6   3829703.32321
 91  5 14 20 44 44.9990000  0  4G 2G11G 6G19
  20373985.0974  -20805973.29147 -16212429.57563
  23883171.565    -3231543.740 5  -2518052.56021
  21338757.5654  -15045136.50846 -11634535.27762
  21850507.698     4938394.278 6   3848093.07421
 91  5 14 20 44 59.9990000  0  4G 2G11G 6G19
  20371417.847   -20819456.859 8 -16222936.22623
  23889443.042    -3198554.262 5  -2492346.50221
  21332820.4804  -15076344.90647 -11658853.47762
  21855011.386     4962053.720 6   3866528.95321
 91  5 14 20 45 14.9990000  0  4G 2G11G 6G19
  20368866.683   -20832870.004 8 -16233388.00723
  23895744.503    -3165467.121 5  -2466564.33721
  21326884.6364  -15107528.57747 -11683152.41162
  21859521.886     4985768.637 6   3885008.06221
 91  5 14 20 45 29.9990000  0  4G 2G11G 6G19
  20366328.8234  -20846211.25648 -16243783.76263
  23902057.9094   -3132281.20945  -2440705.20361
  21320956.2534  -15138685.88147 -11707430.79862
  21864046.956     5009540.592 6   3903531.61721
 91  5 14 20 45 44.9990000  0  4G 2G11G 6G19
  20363803.347   -20859483.608 8 -16254125.83023
  23908389.026    -3098999.555 5  -2414771.47721
  21315033.5584  -15169819.48547 -11731690.71362
  21868578.011     5033366.840 6   3922097.47421
 91  5 14 20 45 59.9990000  0  4G 2G11G 6G19
  20361288.659   -20872688.718 7 -16264415.50423
  23914745.2614   -3065624.03945  -2388764.61261
  21309109.8704  -15200930.90846 -11755933.35262
  21873125.862     5057245.737 6   3940704.35521
 91  5 14 20 46 14.9990000  0  4G 2G11G 6G19
  20358791.019   -20885824.287 7 -16274650.98923
  23921110.0034   -3032152.41845  -2362682.86061
  21303195.8314  -15232017.44447 -11780156.59862
  21877677.737     5081179.893 6   3959354.30321
 91  5 14 20 46 29.9990000  0  4G 2G11G 6G19
  20356302.698   -20898893.198 8 -16284834.53223
  23927502.776    -2998587.957 5  -2336528.75121
  21297284.6054  -15263081.89747 -11804362.63562
  21882248.362     5105166.389 6   3978045.02421
 91  5 14 20 46 44.9990000  0  4G 2G11G 6G19
  20353832.214   -20911883.386 8 -16294956.73323
  23933904.7534   -2964919.17445  -2310293.37961
  21291379.8554  -15294112.30947 -11828542.15162
  21886819.0584    5129217.19546   3996785.85161
 91  5 14 20 46 59.9990000  0  4G 2G11G 6G19
  20351372.9254  -20924803.34048 -16305024.20363
  23940333.4174   -2931154.51845  -2283983.28561
  21285479.7454  -15325116.62647 -11852701.32462
  21891409.620     5153323.953 6   4015570.28621
 91  5 14 20 47 14.9990000  0  4G 2G11G 6G19
  20348927.737   -20937654.967 8 -16315038.43823
  23946773.8394   -2897296.25645  -2257600.26361
  21279586.1124  -15356096.74747 -11876841.65262
  21896003.6594    5177484.84146   4034396.89161
 91  5 14 20 47 29.9990000  0  4G 2G11G 6G19
  20346495.261   -20950428.604 7 -16324991.89423
  23953239.5344   -2863334.92545  -2231136.90261
  21273695.7144  -15387042.56247 -11900955.23962
  21900617.2144    5201709.62746   4053273.29261
 91  5 14 20 47 44.9990000  0  4G 2G11G 6G19
  20344079.144   -20963140.386 8 -16334897.15823
  23959715.3154   -2829287.09645  -2204606.15061
  21267807.9874  -15417970.27147 -11925054.72162
  21905234.042     5225982.033 6   4072186.80321
 91  5 14 20 47 59.9990000  0  4G 2G11G 6G19
  20341672.839   -20975778.300 7 -16344744.86023
  23966212.237    -2795140.990 5  -2177998.82521
  21261931.2614  -15448867.53047 -11949130.47662
  21909868.4174    5250314.29146   4091146.94561
 91  5 14 20 48 14.9990000  0  4G 2G11G 6G19
  20339281.386   -20988344.252 7 -16354536.48723
  23972729.1904   -2760898.80245  -2151316.63761
  21256056.8004  -15479736.18847 -11973183.93962
  21914503.6204    5274704.55646   4110152.29061
 91  5 14 20 48 29.9980000  0  4G 2G11G 6G19
  20336903.670   -21000843.189 8 -16364275.89823
  23979262.3344   -2726568.79845  -2124566.00361
  21250185.740   -15510579.767 7 -11997217.87422
  21919158.1864    5299145.47846   4129197.11061
 91  5 14 20 48 44.9980000  0  4G 2G11G 6G19
  20334537.193   -21013270.179 7
  23985815.897    -2692140.127 5  -2097738.48821
  21244323.1784  -15541395.50247 -12021230.10562
  21923818.0684    5323647.02446   4148289.16961
 91  5 14 20 48 59.9980000  0  3G11G 6G19
  23992382.600    -2657612.468 5  -2070833.85221
  21238467.2174  -15572178.17547 -12045216.57562
  21928493.6474    5348210.41946   4167429.42261
 91  5 14 20 49 14.9980000  0  4G 2G11G 6G19
  20329849.7564         -0.27157
  23998974.2254   -2622992.79045  -2043857.49161
  21232612.529   -15602934.445 7 -12069182.47722
  21933177.8344    5372828.84246   4186612.54261
 91  5 14 20 49 29.9980000  0  4G 2G11G 6G19
  20327527.186      -12214.710 8
  24005574.3034   -2588281.96445  -2016810.12461
  21226765.467   -15633664.647 7 -12093128.05722
  21937874.2724    5397501.96146   4205838.29361
 91  5 14 20 49 44.9980000  0  4G 2G11G 6G19
  20325215.467      -24354.330 7        -0.25733
  24012202.107    -2553473.795 5  -1989686.89621
  21220923.1704  -15664362.04747 -12117048.08662
  21942579.6784    5422236.52346   4225111.91961
 91  5 14 20 49 59.9980000  0  4G 2G11G 6G19
  20322919.318      -36421.033 8     -9402.86123
  24018841.7644   -2518570.22645  -1962489.33161
  21215086.553   -15695028.229 7 -12140943.78922
  21947299.3264    5447030.80646   4244432.08461
 91  5 14 20 50 14.9980000  0  4G 2G11G 6G19
  20320637.998      -48417.389 8    -18750.65023
  24025503.0924   -2483574.17245  -1935219.70661
  21209258.4904  -15725665.65547 -12164817.08262
  21952027.178     5471882.007 6   4263796.60521
 91  5 14 20 50 29.9980000  0  4G 2G11G 6G19
  20318366.732      -60345.144 8    -28044.98523
  24032180.139    -2448487.751 5  -1907879.65221
  21203431.428   -15756275.915 7 -12188669.20722
  21956770.2014    5496788.42646   4283204.14461
 91  5 14 20 50 44.9980000  0  4G 2G11G 6G19
  20316109.576      -72204.524 7    -37286.04023
  24038872.4284   -2413311.39645  -1880469.52761
  21197612.3974  -15786858.97447 -12212500.13362
  21961516.1784    5521749.96246   4302654.63361
 91  5 14 20 50 59.9980000  0  4G 2G11G 6G19
  20313866.100      -83992.838 7    -46471.72223
  24045585.725    -2378042.650 5  -1852987.40721
  21191800.615   -15817411.887 7 -12236307.57622
  21966278.029     5546769.329 6   4322150.18321
 91  5 14 20 51 14.9980000  0  4G 2G11G 6G19
  20311636.373      -95706.906 7    -55599.54523
  24052315.6314   -2342678.65745  -1825431.05861
  21185990.8264  -15847931.30847 -12260088.91162
  21971050.826     5571849.851 6   4341693.40721
 91  5 14 20 51 29.9980000  0  4G 2G11G 6G19
  20309421.365     -107350.903 8    -64672.77023
  24059063.0064   -2307223.99945  -1797804.06261
  21180191.068   -15878421.277 7 -12283847.30622
  21975838.928     5596987.473 6   4361281.10821
 91  5 14 20 51 44.9980000  0  3G11G 6G19
  24065827.1864   -2271674.54845  -1770103.18161
  21174390.3344  -15908877.18447 -12307579.14862
  21980630.0064    5622186.62046   4380916.74861
 91  5 14 20 51 59.9980000  0  4G 2G11G 6G19
  20305032.459          -0.24017
  24072608.451    -2236032.624 5  -1742330.29721
  21168602.076   -15939300.974 7 -12331285.97522
  21985441.443     5647445.104 6   4400598.63221
 91  5 14 20 52 14.9980000  0  4G 2G11G 6G19
  20302855.5294     -11427.83447
  24079410.3034   -2200300.75045  -1714487.28561
  21162820.076   -15969694.651 7 -12354969.33722
  21990254.5374    5672760.67446   4420324.99061
 91  5 14 20 52 29.9980000  0  4G 2G11G 6G19
  20300696.326      -22784.888 7        -0.01133
  24086225.9364   -2164478.51845  -1686573.88061
  21157041.2404  -16000057.30747 -12378628.52162
  21995082.412     5698134.226 6   4440096.54221
 91  5 14 20 52 44.9980000  0  4G 2G11G 6G19
  20298547.756      -34073.924 7     -8796.63923
  24093056.811    -2128568.869 5  -1658592.36421
  21151270.334   -16030391.389 7 -12402265.44922
  21999921.256     5723563.222 6   4459911.28921
 91  5 14 20 52 59.9980000  0  4G 2G11G 6G19
  20296413.834      -45293.025 7    -17538.78023
  24099913.2874   -2092569.98245  -1630541.27861
  21145503.9124  -16060694.59847 -12425878.31262
  22004772.5614    5749049.74146   4479770.85061
 91  5 14 20 53 14.9980000  0  4G 2G11G 6G19
  20294292.139      -56440.711 7    -26225.26423
  24106773.9044   -2056480.81345  -1602419.86861
  21139742.7324  -16090965.39247 -12449465.91262
  22009632.639     5774595.223 6   4499676.36421
 91  5 14 20 53 29.9980000  0  4G 2G11G 6G19
  20292185.404      -67515.784 7    -34855.17323
  24113664.2564   -2020300.47045  -1574227.39661
  21133989.928   -16121202.385 7 -12473027.18822
  22014506.272     5800200.859 6   4519628.75621
 91  5 14 20 53 44.9980000  0  4G 2G11G 6G19
  20290091.561      -78515.027 7    -43425.99223
  24120565.264    -1984026.023 5  -1545961.57721
  21128243.623   -16151402.144 7 -12496559.44122
  22019388.9284    5825869.95446   4539630.58961
 91  5 14 20 53 59.9980000  0  4G 2G11G 6G19
  20288010.678      -89446.255 7    -51943.81323
  24127483.3894   -1947665.48245  -1517628.72861
  21122502.717   -16181572.358 7 -12520068.67422
  22024285.475     5851594.798 6   4559675.86921
 91  5 14 20 54 14.9980000  0  4G 2G11G 6G19
  20285943.959     -100309.373 7    -60408.55723
  24134416.389    -1911219.174 5  -1489228.97721
  21116763.389   -16211712.475 7 -12543554.45622
  22029189.936     5877375.525 6   4579764.70621
 91  5 14 20 54 29.9980000  0  3G 2G 6G19
  20283891.311     -111099.105 7    -68816.12323
  21111036.951   -16241817.193 7 -12567012.65222
  22034116.1934    5903217.46346   4599901.21961
 91  5 14 20 54 44.9980000  0  3G 2G 6G19
  20281852.639     -121812.140 7    -77163.92123
  21105315.0374  -16271882.98547 -12590440.51762
  22039038.889     5929124.015 6   4620088.08121
 91  5 14 20 54 59.9980000  0  3G 2G 6G19
  20279825.826     -132454.619 7    -85456.73923
  21099597.639   -16301915.658 7 -12613842.57622
  22043982.9364    5955089.14446   4640320.59261
 91  5 14 20 55 14.9980000  0  3G 2G 6G19
  20277814.326     -143024.469 7    -93692.96423
  21093895.4594  -16331912.92347 -12637217.04762
  22048931.1234    5981115.00346   4660600.42361
 91  5 14 20 55 29.9980000  0  3G 2G 6G19
  20275817.482     -153522.266 7   -101873.04423
  21088190.1004  -16361875.05947 -12660564.13362
  22053896.334     6007201.128 6   4680927.22921
 91  5 14 20 55 44.9980000  0  3G 2G 6G19
  20273832.967     -163950.777 7   -109999.13723
  21082493.7094  -16391804.60447 -12683885.83362
  22058869.2014    6033344.86546   4701298.92161
 91  5 14 20 55 59.9980000  0  3G 2G 6G19
  20271862.459     -174305.168 7   -118067.47123
  21076809.943   -16421696.404 7 -12707178.12222
  22063859.7794    6059551.06646   4721719.27861
 91  5 14 20 56 14.9980000  0  3G 2G 6G19
  20269904.951     -184593.885 7   -126084.63523
  21071123.9674  -16451558.78547 -12730447.48262
  22068855.2094    6085811.17846   4742181.64261
 91  5 14 20 56 29.9980000  0  3G 2G 6G19
  20267961.397     -194811.543 7   -134046.42823
  21065447.7094  -16481386.25947 -12753689.64062
  22073867.068     6112130.879 6   4762690.45321
 91  5 14 20 56 44.9980000  0  3G 2G 6G19
  20266027.600     -204964.145 7   -141957.52623
  21059777.0144  -16511184.61747 -12776909.11062
  22078884.9434    6138503.95246   4783240.82861
 91  5 14 20 56 59.9980000  0  3G 2G 6G19
  20264111.561     -215035.589 7   -149805.38723
  21054117.3344  -16540937.45847 -12800093.11062
  22083917.779     6164946.586 6   4803845.43521
 91  5 14 20 57 14.9980000  0  3G 2G 6G19
  20262208.568     -225040.376 7   -157601.30723
  21048460.2874  -16570659.16747 -12823252.85362
  22088956.131     6191444.413 6   4824493.04121
 91  5 14 20 57 29.9980000  0  3G 2G 6G19
  20260318.264     -234973.453 7   -165341.35023
  21042810.9514  -16600344.28647 -12846384.08462
  22094012.8974    6218002.72346   4845187.76261
 91  5 14 20 57 44.9980000  0  3G 2G 6G19
  20258440.147     -244840.657 7   -173030.06623
  21037169.0684  -16629998.36447 -12869491.12862
  22099073.6004    6244615.67146   4865925.06661
 91  5 14 20 57 59.9980000  0  3G 2G 6G19
  20256575.162     -254637.536 7   -180663.98423
  21031530.9674  -16659616.81047 -12892570.40662
  22104152.936     6271287.807 6   4886708.50121
 91  5 14 20 58 14.9980000  0  3G 2G 6G19
  20254725.272     -264360.707 7   -188240.47023
  21025902.8814  -16689196.02647 -12915619.11462
  22109239.0614    6298022.57746   4907540.73561
 91  5 14 20 58 29.9980000  0  3G 2G 6G19
  20252889.0064    -274010.06747   -195759.44363
  21020282.2254  -16718735.53947 -12938636.88762
  22114339.193     6324820.150 6   4928421.91021
 91  5 14 20 58 44.9980000  0  3G 2G 6G19
  20251067.272     -283586.989 7   -203221.96423
  21014667.3894  -16748236.56047 -12961624.66562
  22119448.0844    6351679.27446   4949351.03961
 91  5 14 20 58 59.9980000  0  3G 2G 6G19
  20249258.240     -293091.560 8   -210628.11223
  21009061.5224  -16777699.05247 -12984582.42362
  22124574.3974    6378599.85546   4970328.05761
 91  5 14 20 59 14.9980000  0  3G 2G 6G19
  20247462.4674    -302528.27047   -217981.38263
  21003462.1784  -16807127.28147 -13007513.47362
  22129705.670     6405577.337 6   4991349.42521
 91  5 14 20 59 29.9980000  0  3G 2G 6G19
  20245680.295     -311890.901 7   -225276.92623
  20997871.2014  -16836514.90947 -13030412.89662
  22134853.2794    6432617.98946   5012419.99961
 91  5 14 20 59 44.9980000  0  3G 2G 6G19
  20243914.4824    -321184.14448   -232518.40263
  20992285.4754  -16865866.12147 -13053283.93962
  22140008.147     6459717.175 6   5033536.19721
 91  5 14 20 59 59.9980000  0  3G 2G 6G19
  20242156.787     -330406.665 7   -239704.77023
  20986707.6544  -16895179.28747 -13076125.33462
  22145177.795     6486876.632 6   5054699.35021
 91  5 14 21  0 14.9980000  0  3G 2G 6G19
  20240416.5684    -339563.68748   -246840.10463
  20981133.1784  -16924459.62147 -13098941.14762
  22150355.615     6514090.932 6   5075905.25621
 91  5 14 21  0 29.9980000  0  3G 2G 6G19
  20238683.5844    -348652.00647   -253921.89763
  20975569.1784  -16953703.63447 -13121728.65762
  22155549.279     6541363.350 6   5097156.43721
 91  5 14 21  0 44.9980000  0  3G 2G 6G19
  20236968.9434    -357671.55547   -260950.11163
  20970009.8974  -16982910.92247 -13144487.55062
  22160747.8184    6568694.25946   5118453.18661
 91  5 14 21  0 59.9980000  0  3G 2G 6G19
  20235266.2014    -366623.72447   -267925.81763
  20964458.5374  -17012082.65247 -13167218.74362
  22165960.490     6596082.219 6   5139794.39921
 91  5 14 21  1 14.9980000  0  3G 2G 6G19
  20233574.9284    -375508.70047   -274849.16563
  20958917.2254  -17041218.91747 -13189922.29562
  22171180.6474    6623527.01046   5161179.88961
 91  5 14 21  1 29.9980000  0  3G 2G 6G19
  20231898.8344    -384322.74847   -281717.24563
  20953378.217   -17070315.626 7 -13212595.02722
  22176416.8734    6651032.21246   5182612.45461
 91  5 14 21  1 44.9980000  0  3G 2G 6G19
  20230233.8894    -393065.59747   -288529.84663
  20947848.264   -17099372.424 7 -13235236.66022
  22181660.6004    6678598.35446   5204092.49661
 91  5 14 21  1 59.9980000  0  3G 2G 6G19
  20228582.514     -401739.485 7   -295288.70723
  20942327.2794  -17128391.28247 -13257848.72962
  22186919.6624    6706223.28546   5225618.34861
 91  5 14 21  2 14.9980000  0  3G 2G 6G19
  20226946.740     -410342.259 7   -301992.15923
  20936810.8504  -17157369.71547 -13280429.29262
  22192186.662     6733909.179 6   5247191.72521
 91  5 14 21  2 29.9980000  0  3G 2G 6G19
  20225323.3504    -418869.34747   -308636.62963
  20931305.467   -17186302.793 7 -13302974.52622
  22197469.4284    6761660.83946   5268816.32461
 91  5 14 21  2 44.9980000  0  3G 2G 6G19
  20223713.7724    -427328.36347   -315228.06363
  20925807.295   -17215197.898 7 -13325490.16922
  22202756.6474    6789470.50046   5290486.13361
 91  5 14 21  2 59.9980000  0  3G 2G 6G19
  20222116.154     -435721.434 7   -321768.10123
  20920315.311   -17244057.090 7 -13347977.82922
  22208065.537     6817336.009 6   5312199.46521
 91  5 14 21  3 14.9980000  0  3G 2G 6G19
  20220533.3114    -444043.69648   -328252.97263
  20914832.779   -17272875.212 7 -13370433.48322
  22213376.834     6845262.330 6   5333960.17821
 91  5 14 21  3 29.9980000  0  3G 2G 6G19
  20218963.014     -452300.072 8   -334686.50023
  20909354.8814  -17301656.79547 -13392860.66062
  22218701.0454    6873244.92546   5355764.73261
 91  5 14 21  3 44.9980000  0  3G 2G 6G19
  20217404.7094    -460489.78947   -341068.08463
  20903884.779   -17330400.970 7 -13415258.70322
  22224035.4984    6901284.26646   5377613.50161
 91  5 14 21  3 59.9980000  0  3G 2G 6G19
  20215857.115     -468612.162 8   -347397.19423
  20898420.709   -17359106.771 7 -13437626.83422
  22229386.732     6929381.177 6   5399507.14121
 91  5 14 21  4 14.9980000  0  3G 2G 6G19
  20214326.9594    -476660.92247   -353668.94563
  20892970.287   -17387767.512 7 -13459959.86022
  22234742.342     6957542.130 6   5421450.67321
 91  5 14 21  4 29.9980000  0  3G 2G 6G19
  20212808.123     -484643.438 7   -359889.07323
  20887521.990   -17416390.413 7 -13482263.39722
  22240116.2954    6985759.84546   5443438.43561
 91  5 14 21  4 44.9980000  0  3G 2G 6G19
  20211300.7404    -492554.19147   -366053.28563
  20882083.404   -17444969.639 7 -13504532.89822
  22245492.389     7014039.869 6   5465474.76421
 91  5 14 21  4 59.9980000  0  3G 2G 6G19
  20209808.498     -500396.305 7   -372164.00823
  20876652.811   -17473508.369 7 -13526770.84722
  22250886.7644    7042378.91846   5487557.06761
 91  5 14 21  5 14.9980000  0  3G 2G 6G19
  20208331.1234    -508172.95947   -378223.73163
  20871228.490   -17502009.360 7 -13548979.39522
  22256286.7564    7070773.94446   5509682.99961
 91  5 14 21  5 29.9980000  0  3G 2G 6G19
  20206862.420     -515879.789 7   -384229.03923
  20865815.678   -17530468.085 7 -13571154.99722
  22261704.7954    7099229.37546   5531856.00261
 91  5 14 21  5 44.9980000  0  3G 2G 6G19
  20205409.381     -523520.522 8   -390182.84523
  20860403.326   -17558887.908 7 -13593300.29822
  22267128.7094    7127741.39246   5554073.08561
 91  5 14 21  5 59.9980000  0  3G 2G 6G19
  20203968.600     -531095.458 8   -396085.37723
  20855004.787   -17587268.986 7 -13615415.39922
  22272568.6234    7156310.07246   5576334.32861
 91  5 14 21  6 14.9980000  0  3G 2G 6G19
  20202540.8814    -538601.91048   -401934.55263
  20849612.131   -17615608.194 7 -13637497.87922
  22278012.8654    7184938.19246   5598641.88861
 91  5 14 21  6 29.9980000  0  3G 2G 6G19
  20201125.006     -546037.661 7   -407728.63023
  20844229.334   -17643903.018 7 -13659545.77122
  22283475.3114    7213627.90946   5620997.45061
 91  5 14 21  6 44.9980000  0  3G 2G 6G19
  20199721.670     -553407.943 7   -413471.69223
  20838849.826   -17672158.364 7 -13681562.90722
  22288942.7794    7242374.12646   5643397.03561
 91  5 14 21  6 59.9980000  0  3G 2G 6G19
  20198333.881     -560710.038 8   -419161.62623
  20833481.428   -17700371.610 7 -13703547.24022
  22294430.7174    7271179.22645   5665842.49661
 91  5 14 21  7 14.9980000  0  3G 2G 6G19
  20196955.5924    -567945.52847   -424799.65763
  20828120.248   -17728544.204 7 -13725499.89222
  22299918.2324    7300041.70446   5688332.66861
 91  5 14 21  7 29.9980000  0  3G 2G 6G19
  20195591.232     -575114.875 8   -430386.14623
  20822767.951   -17756676.077 7 -13747420.81522
  22305425.9284    7328961.34645   5710867.38461
 91  5 14 21  7 44.9980000  0  3G 2G 6G19
  20194239.139     -582215.695 7   -435919.23823
  20817421.967   -17784764.593 7 -13769307.95123
  22310932.9824    7357940.67746   5733448.61161
 91  5 14 21  7 59.9980000  0  3G 2G 6G19
  20192901.420     -589246.462 8   -441397.74223
  20812086.928   -17812807.917 7 -13791159.87022
  22316462.9824    7386981.29946   5756077.60761
 91  5 14 21  8 14.9980000  0  3G 2G 6G19
  20191576.623     -596213.197 8   -446826.35923
  20806756.982   -17840811.953 7 -13812981.17723
  22321999.865     7416077.082 6   5778749.57421
 91  5 14 21  8 29.9980000  0  3G 2G 6G19
  20190262.873     -603110.900 7   -452201.17723
  20801437.428   -17868771.443 7 -13834767.77723
  22327551.201     7445233.136 6   5801468.50721
 91  5 14 21  8 44.9980000  0  3G 2G 6G19
  20188965.272     -609934.856 7   -457518.53123
  20796123.811   -17896681.125 7 -13856515.56223
  22333109.5534    7474454.38246   5824238.24861
 91  5 14 21  8 59.9980000  0  3G 2G 6G19
  20187677.8184    -616696.29047   -462787.16963
  20790822.623   -17924552.167 7 -13878233.23623
  22338682.912     7503729.526 5   5847049.97421
 91  5 14 21  9 14.9980000  0  3G 2G 6G19
  20186405.170     -623393.636 8   -468005.86823
  20785525.115   -17952382.755 7 -13899919.38922
  22344262.5224    7533060.20346   5869904.97961
 91  5 14 21  9 29.9980000  0  3G 2G 6G19
  20185142.615     -630025.817 8   -473173.78723
  20780238.600   -17980171.607 7 -13921573.02223
  22349853.256     7562447.362 5   5892803.98821
 91  5 14 21  9 44.9980000  0  3G 2G 6G19
  20183890.381     -636602.133 8   -478298.17223
  20774955.678   -18007927.672 7 -13943201.10422
  22355453.0294    7591881.99646   5915739.99561
 91  5 14 21  9 59.9980000  0  3G 2G 6G19
  20182652.107     -643107.406 7   -483367.20723
  20769683.607   -18035635.642 7 -13964791.71023
  22361071.0844    7621379.19545   5938724.75861
 91  5 14 21 10 14.9980000  0  3G 2G 6G19
  20181425.568     -649550.264 8   -488387.60223
  20764418.342   -18063303.777 7 -13986351.27523
  22366691.561     7650930.510 6   5961751.68621
 91  5 14 21 10 29.9980000  0  3G 2G 6G19
  20180213.584     -655923.112 8   -493353.44323
  20759162.225   -18090924.245 7 -14007873.69922
  22372326.068     7680543.540 6   5984826.71221
 91  5 14 21 10 44.9980000  0  4G13G 2G 6G19
  23580534.0294     -66874.57144
  20179014.1004    -662223.40048   -498262.74763
  20753917.529   -18118494.281 7 -14029356.82022
  22377972.2954    7710220.72546   6007951.72461
 91  5 14 21 10 59.9980000  0  4G13G 2G 6G19
  23567812.0534    -133731.71043
  20177826.506     -668464.295 8   -503125.76723
  20748676.842   -18146026.581 7 -14050810.53522
  22383632.803     7739949.247 6   6031116.73421
 91  5 14 21 11 14.9980000  0  4G13G 2G 6G19
  23555097.9984    -200559.91343
  20176654.201     -674633.888 8   -507933.23323
  20743447.068   -18173509.106 7 -14072225.46923
  22389301.1154    7769740.84546   6054330.89061
 91  5 14 21 11 29.9980000  0  4G13G 2G 6G19
  23542383.5374    -267354.90243
  20175493.1074    -680728.09848   -512681.95463
  20738226.381   -18200937.769 7 -14093598.42922
  22394985.889     7799599.581 5   6077597.37021
 91  5 14 21 11 44.9980000  0  4G13G 2G 6G19
  23529680.0764    -334124.09544
  20174346.6004    -686754.93648   -517378.17663
  20733016.701   -18228320.054 7 -14114935.26123
  22400674.5614    7829517.58346   6100910.00261
 91  5 14 21 11 59.9980000  0  4G13G 2G 6G19
  23516976.8344    -400868.19043
  20173210.670     -692715.608 8   -522022.84923
  20727815.936   -18255656.961 7 -14136236.72523
  22406380.3654    7859493.62046   6124267.88861
 91  5 14 21 12 14.9980000  0  4G13G 2G 6G19
  23504280.0144    -467587.28443
  20172089.8974    -698610.76948   -526616.47563
  20722621.311   -18282948.755 7 -14157503.03123
  22412092.303     7889527.337 6   6147670.70521
 91  5 14 21 12 29.9980000  0  4G13G 2G 6G19
  23491585.9044    -534274.69843
  20170981.7014    -704434.29648   -531154.27563
  20717438.443   -18310189.108 7 -14178729.26323
  22417824.5924    7919624.63146   6171123.06061
 91  5 14 21 12 44.9980000  0  4G13G 2G 6G19
  23478895.9284    -600942.39243
  20169885.5534    -710198.35948   -535645.74763
  20712262.068   -18337390.031 7 -14199924.77223
  22423559.311     7949773.517 6   6194615.63021
 91  5 14 21 12 59.9980000  0  4G13G 2G 6G19
  23466220.5454    -667590.61943
  20168800.248     -715903.808 8   -540091.53823
  20707092.357   -18364551.927 7 -14221089.85723
  22429310.334     7979973.219 6   6218147.77721
 91  5 14 21 13 14.9980000  0  4G13G 2G 6G19
  23453538.9824    -734217.71844
  20167725.2324    -721549.32948   -544490.63363
  20701932.568   -18391673.357 7 -14242223.42023
  22435064.381     8010224.940 6   6241720.46821
 91  5 14 21 13 29.9980000  0  4G13G 2G 6G19
  23440863.1784    -800821.73944        -0.44371
  20166662.8264    -727133.45148   -548841.88863
  20696778.936   -18418752.649 7 -14263324.14822
  22440830.006     8040530.177 6   6265334.85721
 91  5 14 21 13 44.9980000  0  4G13G 2G 6G19
  23428194.1234    -867399.39143    -51878.92161
  20165612.6394    -732653.53448   -553143.24163
  20691633.506   -18445786.727 7 -14284389.64123
  22446606.592     8070891.741 6   6288993.14821
 91  5 14 21 13 59.9980000  0  4G13G 2G 6G19
  23415535.4514    -933954.25144
  20164572.764     -738113.730 8   -557397.92623
  20686497.5924  -18472779.47247 -14305422.92062
  22452398.232     8101305.609 6   6312692.18121
 91  5 14 21 14 14.9980000  0  4G13G 2G 6G19
  23402878.0294   -1000474.62945
  20163547.3814    -743502.58648   -561597.02563
  20681370.178   -18499719.406 7 -14326415.05622
  22458195.967     8131783.124 6   6336440.81621
 91  5 14 21 14 29.9980000  0  4G13G 2G 6G19
  23390220.420    -1066968.891 4
  20162536.0614    -748829.02348   -565747.48863
  20676251.506   -18526615.112 7 -14347372.73223
  22464005.256     8162315.297 5   6360232.03321
 91  5 14 21 14 44.9980000  0  4G13G 2G 6G19
  23377574.717    -1133431.773 4
  20161532.2094    -754088.32048   -569845.63563
  20671143.193   -18553461.513 7 -14368291.98122
  22469824.8184    8192906.84346   6384069.53161
 91  5 14 21 14 59.9980000  0  4G13G 2G 6G19
  23364929.943    -1199867.226 5        -0.08531
  20160546.1004    -759284.77148   -573894.80563
  20666043.686   -18580262.717 7 -14389176.01622
  22475661.3654    8223553.60745   6407950.04061
 91  5 14 21 15 14.9980000  0  4G13G 2G 6G19
  23352290.436    -1266270.481 5    -51742.61821
  20159567.3184    -764414.13848   -577891.70463
  20660952.732   -18607014.136 7 -14410021.25323
  22481500.928     8254259.952 6   6431876.99321
 91  5 14 21 15 29.9980000  0  4G13G 2G 6G19
  23339663.303    -1332641.411 4   -103460.05321
  20158605.803     -769476.776 8   -581836.61223
  20655871.537   -18633715.871 7 -14430827.77723
  22487359.1074    8285025.48145   6455850.05361
 91  5 14 21 15 44.9980000  0  4G13G 2G 6G19
  23327032.0374   -1398982.42144   -155154.09261
  20157654.7254    -774475.50148   -585731.71463
  20650801.764   -18660370.471 7 -14451597.58023
  22493223.0454    8315847.53445   6479867.15061
 91  5 14 21 15 59.9980000  0  4G13G 2G 6G19
  23314416.0764   -1465292.41345   -206824.02761
  20156713.7564    -779409.65948   -589576.49963
  20645737.717   -18686976.900 7 -14472329.84023
  22499097.709     8346726.796 5   6503928.83621
 91  5 14 21 16 14.9980000  0  4G13G 2G 6G19
  23301805.8654   -1531574.28045   -258472.01561
  20155785.8264    -784282.75048   -593373.71063
  20640683.639   -18713538.357 7 -14493027.05623
  22504983.092     8377659.807 5   6528032.40221
 91  5 14 21 16 29.9980000  0  4G13G 2G 6G19
  23289196.631    -1597826.664 4   -310097.09621
  20154871.123     -789093.974 8   -597122.70023
  20635635.568   -18740053.954 7 -14513688.54023
  22510884.897     8408647.325 5   6552178.44521
 91  5 14 21 16 44.9980000  0  4G13G 2G 6G19
  23276596.6394   -1664044.20445   -361694.90161
  20153970.3574    -793838.41148   -600819.66263
  20630598.178   -18766518.355 7 -14534310.13023
  22516788.154     8439694.266 5   6576370.78621
 91  5 14 21 16 59.9980000  0  4G13G 2G 6G19
  23264008.0924   -1730231.00345   -413268.82561
  20153077.7794    -798520.72548   -604468.20463
  20625572.482   -18792935.927 7 -14554895.23323
  22522711.240     8470796.090 5   6600605.89121
 91  5 14 21 17 14.9980000  0  4G13G 2G 6G19
  23251408.639    -1796387.974 4   -464819.51921
  20152197.022     -803142.031 8   -608069.20823
  20620555.545   -18819307.567 7 -14575444.54823
  22528636.9364    8501951.73445   6624882.94161
 91  5 14 21 17 29.9980000  0  4G13G 2G 6G19
  23238829.7094   -1862509.28044   -516342.38361
  20151333.2644    -807697.13148   -611618.63063
  20615546.303   -18845627.895 7 -14595953.87023
  22534575.951     8533166.451 5   6649206.00621
 91  5 14 21 17 44.9980000  0  4G13G 2G 6G19
  23226257.561    -1928593.861 4   -567836.69121
  20150477.170     -812185.224 8   -615115.83323
  20610548.561   -18871895.891 7 -14616422.42023
  22540527.014     8564441.024 5   6673575.74421
 91  5 14 21 17 59.9980000  0  4G13G 2G 6G19
  23213685.584    -1994644.102 4   -619304.18121
  20149633.8654    -816609.29648   -618563.15263
  20605559.795   -18898114.132 7 -14636852.20023
  22546487.8184    8595772.32345   6697989.65361
 91  5 14 21 18 14.9980000  0  4G13G 2G 6G19
  23201121.943    -2060664.519 4   -670748.44421
  20148804.0924    -820974.15748   -621964.33363
  20600579.568   -18924287.228 7 -14657246.80823
  22552460.0294    8627155.71245   6722444.14861
 91  5 14 21 18 29.9980000  0  4G13G 2G 6G19
  23188567.3974   -2126641.12144   -722158.60961
  20147990.0924    -825266.48448   -625308.99563
  20595607.334   -18950401.585 7 -14677595.63723
  22558449.334     8658604.589 5   6746949.69221
 91  5 14 21 18 44.9980000  0  4G13G 2G 6G19
  23176019.279    -2192579.901 4   -773539.26521
  20147183.4124    -829492.72848   -628602.16463
  20590648.404   -18976463.238 7 -14697903.40223
  22564443.0534    8690112.51445   6771501.21761
 91  5 14 21 18 59.9980000  0  4G13G 2G 6G19
  23163480.9674   -2258489.64645   -824897.31361
  20146389.115     -833662.410 8   -631851.25323
  20585698.740   -19002481.567 7 -14718177.40823
  22570448.592     8721670.024 5   6796091.40821
 91  5 14 21 19 14.9980000  0  4G13G 2G 6G19
  23150937.1934   -2324367.09144   -876230.23261
  20145609.3034    -837772.48548   -635053.90563
  20580756.576   -19028453.274 7 -14738415.08123
  22576461.4124    8753280.25045   6820722.67661
 91  5 14 21 19 29.9980000  0  4G13G 2G 6G19
  23138409.7794   -2390201.83344   -927529.80061
  20144840.904     -841812.709 8   -638202.11823
  20575824.545   -19054367.854 7 -14758608.24123
  22582496.5924    8784953.14145   6845402.74161
 91  5 14 21 19 44.9980000  0  4G13G 2G 6G19
  23125894.2484   -2456002.07945   -978802.53061
  20144080.9984    -845791.95348   -641302.81863
  20570902.522   -19080233.828 7 -14778763.52823
  22588526.9044    8816680.03045   6870124.93761
 91  5 14 21 19 59.9980000  0  4G13G 2G 6G19
  23113370.3814   -2521776.71244  -1030055.29561
  20143335.818     -849719.623 8   -644363.33123
  20565989.092   -19106060.383 7 -14798888.10123
  22594574.9124    8848451.53545   6894881.86661
 91  5 14 21 20 14.9980000  0  4G13G 2G 6G19
  23100861.334    -2587519.958 4  -1081283.60621
  20142598.2174    -853590.44848   -647379.54163
  20561082.248   -19131842.000 7 -14818977.64923
  22600630.5374    8880273.04645   6919677.75061
 91  5 14 21 20 29.9980000  0  4G13G 2G 6G19
  23088368.0064   -2653184.65445  -1132450.72161
  20141881.061     -857357.887 8   -650315.19623
  20556192.990   -19157531.736 7 -14838995.61123
  22606703.1074    8912191.14045   6944548.91161
 91  5 14 21 20 44.9980000  0  4G13G 2G 6G19
  23075882.404    -2718804.877 5  -1183583.16821
  20141177.811     -861056.783 8   -653197.43523
  20551315.326   -19183164.220 7 -14858968.95523
  22612788.943     8944171.152 5   6969468.30521
 91  5 14 21 20 59.9980000  0  4G13G 2G 6G19
  23063401.318    -2784383.320 4  -1234683.08221
  20140485.209     -864689.689 8   -656028.25723
  20546447.631   -19208741.714 7 -14878899.44823
  22618889.0064    8976210.29345   6994433.76861
 91  5 14 21 21 14.9980000  0  4G13G 2G 6G19
  23050931.514    -2849923.034 4  -1285752.79021
  20139807.686     -868260.534 8   -658810.72123
  20541589.248   -19234267.823 7 -14898789.90123
  22624993.545     9008304.653 5   7019442.28221
 91  5 14 21 21 29.9980000  0  4G13G 2G 6G19
  23038461.186    -2915424.380 5  -1336792.60821
  20139138.850     -871769.688 8   -661545.11123
  20536743.607   -19259742.732 7 -14918640.46423
  22631114.9044    9040453.93445   7044493.57661
 91  5 14 21 21 44.9980000  0  4G13G 2G 6G19
  23026009.600    -2980884.479 5  -1387800.29921
  20138482.092     -875215.106 8   -664229.83523
  20531905.170   -19285164.080 7 -14938449.29223
  22637237.748     9072660.243 5   7069589.30221
 91  5 14 21 21 59.9980000  0  4G13G 2G 6G19
  23013557.4824   -3046304.73845  -1438776.93261
  20137840.795     -878598.495 8   -666866.23023
  20527076.186   -19310533.140 7 -14958217.37323
  22643378.873     9104921.935 5   7094728.20021
 91  5 14 21 22 14.9980000  0  4G13G 2G 6G19
  23001117.7324   -3111689.06045
  20137205.3264    -881924.16048   -669457.64763
  20522257.803   -19335854.145 7 -14977948.01123
  22649528.2564    9137234.74545   7119906.94661
 91  5 14 21 22 29.9980000  0  4G13G 2G 6G19
  22988685.7724   -3177032.91245
  20136585.6314    -885188.28448   -672001.11363
  20517450.147   -19361122.998 7 -14997638.01323
  22655692.045     9169602.297 5   7145128.29221
 91  5 14 21 22 44.9980000  0  4G13G 2G 6G19
  22976259.1544   -3242337.19745
  20135977.193     -888392.290 8   -674497.72423
  20512649.600   -19386340.887 7 -15017288.30023
  22661854.803     9202023.359 5   7170391.38321
 91  5 14 21 22 59.9980000  0  4G13G 2G 6G19
  22963838.5294   -3307600.24145        -0.03371
  20135378.092     -891534.683 8   -676946.33023
  20507863.334   -19411506.056 7 -15036897.51023
  22668038.2404    9234499.33845   7195697.27561
 91  5 14 21 23 14.9980000  0  4G13G 2G 6G19
  22951422.951    -3372816.728 5    -50817.85921
  20134791.5614    -894610.71148   -679343.22763
  20503086.811   -19436613.248 7 -15056461.53523
  22674226.467     9267035.235 5   7221049.82221
 91  5 14 21 23 29.9980000  0  4G13G 2G 6G19
  22939019.3574   -3437988.57245   -101600.96361
  20134218.6544    -897622.96048   -681690.42163
  20498318.951   -19461664.828 7 -15075982.22823
  22680430.5924    9299628.38545   7246446.99961
 91  5 14 21 23 44.9980000  0  4G13G 2G 6G19
  22926631.014    -3503114.421 5   -152348.16421
  20133659.1314    -900570.31048   -683987.04863
  20493560.904   -19486659.476 7 -15095458.56023
  22686644.443     9332279.912 5   7271889.66121
 91  5 14 21 23 59.9980000  0  4G13G 2G 6G19
  22914248.225    -3568197.347 5   -203061.94621
  20133109.3114    -903456.33548   -686235.88863
  20488815.311   -19511600.430 7 -15114893.05323
  22692871.5614    9364986.32145   7297375.08161
 91  5 14 21 24 14.9980000  0  4G13G 2G 6G19
  22901866.1474   -3633240.30745   -253744.58061
  20132572.0844    -906284.61148   -688439.72863
  20484079.568   -19536490.992 7 -15134288.28023
  22699101.475     9397744.055 5   7322900.49221
 91  5 14 21 24 29.9980000  0  4G13G 2G 6G19
  22889496.8424   -3698241.18445   -304394.46961
  20132044.1784    -909053.36448   -690597.19263
  20479353.647   -19561329.013 7 -15153642.55723
  22705346.100     9430554.745 5   7348467.18821
 91  5 14 21 24 44.9980000  0  4G13G 2G 6G19
  22877138.693    -3763199.015 5   -355010.74321
  20131528.982     -911762.137 8   -692707.91223
  20474637.545   -19586113.856 7 -15172955.40423
  22711599.107     9463418.985 5   7374075.59521
 91  5 14 21 24 59.9980000  0  4G13G 2G 6G19
  22864784.912    -3828112.679 5   -405592.66621
  20131021.7094    -914410.29248   -694771.40263
  20469928.678   -19610844.641 7 -15192226.12423
  22717866.0844    9496337.43645   7399726.23661
 91  5 14 21 25 14.9980000  0  4G13G 2G 6G19
  22852439.232    -3892978.244 5   -456137.08321
  20130535.9904    -916994.35548   -696784.95363
  20465234.529   -19635517.464 7 -15211451.67723
  22724139.5454    9529313.58945   7425421.87261
 91  5 14 21 25 29.9980000  0  4G13G 2G 6G19
  22840107.2724   -3957798.77745   -506646.37561
  20130048.5924    -919517.57048   -698751.07963
  20460552.154   -19660135.594 7 -15230634.61423
  22730427.451     9562344.076 5   7451159.82121
 91  5 14 21 25 44.9980000  0  4G13G 2G 6G19
  22827780.092    -4022575.322 5   -557121.41321
  20129584.9124    -921981.55648   -700671.06763
  20455875.381   -19684700.184 7 -15249775.83323
  22736722.201     9595427.367 6   7476938.90121
 91  5 14 21 25 59.9980000  0  4G13G 2G 6G19
  22815464.5064   -4087303.99145   -607559.17961
  20129126.6474    -924383.15448   -702542.43063
  20451211.217   -19709207.671 7 -15268872.56723
  22743028.420     9628566.856 5   7502761.81021
 91  5 14 21 26 14.9980000  0  5G13G 2G15G 6G19
  22803153.607    -4151987.276 5   -657961.54021
  20128679.9754    -926725.17748   -704367.37563
  23640627.4594         -0.51355
  20446559.053   -19733660.632 7 -15287926.80523
  22749340.6544    9661759.54645   7528626.16661
 91  5 14 21 26 29.9980000  0  5G13G 2G15G 6G19
  22790853.1544   -4216621.38345   -708325.59061
  20128248.389     -929004.749 8   -706143.65523
  23635719.9124     -25809.58245
  20441916.459   -19758055.949 7 -15306936.12323
  22755669.834     9695008.251 5   7554534.12721
 91  5 14 21 26 44.9980000  0  5G13G 2G15G 6G19
  22778564.889    -4281204.356 5   -758649.79021
  20127824.9674    -931220.08948   -707869.88863
  23630826.3654     -51508.67345
  20437284.576   -19782391.511 7 -15325898.88323
  22762005.9594    9728314.99945   7580487.36461
 91  5 14 21 26 59.9980000  0  5G13G 2G15G 6G19
  22766280.529    -4345757.031 5   -808950.33221
  20127415.4674    -933392.54648   -709562.70163
  23625951.740      -77118.908 5
  20432663.404   -19806688.385 7 -15344831.49723
  22768351.6624    9761658.36245   7606469.12161
 91  5 14 21 27 14.9980000  0  5G13G 2G15G 6G19
  22754000.772    -4410285.069 5   -859231.74421
  20127005.7254    -935528.17348   -711226.81763
  23621095.8114    -102645.89245
  20428044.404   -19830952.529 7 -15363738.60223
  22774704.4824    9795032.11545   7632474.56161
 91  5 14 21 27 29.9980000  0  5G13G 2G15G 6G19
  22741734.1394   -4474726.38145   -909445.56561
  20126620.0454    -937565.26148   -712814.15463
  23616264.7324    -128027.54245        -0.03271
  20423446.764   -19855121.776 7 -15382571.76723
  22781074.1624    9828498.13445   7658551.88361
 91  5 14 21 27 44.9980000  0  5G13G 2G15G 6G19
  22729482.0614   -4539118.07145   -959620.68561
  20126241.4514    -939541.13948   -714353.79163
  23611464.084     -153301.032 5    -19693.60221
  20418857.670   -19879233.291 7 -15401359.93823
  22787451.2324    9862019.08945   7684672.00661
 91  5 14 21 27 59.9980000  0  5G13G 2G15G 6G19
  22717242.6004   -4603462.68945  -1009759.15161
  20125879.5844    -941459.06448   -715848.27763
  23606665.123     -178469.114 5    -39305.01421
  20414281.326   -19903289.948 7 -15420105.36523
  22793842.0224    9895591.76445   7710832.45861
 91  5 14 21 28 14.9980000  0  5G13G 2G15G 6G19
  22705006.8574   -4667757.56145  -1059858.85961
  20125521.1544    -943316.91248   -717295.93763
  23601904.381     -203529.372 5    -58832.46121
  20409713.404   -19927289.282 7 -15438806.13323
  22800237.9124    9929218.26245   7737034.80761
 91  5 14 21 28 29.9980000  0  5G13G 2G15G 6G19
  22692775.412    -4732004.342 5  -1109921.06821
  20125185.0454    -945116.82448   -718698.46663
  23597152.506     -228483.694 5    -78277.33721
  20405154.725   -19951233.384 7 -15457463.85623
  22806649.7484    9962896.30145   7763277.33861
 91  5 14 21 28 44.9980000  0  5G13G 2G15G 6G19
  22680561.654    -4796202.971 5  -1159945.77021
  20124846.943     -946859.145 8   -720056.10623
  23592416.178     -253331.888 5    -97639.52521
  20400610.709   -19975122.079 7 -15476078.40923
  22813064.5684    9996625.65545   7789559.90161
 91  5 14 21 28 59.9980000  0  5G13G 2G15G 6G19
  22668353.584    -4860352.197 5  -1209932.01721
  20124530.6234    -948543.11748   -721368.29063
  23587717.170     -278072.889 5   -116918.18021
  20396075.584   -19998954.437 7 -15494649.05723
  22819500.959    10030407.302 5   7815883.15521
 91  5 14 21 29 14.9980000  0  5G13G 2G15G 6G19
  22656152.9434   -4924454.22345  -1259881.43261
  20124217.123     -950171.381 8   -722637.05223
  23583024.303     -302708.743 5   -136114.90421
  20391549.897   -20022732.763 7 -15513177.60723
  22825933.318    10064238.497 5   7842245.02221
 91  5 14 21 29 29.9980000  0  5G13G 2G15G 6G19
  22643963.9124   -4988509.08245  -1309794.10661
  20123922.0764    -951744.33748   -723862.73263
  23578356.4364    -327239.79645   -155229.94761
  20387036.4754  -20046457.07047 -15531664.07263
  22832382.9364   10098118.83945   7868645.19261
 91  5 14 21 29 44.9980000  0  5G13G 2G15G 6G19
  22631787.0064   -5052522.99245  -1359674.90661
  20123628.1314    -953268.85148   -725050.64863
  23573711.717     -351672.542 5   -174268.39821
  20382529.936   -20070134.175 7 -15550113.74623
  22838836.6624   10132041.36245   7895078.22961
 91  5 14 21 29 59.9980000  0  5G13G 2G15G 6G19
  22619611.2794   -5116502.09745  -1409528.55961
  20123348.6474    -954751.34948   -726205.83963
  23569073.701     -376012.845 5   -193234.79721
  20378031.779   -20093769.913 7 -15568531.18823
  22845297.006    10165999.739 5   7921539.20121
 91  5 14 21 30 14.9980000  0  5G13G 2G15G 6G19
  22607442.178    -5180442.202 5  -1459351.85821
  20123073.5144    -956188.23848   -727325.48263
  23564462.5224    -400256.78945   -212126.11761
  20373542.029   -20117360.748 7 -15586913.64623
  22851765.4904   10199997.45245   7948030.82161
 91  5 14 21 30 29.9980000  0  5G13G 2G15G 6G19
  22595284.357    -5244326.216 5  -1509131.41021
  20122815.2874    -957562.78748   -728396.56063
  23559873.029     -424387.563 5   -230929.27721
  20369063.436   -20140889.469 7 -15605247.70223
  22858252.100    10234051.388 5   7974566.26221
 91  5 14 21 30 44.9980000  0  5G13G 2G15G 6G19
  22583140.529    -5308135.285 5  -1558852.59521
  20122565.0614    -958856.47648   -729404.61563
  23555304.8574    -448386.35545   -249629.55361
  20364602.2724  -20164337.37547 -15623518.78963
  22864740.6234   10268179.96645   8001159.89461
 91  5 14 21 30 59.9980000  0  5G13G 2G15G 6G19
  22571012.0534   -5371871.16245  -1608516.73461
  20122338.9594    -960071.74648   -730351.57763
  23550764.8114    -472255.06245   -268228.47561
  20360158.1074  -20187706.58947 -15641728.55763
  22871252.061    10302380.833 5   8027809.81921
 91  5 14 21 31 14.9980000  0  5G13G 2G15G 6G19
  22558894.7644   -5435555.42645  -1658140.65961
  20122112.7324    -961230.49248   -731254.49163
  23546242.0374    -496015.12345   -286742.73861
  20355720.412   -20211018.735 7 -15659893.85223
  22877768.990    10336632.040 5   8054498.94221
 91  5 14 21 31 29.9980000  0  5G13G 2G15G 6G19
  22546789.1074   -5499192.67045  -1707727.96561
  20121908.1314    -962337.89548   -732117.39763
  23541735.889     -519671.424 5   -305176.16321
  20351295.639   -20234278.623 7 -15678018.42423
  22884295.342    10370928.379 5   8081223.28221
 91  5 14 21 31 44.9980000  0  5G13G 2G15G 6G19
  22534683.397    -5562786.019 5  -1757281.04321
  20121699.6624    -963397.65848   -732943.18263
  23537251.7254    -543227.26045   -323531.29961
  20346876.6074  -20257489.70947 -15696104.97663
  22890826.5224   10405266.18845   8107979.93261
 91  5 14 21 31 59.9980000  0  5G13G 2G15G 6G19
  22522585.8184   -5626338.87245  -1806802.58361
  20121510.6624    -964413.42248   -733734.68363
  23532793.459     -566686.160 5   -341810.91021
  20342468.5294  -20280655.29447 -15714156.07263
  22897373.701    10439641.894 4   8134766.06221
 91  5 14 21 32 14.9980000  0  5G13G 2G15G 6G19
  22510507.8814   -5689834.42445  -1856279.49661
  20121327.1074    -965369.05048   -734479.32763
  23528352.8264    -590031.17245   -360001.76061
  20338073.139   -20303758.807 7 -15732158.79923
  22903923.6474   10474071.75145   8161594.40661
 91  5 14 21 32 29.9980000  0  5G13G 2G15G 6G19
  22498435.131    -5753274.093 5  -1905712.85621
  20121156.4434    -966266.42248   -735178.56763
  23523927.818     -613264.015 5   -378105.21621
  20333687.022   -20326801.994 7 -15750114.51223
  22910489.7484   10508553.62545   8188463.33561
 91  5 14 21 32 44.9980000  0  5G13G 2G15G 6G19
  22486372.2954   -5816660.16845  -1955104.44861
  20120997.1234    -967108.33348   -735834.60663
  23519531.1704    -636387.24245   -396123.25061
  20329314.537   -20349787.279 7 -15768025.10923
  22917056.3814   10543084.84945   8215370.68561
 91  5 14 21 32 59.9980000  0  5G13G 2G15G 6G19
  22474321.748    -5879986.843 5  -2004449.74621
  20120848.2324    -967889.31248   -736443.14763
  23515151.4434    -659395.07945
  20324951.084   -20372709.041 7
  22923636.2874   10577670.76045   8242320.62561
 91  5 14 21 33 14.9980000  0  5G13G 2G15G 6G19
  22462281.2014   -5943253.71245  -2053748.43861
  20120709.6474    -968609.39648   -737004.25263
  23510795.201     -682287.589 5
  20320601.717   -20395567.111 7
  22930228.522    10612311.299 5   8269313.14721
 91  5 14 21 33 29.9980000  0  5G13G 2G15G 6G19
  22450252.8184   -6006457.79845  -2102998.24161
  20120585.6704    -969266.06148   -737515.93263
  23506464.2564    -705061.57745
  20316264.9284  -20418358.47447 -15821457.17163
  22936831.201    10647009.139 5   8296350.31821
 91  5 14 21 33 44.9980000  0  5G13G 2G15G 6G19
  22438235.061    -6069603.725 5  -2152202.72621
  20120474.5224    -969864.16648   -737981.98463
  23502154.8424    -727721.54045
  20311938.303   -20441087.843 7 -15839168.35123
  22943444.6934   10681759.29845   8323428.27661
 91  5 14 21 33 59.9980000  0  5G13G 2G15G 6G19
  22426237.662    -6132694.941 5  -2201364.55621
  20120369.6074    -970407.92748   -738405.68963
  23497851.0454    -750271.30245
  20307626.318   -20463759.187 7 -15856834.31923
  22950071.092    10716557.561 5   8350543.70021
 91  5 14 21 34 14.9980000  0  5G13G 2G15G 6G19
  22414241.1474   -6195726.29745  -2250479.74961
  20120274.8504    -970892.67348   -738783.40563
  23493587.7094    -772705.92045        -0.23171
  20303323.701   -20486367.469 7 -15874451.15223
  22956699.0454   10751408.67545   8377700.28261
 91  5 14 21 34 29.9980000  0  5G13G 2G15G 6G19
  22402254.2564   -6258703.88045  -2299553.03961
  20120194.2014    -971324.68848   -739120.03363
  23489332.9754    -795031.22145    -17396.49461
  20299030.865   -20508918.615 7 -15892023.46023
  22963342.1864   10786306.42445   8404893.24961
 91  5 14 21 34 44.9980000  0  5G13G 2G15G 6G19
  22390280.5534   -6321620.88745  -2348579.13461
  20120121.4984    -971697.68348   -739410.66863
  23485115.475     -817240.785 5    -34702.57021
  20294754.561   -20531406.127 7 -15909546.18423
  22969986.3184   10821256.98745   8432127.33761
 91  5 14 21 34 59.9980000  0  5G13G 2G15G 6G19
  22378316.662    -6384484.313 5  -2397563.48621
  20120063.3734    -972019.27948   -739661.25163
  23480907.9284    -839341.97845    -51924.21961
  20290485.3814  -20553837.37847 -15927025.07363
  22976647.9594   10856252.61245   8459396.53361
 91  5 14 21 35 14.9980000  0  5G13G 2G15G 6G19
  22366365.6004   -6447305.12145  -2446514.63261
  20120010.0064    -972300.76748   -739880.59063
  23476723.5924    -861345.75445    -69069.95561
  20286223.881   -20576223.367 7 -15944468.68023
  22983315.8034   10891282.05745   8486692.07761
 91  5 14 21 35 29.9980000  0  5G13G 2G15G 6G19
  22354423.1074   -6510072.23845  -2495423.91861
  20119966.5534    -972531.57648   -740060.43663
  23472554.529     -883240.839 5    -86130.98421
  20281975.334   -20598553.073 7 -15961868.43923
  22989993.1544   10926356.12345   8514022.42061
 91  5 14 21 35 44.9980000  0  5G13G 2G15G 6G19
  22342487.7324   -6572775.41645  -2544283.39061
  20119933.100     -972701.980 8
  23468410.615     -905017.247 5   -103099.52521
  20277738.912   -20620816.598 7 -15979216.62523
  22996676.967    10961484.418 5   8541395.00921
 91  5 14 21 35 59.9980000  0  5G13G 2G15G 6G19
  22330566.990    -6635414.112 5  -2593092.62921
  20119910.1154    -972811.70548
  23464289.9904    -926674.52145   -119975.26861
  20273514.881   -20643013.381 7 -15996512.80523
  23003372.037    10996667.166 5   8568809.98821
 91  5 14 21 36 14.9980000  0  5G13G 2G15G 6G19
  22318660.818    -6697990.282 5  -2641853.14021
  20119899.9364    -972863.36048
  23460180.553     -948214.809 5   -136759.84521
  20269303.615   -20665145.592 7 -16013758.66823
  23010077.4904   11031901.80445   8596265.43961
 91  5 14 21 36 29.9980000  0  5G13G 2G15G 6G19
  22306762.264    -6760502.003 5  -2690563.44421
  20119901.2724    -972855.42248
  23456110.850     -969636.619 6   -153452.08321
  20265103.912   -20687211.551 7 -16030952.90623
  23016795.365    11067189.814 5   8623762.49521
 91  5 14 21 36 44.9980000  0  5G13G 2G15G 6G19
  22294878.537    -6822949.802 5  -2739223.92121
  20119916.8734    -972788.70148
  23452065.037     -990940.466 6   -170052.44221
  20260917.897   -20709211.894 7 -16048096.01723
  23023514.842    11102530.208 5   8651300.35921
 91  5 14 21 36 59.9980000  0  5G13G 2G15G 6G19
  22283006.193    -6885335.205 5  -2787835.80721
  20119937.9364    -972665.54848
  23448031.3114   -1012128.12446   -186562.23561
  20256744.092   -20731148.541 7 -16065189.49723
  23030253.1314   11137920.86645   8678877.38061
 91  5 14 21 37 14.9980000  0  5G13G 2G15G 6G19
  22271149.8974   -6947654.98545  -2836396.53461
  20119970.9754    -972482.93948
  23444023.795    -1033196.155 5   -202978.81221
  20252580.545   -20753018.049 7 -16082230.65423
  23036991.0374   11173364.67345   8706495.81261
 91  5 14 21 37 29.9980000  0  5G13G 2G15G 6G19
  22259306.764    -7009909.908 5  -2884906.71721
  20120017.764     -972242.054 8
  23440032.2954   -1054145.68245   -219303.04861
  20248432.928   -20774821.505 7 -16099220.34823
  23043750.006    11208860.446 5   8734154.73921
 91  5 14 21 37 44.9980000  0  5G13G 2G15G 6G19
  22247471.256    -7072092.559 5  -2933360.59521
  20120078.6234    -971936.15248   -739596.40663
  23436074.732    -1074969.668 5   -235529.48721
  20244297.201   -20796551.907 7 -16116153.11023
  23050516.334    11244414.871 5   8761859.37521
 91  5 14 21 37 59.9980000  0  5G13G 2G15G 6G19
  22235642.0684   -7134248.14045  -2981793.39461
  20120139.5614    -971610.95148   -739342.98963
  23432127.5294   -1095713.17245   -251693.19561
  20240166.186   -20818254.466 7 -16133064.18023
  23057287.264    11279982.376 5   8789574.21221
 91  5 14 21 38 14.9980000  0  5G13G 2G15G 6G19
  22223826.1624   -7196340.52245  -3030176.92961
  20120215.4434    -971230.63248   -739046.63563
  23428192.147    -1116340.452 5   -267766.37621
  20236049.420   -20839893.177 7 -16149925.49523
  23064062.9284   11315598.69945   8817327.07361
 91  5 14 21 38 29.9980000  0  5G13G 2G15G 6G19
  22212021.248    -7258366.932 5  -3078509.07021
  20120295.1544    -970792.82548   -738705.47663
  23424294.4754   -1136848.68345   -283746.73861
  20231943.647   -20861465.506 7 -16166735.08723
  23070849.7014   11351266.20845   8845119.81361
 91  5 14 21 38 44.9980000  0  5G13G 2G15G 6G19
  22200231.1234   -7320326.01745  -3126788.72161
  20120389.1544    -970296.70548   -738318.88763
  23420416.8974   -1157236.82245   -299633.54861
  20227852.693   -20882970.296 7 -16183492.04723
  23077648.5224   11386985.60345   8872953.01461
 91  5 14 21 38 59.9980000  0  5G13G 2G15G 6G19
  22188452.9044   -7382221.15345  -3175018.54561
  20120493.6784    -969745.75948   -737889.57163
  23416548.545    -1177507.606 5   -315428.93221
  20223771.014   -20904410.571 7 -16200198.74223
  23084453.8504   11422753.46145   8900823.94461
 91  5 14 21 39 14.9980000  0  5G13G 2G15G 6G19
  22176688.357    -7444051.408 5  -3223197.82021
  20120608.8424    -969139.67748   -737417.29363
  23412714.553    -1197660.646 5   -331132.51921
  20219704.803   -20925785.848 7 -16216854.78923
  23091271.764    11458570.242 5   8928732.99321
 91  5 14 21 39 29.9980000  0  5G13G 2G15G 6G19
  22164935.623    -7505815.437 5  -3271325.51021
  20120736.5224    -968477.67048   -736901.43863
  23408900.2644   -1217694.90345   -346743.59161
  20215649.8974  -20947095.12747 -16233459.40763
  23098097.334    11494436.608 5   8956680.69121
 91  5 14 21 39 44.9980000  0  5G13G 2G15G 6G19
  22153193.404    -7567512.296 5  -3319400.82421
  20120874.5144    -967759.20548   -736341.59463
  23405129.420    -1237609.725 5   -362261.56721
  20211606.3344  -20968337.51547 -16250011.90763
  23104928.506    11530352.962 5   8984667.34921
 91  5 14 21 39 59.9980000  0  5G13G 2G15G 6G19
  22141467.295    -7629141.021 5  -3367423.08121
  20121020.3654    -966984.02448   -735737.54963
  23401348.334    -1257404.492 5   -377685.99321
  20207578.022   -20989512.392 7 -16266511.80023
  23111774.154    11566319.676 5   9012693.26021
 91  5 14 21 40 14.9980000  0  5G13G 2G15G 6G19
  22129751.147    -7690702.743 5  -3415393.12821
  20121180.0064    -966153.45548   -735090.34963
  23397611.7014   -1277080.12945   -393017.62261
  20203560.092   -21010620.834 7 -16282959.91723
  23118628.1474   11602335.36545   9040757.30461
 91  5 14 21 40 29.9980000  0  5G13G 2G15G 6G19
  22118049.6784   -7752192.27445  -3463306.91461
  20121348.5224    -965262.80048   -734396.32763
  23393890.2724   -1296631.63945   -408252.50261
  20199557.9904  -21031657.92047 -16299352.45563
  23125494.4824   11638404.64345   9068863.10861
 91  5 14 21 40 44.9980000  0  5G13G 2G15G 6G19
  22106362.232    -7813612.593 5  -3511166.76621
  20121528.5374    -964315.15448   -733657.89063
  23390184.647    -1316061.961 5   -423392.94621
  20195569.6154  -21052626.59547 -16315691.66563
  23132363.717    11674524.241 5   9097008.14821
 91  5 14 21 40 59.9980000  0  5G13G 2G15G 6G19
  22094685.451    -7874964.812 5  -3558973.55921
  20121718.5614    -963312.24048   -732876.39963
  23386513.436    -1335372.509 5   -438440.07121
  20191589.0374  -21073528.10847 -16331978.54563
  23139244.451    11710692.576 5   9125191.16621
 91  5 14 21 41 14.9980000  0  5G13G 2G15G 6G19
  22083027.9824   -7936241.89946  -3606721.81761
  20121920.1704    -962247.75948   -732046.92863
  23382863.9984   -1354556.58345   -453388.66261
  20187625.2174  -21094355.79947 -16348207.90663
  23146137.615    11746916.030 5   9153417.10421
 91  5 14 21 41 29.9980000  0  5G13G 2G15G 6G19
  22071379.5684   -7997449.33345  -3654415.79561
  20122133.8424    -961127.60148   -731174.07763
  23379237.2324   -1373619.66645   -468242.96261
  20183675.7794  -21115115.28147 -16364384.11963
  23153048.522    11783188.613 5   9181681.34021
 91  5 14 21 41 44.9980000  0  5G13G 2G15G 6G19
  22059742.397    -8058587.888 5  -3702056.09121
  20122357.4824    -959952.93848   -730258.75363
  23375630.0064   -1392562.67245   -483003.68461
  20179738.2484  -21135807.56447 -16380507.96663
  23159950.748    11819509.039 5   9209982.83621
 91  5 14 21 41 59.9980000  0  5G13G 2G15G 6G19
  22048123.123    -8119654.300 5  -3749640.20321
  20122591.1624    -958720.78948   -729298.63063
  23372047.701    -1411382.496 5   -497668.45321
  20175814.709   -21156429.438 7 -16396576.94723
  23166878.3894   11855880.22345   9238323.88961
 91  5 14 21 42 14.9980000  0  5G13G 2G15G 6G19
  22036517.4674   -8180647.07545  -3797166.89361
  20122837.7014    -957430.34348   -728293.08563
  23368495.6544   -1430078.06945   -512236.38061
  20171904.0374  -21176979.76447 -16412590.17763
  23173806.9124   11892303.11245   9266705.24861
 91  5 14 21 42 29.9980000  0  5G13G 2G15G 6G19
  22024926.7564   -8241565.85846  -3844635.96261
  20123095.8734    -956081.59748   -727242.11063
  23364957.0144   -1448648.78745   -526707.02961
  20168006.123   -21197458.048 7 -16428547.26823
  23180749.8184   11928777.67145   9295126.85061
 91  5 14 21 42 44.9980000  0  5G13G 2G15G 6G19
  22013347.115    -8302413.649 6  -3892049.70721
  20123361.2094    -954677.92148   -726148.32963
  23361443.9364   -1467098.06845   -541083.05361
  20164122.654   -21217867.639 7 -16444450.83323
  23187696.389    11965300.399 5   9323585.98321
 91  5 14 21 42 59.9980000  0  5G13G 2G15G 6G19
  22001778.482    -8363188.937 6  -3939406.97021
  20123639.9364    -953218.33648   -725010.98363
  23357959.7724   -1485424.49145   -555363.33161
  20160253.7644  -21238207.00847 -16460299.68063
  23194658.678    12001872.440 5   9352083.53221
 91  5 14 21 43 14.9980000  0  5G13G 2G15G 6G19
  21990229.232    -8423895.867 6  -3986710.95121
  20123926.0924    -951707.34048   -723833.58363
  23354493.6544   -1503632.16045   -569551.07361
  20156393.8114  -21258480.38047 -16476097.10363
  23201626.7794   12038489.09245   9380615.88461
 91  5 14 21 43 29.9980000  0  5G13G 2G15G 6G19
  21978689.7954   -8484531.25746  -4033959.20361
  20124224.365     -950142.128 8   -722613.92623
  23351049.850    -1521717.963 5   -583643.85821
  20152550.131   -21278684.809 7 -16491840.80223
  23208601.9984   12075153.26745   9409185.27261
 91  5 14 21 43 44.9980000  0  5G13G 2G15G 6G19
  21967163.6394   -8545089.54046  -4081147.36661
  20124534.0294    -948517.85648   -721348.25763
  23347627.3114   -1539676.77845   -597637.69161
  20148719.678   -21298815.128 7 -16507526.75023
  23215588.857    12111869.809 5   9437795.41821
 91  5 14 21 43 59.9980000  0  5G13G 2G15G 6G19
  21955654.014    -8605572.092 6  -4128276.50521
  20124853.6474    -946836.04247   -720037.74563
  23344243.3424   -1557510.24645   -611533.84361
  20144902.865   -21318872.668 7 -16523155.98823
  23222586.920    12148637.083 5   9466445.10221
 91  5 14 21 44 14.9980000  0  5G13G 2G15G 6G19
  21944162.7094   -8665980.49446  -4175347.87461
  20125185.3574    -945098.83247   -718684.07263
  23340874.0144   -1575219.93045   -625333.54261
  20141099.5064  -21338859.19847 -16538729.90063
  23229593.4044   12185452.78045   9495132.53661
 91  5 14 21 44 29.9980000  0  5G13G 2G15G 6G19
  21932678.1004   -8726313.79446  -4222360.71261
  20125524.5144    -943305.58747   -717286.72863
  23337522.834    -1592805.252 5   -639036.34221
  20137309.3814  -21358773.86947 -16554247.80963
  23236610.3814   12222317.45344   9523858.11761
 91  5 14 21 44 44.9980000  0  5G13G 2G15G 6G19
  21921211.256    -8786570.098 6  -4269313.56221
  20125878.8344    -941454.85647   -715844.59963
  23334204.201    -1610264.111 5   -652640.59421
  20133533.615   -21378614.847 7 -16569708.30323
  23243629.568    12259232.593 5   9552623.04021
 91  5 14 21 44 59.9980000  0  5G13G 2G15G 6G19
  21909763.600    -8846749.867 6  -4316206.78021
  20126241.8814    -939547.76247   -714358.54463
  23330904.4124   -1627597.44545   -666147.04961
  20129771.615   -21398382.837 7 -16585111.91523
  23250672.459    12296197.375 5   9581426.63821
 91  5 14 21 45 14.9980000  0  5G13G 2G15G 6G19
  21898323.9514   -8906851.79046  -4363039.33361
  20126614.3654    -937583.42947   -712827.89063
  23327637.1704   -1644804.07145   -679554.74861
  20126023.732   -21418076.694 7 -16600457.75923
  23257711.3894   12333212.56745   9610269.51161
 91  5 14 21 45 29.9980000  0  5G13G 2G15G 6G19
  21886900.8034   -8966882.05946  -4409816.03261
  20126996.9904    -935568.37147   -711257.71163
  23324374.100    -1661890.301 5   -692868.65421
  20122290.897   -21437702.858 7 -16615750.85923
  23264762.256    12370271.315 4   9639146.33021
 91  5 14 21 45 44.9980000  0  5G13G 2G15G 6G19
  21875493.9124   -9026832.74546  -4456530.72861
  20127392.7484    -933494.92647   -709642.03663
  23321153.107    -1678848.128 5   -706082.50621
  20118570.037   -21457253.342 7 -16630984.98123
  23271820.6864   12407381.34244   9668063.09861
 91  5 14 21 45 59.9980000  0  5G13G 2G15G 6G19
  21864098.147    -9086707.632 6  -4503186.38221
  20127795.9514    -931367.49547   -707984.29063
  23317939.5294   -1695681.65245   -719199.48661
  20114862.842   -21476732.089 7 -16646163.21423
  23278895.818    12444538.283 5   9697016.43221
 91  5 14 21 46 14.9980000  0  5G13G 2G15G 6G19
  21852719.389    -9146503.005 6  -4549780.04021
  20128212.615     -929182.793 7   -706281.91723
  23314776.6934   -1712387.37645   -732216.89661
  20111171.287   -21496135.651 7 -16661282.85523
  23285972.4904   12481745.43345   9726008.90061
 91  5 14 21 46 29.9980000  0  5G13G 2G15G 6G19
  21841355.0684   -9206219.81446  -4596312.47161
  20128638.6394    -926942.20647   -704536.00263
  23311614.3504   -1728966.65045   -745135.77461
  20107492.600   -21515465.146 7 -16676344.78223
  23293067.006    12519001.288 4   9755039.30421
 91  5 14 21 46 44.9980000  0  5G13G 2G15G 6G19
  21830008.4674   -9265858.99246  -4642784.41261
  20129075.6934    -924647.29547   -702747.75163
  23308479.357    -1745420.576 5   -757956.99821
  20103827.756   -21534721.841 7 -16691349.98223
  23300161.022    12556304.307 4   9784106.44821
 91  5 14 21 46 59.9980000  0  5G13G 2G15G 6G19
  21818673.0144   -9325418.65846  -4689194.40961
  20129522.6004    -922296.46247   -700915.92963
  23305382.381    -1761747.390 5   -770679.16621
  20100177.2174  -21553903.67547 -16706296.85563
  23307271.4674   12593656.10944   9813211.60661
 91  5 14 21 47 14.9980000  0  5G13G 2G15G 6G19
  21807352.397    -9384899.358 6  -4735542.87121
  20129982.3504    -919890.48347   -699041.13663
  23302290.0064   -1777947.52145   -783302.60661
  20096540.506   -21573011.435 7 -16721186.00623
  23314387.295    12631055.661 5   9842354.01321
 91  5 14 21 47 29.9980000  0  5G13G 2G15G 6G19
  21796049.1234   -9444299.31946  -4781828.41061
  20130449.6394    -917428.19647   -697122.46563
  23299228.8814   -1794019.62745   -795826.31361
  20092919.459   -21592043.416 7 -16736016.10523
  23321516.678    12668504.252 4   9871534.59421
 91  5 14 21 47 44.9980000  0  5G13G 2G15G 6G19
  21784761.412    -9503619.745 6  -4828051.99921
  20130931.0764    -914911.07147   -695161.06263
  23296198.8894   -1809964.89745   -808251.17061
  20089311.842   -21611000.911 7 -16750788.16523
  23328648.0684   12706000.40444   9900752.26261
 91  5 14 21 47 59.9980000  0  5G13G 2G15G 6G19
  21773490.3424   -9562858.59446  -4874212.00561
  20131418.8814    -912337.61847   -693155.77063
  23293189.990    -1825781.238 5   -820575.56621
  20085719.147   -21629882.123 7 -16765500.77923
  23335789.451    12743545.413 4   9930007.96721
 91  5 14 21 48 14.9980000  0  5G13G 2G15G 6G19
  21762230.2724   -9622020.31846  -4920311.91661
  20131920.3114    -909712.40148   -691110.14163
  23290207.498    -1841473.390 5   -832803.15621
  20082139.3034  -21648691.50547 -16780157.42863
  23342946.0684   12781134.63444   9959298.11961
 91  5 14 21 48 29.9980000  0  5G13G 2G15G 6G19
  21750987.092    -9681100.003 6  -4966347.90021
  20132429.3504    -907031.33347   -689020.98863
  23287243.9824   -1857036.79545   -844930.50161
  20078573.967   -21667424.504 7 -16794754.55023
  23350112.5684   12818772.38244   9988626.08761
 91  5 14 21 48 44.9980000  0  5G13G 2G15G 6G19
  21739759.3424   -9740101.47046  -5012322.94561
  20132949.7794    -904298.81748   -686891.75663
  23284309.123    -1872475.432 5   -856960.56121
  20075023.904   -21686085.000 7 -16809295.18223
  23357279.6704   12856454.27045  10017988.47261
 91  5 14 21 48 59.9980000  0  5G13G 2G15G 6G19
  21728550.2174   -9799020.87546  -5058234.04461
  20133478.5764    -901511.31947   -684719.66763
  23281397.1234   -1887785.93045   -868890.76961
  20071486.9514  -21704669.55247 -16823776.64663
  23364463.701    12894183.575 4  10047387.81021
 91  5 14 21 49 14.9980000  0  5G13G 2G15G 6G19
  21717353.3654   -9857856.24346  -5104079.65661
  20134020.1784    -898667.02048   -682503.33063
  23278501.4124   -1902966.30945   -880719.65261
  20067965.701   -21723175.962 7 -16838197.20423
  23371649.764    12931962.028 4  10076825.43521
 91  5 14 21 49 29.9980000  0  5G13G 2G15G 6G19
  21706171.881    -9916610.173 6  -5149861.80921
  20134570.5374    -895768.96748   -680245.10163
  23275624.9044   -1918018.78645   -892448.80261
  20064459.186   -21741606.942 7 -16852558.99623
  23378851.2644   12969786.61643  10106298.98661
 91  5 14 21 49 44.9980000  0  5G13G 2G15G 6G19
  21695006.3894   -9975280.46546  -5195578.79461
  20135132.5764    -892815.51048   -677943.70563
  23272800.654    -1932942.016 5   -904077.28721
  20060966.084   -21759960.547 7 -16866860.49323
  23386054.8264   13007658.84544  10135809.65661
 91  5 14 21 49 59.9970000  0  5G13G 2G15G 6G19
  21683858.728   -10033864.548 6  -5241228.60421
  20135706.1814    -889808.61348   -675600.66363
  23269981.5014   -1947736.34745   -915605.27061
  20057487.376   -21778237.067 7 -16881101.92223
  23393272.9854   13045574.44845  10165354.12561
 91  5 14 21 50 14.9970000  0  5G13G 2G15G 6G19
  21672724.7594  -10092368.44246  -5286815.91961
  20136289.6034    -886746.54048   -673214.63663
  23267192.892    -1962401.899 5   -927032.96721
  20054023.189   -21796437.221 7 -16895283.84623
  23400493.5714   13083539.81044  10194937.40461
 91  5 14 21 50 29.9970000  0  5G13G 2G15G 6G19
  21661609.939   -10150786.784 6  -5332336.57921
  20136882.6814    -883628.45748   -670784.95263
  23264424.696    -1976936.756 5   -938358.79421
  20050577.8994  -21814558.62547 -16909404.41163
  23407731.634    13121553.280 4  10224558.16121
 91  5 14 21 50 44.9970000  0  5G13G 2G15G 6G19
  21650510.2824  -10209118.81346  -5377789.98561
  20137486.7824    -880453.83248   -668311.21863
  23261689.704    -1991340.291 5   -949582.28121
  20047143.306   -21832600.509 7 -16923463.00723
  23414969.7674   13159615.42344  10254216.86461
 91  5 14 21 50 59.9970000  0  5G13G 2G15G 6G19
  21639423.4154  -10267365.20046  -5423176.67061
  20138101.1894    -877223.78348   -665794.29563
  23258971.2434   -2005613.23145   -960704.05261
  20043723.696   -21850563.638 7 -16937460.23823
  23422223.2514   13197725.20744  10283912.63361
 91  5 14 21 51 14.9970000  0  5G13G 2G15G 6G19
  21628357.0174  -10325527.38446  -5468497.73061
  20138725.9394    -873940.38148   -663235.80063
  23256272.556    -2019757.123 5   -971725.22721
  20040321.4784  -21868449.66147 -16951397.39063
  23429486.040    13235880.481 4  10313643.88821
 91  5 14 21 51 29.9970000  0  5G13G 2G15G 6G19
  21617305.079   -10383604.670 6  -5513752.64021
  20139360.454     -870603.266 8   -660635.44123
  23253622.8684   -2033771.43245   -982645.44661
  20036931.9704  -21886258.01847 -16965274.02363
  23436756.712    13274081.335 4  10343410.65521
 91  5 14 21 51 44.9970000  0  5G13G 2G15G 6G19
  21606266.993   -10441593.993 6  -5558939.01221
  20140006.4854    -867209.70648   -657991.10863
  23250973.439    -2047653.469 5   -993462.55221
  20033559.2514  -21903985.75647 -16979087.83863
  23444027.7824   13312330.44244  10373215.02161
 91  5 14 21 51 59.9970000  0  5G13G 2G15G 6G19
  21595250.1494  -10499497.92146  -5604058.83961
  20140663.2434    -863762.67748   -655305.10763
  23248343.3924   -2061406.07245  -1004178.85361
  20030199.5564  -21921635.59947 -16992840.94863
  23451322.0244   13350624.81544  10403054.65561
 91  5 14 21 52 14.9970000  0  5G13G 2G15G 6G19
  21584247.4784  -10557319.38246  -5649114.40961
  20141327.9544    -860265.73348   -652580.21663
  23245757.790    -2075032.376 5  -1014796.71021
  20026854.7744  -21939210.77547 -17006535.88263
  23458613.181    13388960.979 4  10432926.83221
 91  5 14 21 52 29.9970000  0  5G13G 2G15G 6G19
  21573264.353   -10615053.020 6  -5694101.55121
  20142003.8374    -856713.94548   -649812.58763
  23243194.243    -2088526.995 5  -1025311.92621
  20023525.6894  -21956706.16447 -17020168.64163
  23465923.384    13427343.888 4  10462835.44321
 91  5 14 21 52 44.9970000  0  5G13G 2G15G 6G19
  21562292.571   -10672696.934 6  -5739018.78121
  20142689.1574    -853105.60448   -647000.89063
  23240655.8994   -2101888.37645  -1035723.38861
  20020212.1264  -21974119.56147 -17033737.51763
  23473231.071    13465775.088 4  10492781.69021
 91  5 14 21 52 59.9970000  0  5G13G 2G15G 6G19
  21551339.587   -10730251.881 6  -5783866.68721
  20143385.7984    -849442.07848   -644146.19463
  23238123.5564   -2115117.45845  -1046031.72861
  20016912.7744  -21991452.03147 -17047243.32563
  23480555.423    13504253.282 3  10522764.53521
 91  5 14 21 53 14.9970000  0  5G13G 2G15G 6G19
  21540401.868   -10787716.606 6  -5828644.29621
  20144095.1494    -845722.38148   -641247.72963
  23235630.704    -2128213.147 5  -1056236.09821
  20013633.4784  -22008702.39247 -17060685.15963
  23487885.712    13542779.163 3  10552784.56721
 91  5 14 21 53 29.9970000  0  5G13G 2G15G 6G19
  21529487.423   -10845089.932 6  -5873350.67521
  20144814.4854    -841945.73948   -638304.88763
  23233177.6654   -2141174.43945  -1066335.76861
  20010363.6734  -22025869.75847 -17074062.31463
  23495227.5644   13581353.61244  10582842.45361
 91  5 14 21 53 44.9970000  0  5G13G 2G15G 6G19
  21518586.829   -10902378.481 6  -5917990.99421
  20145542.2594    -838119.33748   -635323.27463
  23230729.3294   -2154008.21445  -1076336.06561
  20007112.9394  -22042960.83847 -17087380.03763
  23502574.5644   13619969.30644  10612932.44261
 91  5 14 21 53 59.9970000  0  5G13G 2G15G 6G19
  21507699.8534  -10959580.02346  -5962563.52961
  20146281.2124    -834241.17548   -632301.33063
  23228304.5324   -2166712.32845  -1086235.33761
  20003877.2824  -22059973.43347 -17100636.59763
  23509932.9854   13658628.08543  10643056.05061
 91  5 14 21 54 14.9970000  0  5G13G 2G15G 6G19
  21496832.814   -11016691.238 6  -6007065.66221
  20147026.7904    -830308.26248   -629236.71963
  23225921.0794   -2179283.58445  -1096031.08161
  20000653.8994  -22076904.27247 -17113829.45063
  23517296.3994   13697332.96344  10673215.54861
 91  5 14 21 54 29.9970000  0  5G13G 2G15G 6G19
  21485981.9464  -11073710.03146  -6051495.79461
  20147787.9934    -826319.16348   -626128.33063
  23223553.5644   -2191720.50645  -1105722.15561
  19997448.0714  -22093751.61847 -17126957.24963
  23524675.384    13736085.410 3  10703412.10821
 91  5 14 21 54 44.9970000  0  5G13G 2G15G 6G19
  21475151.009   -11130639.404 6  -6095856.24421
  20148556.1654    -822277.07748   -622978.65163
  23221209.681    -2204026.006 5  -1115310.82221
  19994256.7284  -22110518.52847 -17140022.36463
  23532053.876    13774882.184 4  10733643.22621
 91  5 14 21 54 59.9970000  0  5G13G 2G15G 6G19
  21464332.814   -11187478.284 6  -6140146.17421
  20149334.8294    -818181.39448   -619787.21263
  23218895.884    -2216199.021 5  -1124796.25421
  19991080.7984  -22127203.93447 -17153023.97063
  23539447.3604   13813723.83644  10763909.35661
 91  5 14 21 55 14.9970000  0  5G13G 2G15G 6G19
  21453529.720   -11244226.189 6  -6184365.21921
  20150125.9934    -814032.08548   -616553.98563
  23216604.774    -2228239.311 5  -1134178.24721
  19987920.6964  -22143807.45647 -17165961.77163
  23546843.5644   13852610.42144  10794210.44261
 91  5 14 21 55 29.9970000  0  5G13G 2G15G 6G19
  21442747.821   -11300882.234 6  -6228512.68521
  20150925.2284    -809828.68748   -613278.60663
  23214345.8684   -2240146.41245  -1143456.49361
  19984777.7044  -22160328.49947 -17178835.30463
  23554256.4314   13891542.18043  10824546.78561
 91  5 14 21 55 44.9970000  0  5G13G 2G15G 6G19
  21431989.704   -11357444.254 6  -6272586.87021
  20151735.7984    -805569.66348   -609959.88963
  23212099.649    -2251918.472 5  -1152629.47121
  19981650.3684  -22176765.21247 -17191643.12763
  23561670.743    13930520.635 3  10854919.46421
 91  5 14 21 55 59.9970000  0  5G13G 2G15G 6G19
  21421246.3064  -11413911.68146  -6316587.37761
  20152558.5174    -801254.72348   -606597.59963
  23209889.2594   -2263554.82945  -1161696.72561
  19978539.8534  -22193116.88847 -17204384.68363
  23569098.376    13969546.123 3  10885328.80521
 91  5 14 21 56 14.9970000  0  5G13G 2G15G 6G19
  21410516.962   -11470286.534 6  -6360515.72221
  20153388.3454    -796886.16148   -603193.52263
  23207693.2124   -2275057.86845  -1170660.11761
  19975443.8764  -22209385.72047 -17217061.69063
  23576535.0404   14008616.15643  10915772.85961
 91  5 14 21 56 29.9970000  0  5G13G 2G15G 6G19
  21399805.1654  -11526568.56346  -6404371.75261
  20154230.5644    -792463.95048   -599747.64164
  23205535.735    -2286427.425 5  -1179519.47621
  19972362.0714  -22225571.51347 -17229673.98463
  23583976.7514   14047730.44943  10946251.39061
 91  5 14 21 56 44.9970000  0  5G13G 2G15G 6G19
  21389109.4624  -11582756.59146  -6448154.53961
  20155082.9154    -787987.49748   -596259.49963
  23203395.899    -2297662.313 5  -1188273.89121
  19969299.5874  -22241673.34147 -17242220.85963
  23591430.814    14086889.753 3  10976764.99821
 91  5 14 21 56 59.9970000  0  5G13G 2G15G 6G19
  21378436.946   -11638851.415 6  -6491864.68621
  20155943.0874    -783458.07548   -592730.08163
  23201284.3374   -2308764.04445  -1196924.56161
  19966251.9934  -22257692.04647 -17254702.96363
  23598894.228    14126092.769 3  11007312.66721
 91  5 14 21 57 14.9970000  0  4G13G 2G15G 6
  21367780.415   -11694854.606 6  -6535503.43721
  20156814.8064    -778877.84448   -589161.07063
  23199196.7434   -2319734.40545  -1205472.87561
  19963217.9544  -22273629.35647 -17267121.63863
 91  5 14 21 57 29.9970000  0  4G13G 2G15G 6
  21357141.0324  -11750761.39046  -6579067.07361
  20157698.6734    -774242.14248   -585548.84063
  23197136.8764   -2330568.38545  -1213914.91761
  19960201.8844  -22289480.52347 -17279473.19263
 91  5 14 21 57 44.9970000  0  4G13G 2G15G 6
  21346522.0644  -11806576.62846  -6622559.37761
  20158588.3064    -769556.38548   -581897.60363
  23195091.5714   -2341271.32345  -1222254.81561
  19957201.1034  -22305250.68547 -17291761.62163
 91  5 14 21 57 59.9970000  0  4G13G 2G15G 6
  21335917.7284  -11862295.88546  -6665976.88461
  20159490.8534    -764816.43148   -578204.13563
  23193082.2434   -2351838.97145  -1230489.32161
  19954215.2744  -22320935.55447 -17303983.59163
 91  5 14 21 58 14.9970000  0  4G13G 2G15G 6
  21325333.3064  -11917920.56746  -6709320.69561
  20160402.7044    -760023.83348   -574469.64663
  23191097.337    -2362272.707 5  -1238619.48621
  19951247.2594  -22336536.26047 -17316139.98063
 91  5 14 21 58 29.9970000  0  4G13G 2G15G 6
  21314766.892   -11973448.542 6  -6752589.16921
  20161327.0564    -755176.98748   -570692.89163
  23189135.6184   -2372570.81645  -1246643.95161
  19948294.6344  -22352051.08947 -17328229.45163
 91  5 14 21 58 44.9970000  0  4G13G 2G15G 6
  21304214.712   -12028881.248 6  -6795783.39921
  20162258.4544    -750277.86448   -566875.39463
  23187212.5794   -2382735.00845  -1254564.07161
  19945359.3454  -22367481.65747 -17340253.26363
 91  5 14 21 58 59.9970000  0  4G13G 2G15G 6
  21293685.2744  -12084217.07146  -6838902.12861
  20163200.8454    -745325.09248   -563016.09663
  23185292.2744   -2392763.69245  -1262378.62761
  19942440.1894  -22382826.16347 -17352210.02363
 91  5 14 21 59 14.9970000  0  4G13G 2G15G 6
  21283174.493   -12139452.634 6  -6881942.73821
  20164155.1034    -740316.00848   -559112.91763
  23183411.462    -2402654.108 5  -1270085.40921
  19939535.7204  -22398081.98547 -17364097.66563
 91  5 14 21 59 29.9970000  0  4G13G 2G15G 6
  21272682.712   -12194590.611 6  -6924907.31221
  20165116.5324    -735253.40248   -555168.03264
  23181554.024    -2412408.774 5  -1277686.40721
  19936650.1184  -22413251.43047 -17375918.00763
 91  5 14 21 59 44.9970000  0  4G13G 2G15G 6
  21262210.8214  -12249631.34446  -6967796.11061
  20166091.0644    -730138.12548   -551182.10364
  23179727.0714   -2422028.41345  -1285182.22361
  19933777.4784  -22428334.98147 -17387671.41363
 91  5 14 21 59 59.9970000  0  4G13G 2G15G 6
  21251753.587   -12304573.657 6  -7010608.22421
  20167073.0794    -724969.09748   -547154.28663
  23177916.540    -2431511.786 5  -1292571.84721
  19930924.3764  -22443331.42547 -17399356.94963
 91  5 14 22  0 14.9970000  0  4G13G 2G15G 6
  21241316.853   -12359421.865 6  -7053347.00021
  20168067.5404    -719751.16148   -543088.36763
  23176147.0564   -2440863.41645  -1299858.78861
  19928086.3214  -22458245.51747 -17410978.30863
 91  5 14 22  0 29.9970000  0  4G13G 2G15G 6
  21230897.0564  -12414172.59446  -7096009.82361
  20169069.7284    -714481.64048   -538982.24464
  23174390.7124   -2450080.49845  -1307040.93161
  19925266.7744  -22473074.09847 -17422533.03863
 91  5 14 22  0 44.9970000  0  4G13G 2G15G 6
  21220495.978   -12468824.621 6  -7138595.73021
  20170082.5174    -709159.53448   -534835.14364
  23172659.376    -2459161.802 5  -1314117.26821
  19922460.0244  -22487815.75847 -17434020.03163
 91  5 14 22  0 59.9970000  0  4G13G 2G15G 6
  21210117.720   -12523378.446 6  -7181105.12621
  20171105.7674    -703785.87348   -530647.87864
  23170956.610    -2468108.186 5  -1321088.45921
  19919670.5714  -22502471.24947 -17445439.88963
 91  5 14 22  1 14.9970000  0  4G13G 2G15G 6
  21199753.634   -12577834.467 6  -7223538.30321
  20172137.5484    -698361.18948   -526420.84764
  23169279.220    -2476920.288 5  -1327955.01321
  19916897.2674  -22517041.05947 -17456792.96963
 91  5 14 22  1 29.9970000  0  4G13G 2G15G 6
  21189410.235   -12632189.828 6  -7265893.05421
  20173178.4074    -692883.07848   -522152.19363
  23167637.009    -2485595.560 5  -1334714.95121
  19914142.7044  -22531522.52547 -17468077.22563
 91  5 14 22  1 44.9970000  0  4G13G 2G15G 6
  21179082.7044  -12686444.54646  -7308169.36061
  20174233.6424    -687351.86048   -517842.15364
  23166014.290    -2494134.019 5  -1341368.27121
  19911401.8534  -22545915.68647 -17479292.66263
 91  5 14 22  1 59.9970000  0  4G13G 2G15G 6
  21168782.032   -12740598.444 6  -7350367.13021
  20175294.1964    -681767.90448   -513491.01463
  23164405.181    -2502535.595 5  -1347914.93621
  19908682.1424  -22560220.48847 -17490439.25563
 91  5 14 22  2 14.9970000  0  4G13G 2G15G 6
  21158495.3924  -12794650.51146  -7392485.53061
  20176368.5714    -676130.54648   -509098.26764
  23162830.3764   -2510799.74145  -1354354.50661
  19905975.5404  -22574435.85247 -17501516.14563
 91  5 14 22  2 29.9970000  0  4G13G 2G15G 6
  21148228.0484  -12848600.57646  -7434524.45961
  20177450.6894    -670440.01948   -504664.08764
  23161288.657    -2518926.477 5  -1360686.99121
  19903288.6494  -22588561.96047 -17512523.49463
 91  5 14 22  2 44.9970000  0  4G13G 2G15G 6
  21137980.251   -12902450.224 6  -7476485.14721
  20178542.7514    -664698.03748   -500189.81664
  23159765.7904   -2526917.12245  -1366913.43461
  19900617.6814  -22602600.32347 -17523462.46663
 91  5 14 22  2 59.9970000  0  4G13G 2G15G 6
  21127755.876   -12956197.060 6  -7518365.72221
  20179644.0714    -658902.73548   -495673.98864
  23158274.1894   -2534770.03545  -1373032.55861
  19897960.853   -22616548.817 7 -17534331.41523
 91  5 14 22  3 14.9970000  0  4G13G 2G15G 6
  21117544.298   -13009843.779 6  -7560168.26921
  20180757.6964    -653057.03848   -491118.89864
  23156803.5644   -2542488.08445  -1379046.58861
  19895324.6654  -22630410.10947 -17545132.41363
 91  5 14 22  3 29.9970000  0  4G13G 2G15G 6
  21107353.267   -13063389.608 6  -7601892.21421
  20181879.9544    -647160.78748   -486524.41464
  23155362.4784   -2550070.55645  -1384954.98861
  19892702.1104  -22644183.57547 -17555864.97263
 91  5 14 22  3 44.9970000  0  4G13G 2G15G 6
  21097188.3844  -13116829.41846  -7643533.53661
  20183013.5014    -641209.10248   -481886.73564
  23153951.524    -2557512.626 5  -1390753.97221
  19890099.5644  -22657864.14347 -17566525.14263
 91  5 14 22  3 59.9970000  0  4G13G 2G15G 6
  21087036.6894  -13170166.65746  -7685094.93961
  20184153.9934    -635205.95548   -477208.95064
  23152557.970    -2564818.197 5  -1396446.61621
  19887513.564   -22671455.587 7 -17577115.86723
 91  5 14 22  4 14.9970000  0  4G13G 2G15G 6
  21076905.8454  -13223399.34846  -7726574.87761
  20185307.6894    -629149.56948   -472489.68863
  23151193.470    -2571985.303 5  -1402031.33221
  19884943.2904  -22684955.96447 -17587635.63563
 91  5 14 22  4 29.9970000  0  4G13G 2G15G 6
  21066796.540   -13276529.088 6  -7767974.59521
  20186468.3764    -623041.72048   -467730.32264
  23149851.376    -2579015.482 5  -1407509.36721
  19882391.5484  -22698366.73047 -17598085.57363
 91  5 14 22  4 44.9970000  0  4G13G 2G15G 6
  21056705.040   -13329556.733 6  -7809294.75021
  20187642.8684    -616883.82948   -462931.96464
  23148541.689    -2585910.146 5  -1412881.81421
  19879857.9074  -22711689.12847 -17608466.65163
 91  5 14 22  4 59.9970000  0  4G13G 2G15G 6
  21046634.345   -13382479.067 6  -7850532.86121
  20188822.9544    -610673.26648   -458092.55863
  23147267.837    -2592666.339 5  -1418146.35421
  19877339.6184  -22724920.12847 -17618776.51663
 91  5 14 22  5 14.9970000  0  4G13G 2G15G 6
  21036582.267   -13435296.431 6  -7891689.15821
  20190016.2204    -604410.59748   -453212.55663
  23145991.071    -2599284.656 5  -1423303.46021
  19874838.9544  -22738059.81247 -17629015.22563
 91  5 14 22  5 29.9970000  0  4G13G 2G15G 6
  21026553.814   -13488009.111 6  -7932763.89421
  20191216.2984    -598096.53348   -448292.50864
  23144766.782    -2605765.543 5  -1428353.49121
  19872356.0484  -22751108.75647 -17639183.22463
 91  5 14 22  5 44.9970000  0  4G13G 2G15G 6
  21016542.157   -13540612.652 6  -7973753.58821
  20192428.4234    -591726.97248   -443329.20864
  23143554.610    -2612104.823 5  -1433293.16121
  19869891.0014  -22764062.68247 -17649277.18563
 91  5 14 22  5 59.9970000  0  4G13G 2G15G 6
  21006552.954   -13593109.302 6  -8014659.99221
  20193649.7594    -585304.50048   -438324.68663
  23142383.7434   -2618305.00145  -1438124.46461
  19867445.1424  -22776924.02747 -17659299.00663
 91  5 14 22  6 14.9970000  0  4G13G 2G15G 6
  20996582.392   -13645500.789 6  -8055484.44821
  20194883.5094    -578831.35148   -433280.67264
  23141221.9624   -2624368.18445  -1442848.98461
  19865013.0954  -22789694.73247 -17669250.19563
 91  5 14 22  6 29.9970000  0  4G13G 2G15G 6
  20986632.923   -13697787.619 6  -8096227.35221
  20196124.7354    -572308.02048   -428197.55564
  23140092.9934   -2630294.84145  -1447467.15261
  19862601.8844  -22802374.91547 -17679130.85163
 91  5 14 22  6 44.9970000  0  4G13G 2G15G 6
  20976702.8604  -13749967.54946  -8136886.96461
  20197375.1814    -565732.72748   -423073.94864
  23138989.7744   -2636082.95145  -1451977.33761
  19860206.3144  -22814962.49047 -17688939.34763
 91  5 14 22  6 59.9970000  0  4G13G 2G15G 6
  20966792.853   -13802042.565 6  -8177464.82521
  20198635.6424    -559108.24948   -417912.01564
  23137921.9234   -2641735.11345  -1456381.60861
  19857828.5174  -22827460.05047 -17698677.70263
 91  5 14 22  7 14.9970000  0  4G13G 2G15G 6
  20956903.634   -13854010.443 6  -8217959.20021
  20199905.1344    -552432.38848   -412710.04464
  23136877.868    -2647248.957 5  -1460678.09521
  19855467.0324  -22839865.12247 -17708343.98363
 91  5 14 22  7 29.9970000  0  4G13G 2G15G 6
  20947034.806   -13905870.082 6  -8258369.22821
  20201186.9854    -545704.44248   -407467.49264
  23135841.892    -2652623.534 5  -1464866.03721
  19853123.3924  -22852176.82147 -17717937.51163
 91  5 14 22  7 44.9970000  0  4G13G 2G15G 6
  20937189.665   -13957622.026 6  -8298695.33821
  20202476.2124    -538925.08148   -402184.86963
  23134851.9624   -2657859.66345  -1468946.14161
  19850797.7824  -22864395.37247 -17727458.45163
 91  5 14 22  7 59.9970000  0  4G13G 2G15G 6
  20927360.798   -14009266.315 6  -8338937.56921
  20203776.1574    -532094.97948   -396862.72264
  23133878.0794   -2662957.97445  -1472918.81061
  19848490.9704  -22876521.28047 -17736907.20763
 91  5 14 22  8 14.9970000  0  4G13G 2G15G 6
  20917556.243   -14060799.018 6  -8379092.84921
  20205087.8214    -525210.68348   -391498.33764
  23132934.0644   -2667914.59345  -1476781.08261
  19846202.0484  -22888550.94247 -17746280.96663
 91  5 14 22  8 29.9970000  0  4G13G 2G15G 6
  20907767.782   -14112223.387 6  -8419163.70821
  20206406.2744    -518275.57348   -386094.35064
  23132027.931    -2672732.900 5  -1480535.59321
  19843930.9934  -22900487.35547 -17755582.06463
 91  5 14 22  8 44.9970000  0  4G13G 2G15G 6
  20898003.853   -14163540.196 6  -8459150.75721
  20207735.7984    -511290.40148   -380651.37064
  23131121.3534   -2677413.94945  -1484183.14361
  19841678.3144  -22912331.39647 -17764811.18463
 91  5 14 22  8 59.9970000  0  4G13G 2G15G 6
  20888257.993   -14214747.131 6  -8499052.18521
  20209073.6814    -504253.47048   -375168.04964
  23130259.970    -2681955.546 5  -1487721.99021
  19839442.7434  -22924080.94247 -17773966.67163
 91  5 14 22  9 14.9970000  0  4G13G 2G15G 6
  20878534.306   -14265846.446 6  -8538869.76121
  20210423.6344    -497167.53948   -369646.54764
  23129431.423    -2686360.486 5  -1491154.40821
  19837222.5484  -22935738.34047 -17783050.35363
 91  5 14 22  9 29.9970000  0  4G13G 2G15G 6
  20868831.689   -14316834.310 6  -8578600.48721
  20211780.4854    -490028.98848   -364084.04764
  23128621.821    -2690624.818 5  -1494477.24021
  19835021.9314  -22947299.74447 -17792059.23663
 91  5 14 22  9 44.9970000  0  4G13G 2G15G 6
  20859152.345   -14367712.596 6  -8618245.83221
  20213150.5014    -482840.02348   -358482.25363
  23127826.993    -2694750.578 5  -1497692.09321
  19832840.1894  -22958767.03947 -17800994.78663
 91  5 14 22  9 59.9970000  0  4G13G 2G15G 6
  20849490.431   -14418479.354 6  -8657804.27021
  20214528.3994    -475599.31948   -352840.15263
  23127072.2984   -2698736.48445  -1500797.96861
  19830676.9314  -22970138.67347 -17809855.79763
 91  5 14 22 10 14.9970000  0  4G13G 2G15G 6
  20839849.267   -14469133.832 6  -8697275.21421
  20215915.7284    -468306.25548   -347157.25363
  23126339.587    -2702581.972 5  -1503794.40921
  19828531.4234  -22981413.75247 -17818641.56863
 91  5 14 22 10 29.9970000  0  4G13G 2G15G 6
  20830230.439   -14519679.336 6  -8736661.24221
  20217311.0404    -460964.60948   -341436.48963
  23125637.1574   -2706290.69445  -1506684.32161
  19826404.4314  -22992595.83547 -17827354.87263
 91  5 14 22 10 44.9970000  0  4G13G 2G15G 6
  20820635.3454  -14570111.97046  -8775959.31961
  20218718.7044    -453570.75448   -335675.05163
  23124950.618    -2709858.799 5  -1509464.64321
  19824293.3994  -23003681.07647 -17835992.71963
 91  5 14 22 10 59.9970000  0  4G13G 2G15G 6
  20811057.946   -14620437.026 6  -8815173.56721
  20220133.1814    -446130.13848   -329877.17263
  23124309.118    -2713291.489 5  -1512139.42921
  19822199.8994  -23014674.87847 -17844559.31263
 91  5 14 22 11 14.9970000  0  4G13G 2G15G 6
  20801502.235   -14670649.579 6  -8854300.15921
  20221561.9234    -438638.40648   -324039.45863
  23123671.3214   -2716584.44445  -1514705.34661
  19820125.9154  -23025572.43647 -17853050.90663
 91  5 14 22 11 29.9970000  0  4G13G 2G15G 6
  20791969.259   -14720749.300 6  -8893338.82021
  20222996.4624    -431095.62348   -318161.97363
  23123078.4394   -2719737.90245  -1517162.59061
  19818071.9934  -23036373.42647 -17861467.25663
 91  5 14 22 11 44.9970000  0  4G13G 2G15G 6
  20782455.767   -14770733.102 6  -8932287.15621
  20224442.9234    -423498.95448   -312242.49463
  23122495.5794   -2722748.76345  -1519508.68861
  19816035.0014  -23047074.92947 -17869806.08463
 91  5 14 22 11 59.9970000  0  4G13G 2G15G 6
  20772968.415   -14820602.629 6  -8971146.45021
  20225896.7674    -415850.24447   -306282.46263
  23121949.774    -2725618.770 5  -1521745.02821
  19814018.9544  -23057678.64947 -17878068.71663
 91  5 14 22 12 14.9970000  0  4G13G 2G15G 6
  20763499.095   -14870362.373 6  -9009920.20921
  20227360.8924    -408154.32947   -300285.64863
  23121435.962    -2728352.528 5  -1523875.24121
  19812018.6894  -23068189.03047 -17886258.61863
 91  5 14 22 12 29.9970000  0  4G13G 2G15G 6
  20754050.3064  -14920008.75046  -9048605.60461
  20228836.4314    -400407.91247   -294249.48363
  23120943.579    -2730946.792 5  -1525896.73621
  19810037.259   -23078602.549 7 -17894373.04023
 91  5 14 22 12 44.9970000  0  4G13G 2G15G 6
  20744624.337   -14969540.896 6  -9087202.01521
  20230319.9074    -392610.64347   -288173.69163
  23120472.759    -2733401.207 5  -1527809.23421
  19808072.3994  -23088918.82947 -17902411.68863
 91  5 14 22 12 59.9970000  0  4G13G 2G15G 6
  20735221.7514  -15018958.08046  -9125708.84161
  20231812.9624    -384762.17747   -282058.00963
  23120029.9854   -2735715.30245  -1529612.43161
  19806128.360   -23099136.781 7 -17910373.71623
 91  5 14 22 13 14.9970000  0  4G13G 2G15G 6
  20725840.985   -15068260.368 6  -9164126.12821
  20233315.4544    -376862.95247   -275902.77063
  23119616.837    -2737889.204 5  -1531306.37521
  19804203.9464  -23109256.70747 -17918259.36263
 91  5 14 22 13 29.9970000  0  4G13G 2G15G 6
  20716481.071   -15117448.345 6  -9202454.34821
  20234828.7434    -368913.89947   -269708.70463
  23119233.103    -2739923.765 5  -1532891.72421
  19802298.2124  -23119279.67947 -17926069.46563
 91  5 14 22 13 44.9970000  0  4G13G 2G15G 6
  20707143.149   -15166517.985 6  -9240690.35421
  20236352.8214    -360911.13347   -263472.78463
  23118869.1814   -2741815.24845  -1534365.60361
  19800408.8144  -23129201.15147 -17933800.47563
 91  5 14 22 13 59.9970000  0  4G13G 2G15G 6
  20697829.110   -15215469.751 6  -9278834.51321
  20237886.2044    -352855.37347   -257195.56863
  23118535.4704   -2743564.54945  -1535728.68761
  19798539.509   -23139022.020 7 -17941453.08723
 91  5 14 22 14 14.9970000  0  4G13G 2G15G 6
  20688535.314   -15264307.062 6  -9316889.48721
  20239428.2354    -344750.33347   -250879.95163
  23118231.4074   -2745175.05845  -1536983.61461
  19796687.2204  -23148745.53647 -17949029.84663
 91  5 14 22 14 29.9970000  0  4G13G 2G15G 6
  20679262.993   -15313030.702 6  -9354855.88621
  20240978.0014    -336597.02747   -244526.72663
  23117960.915    -2746647.606 5  -1538131.03421
  19794857.3764  -23158372.70947 -17956531.53563
 91  5 14 22 14 44.9970000  0  4G13G 2G15G 6
  20670011.571   -15361636.158 6  -9392730.19721
  20242539.6964    -328391.74547   -238133.00263
  23117697.8994   -2747978.28645  -1539167.92461
  19793044.399   -23167899.138 7 -17963954.71423
 91  5 14 22 14 59.9970000  0  4G13G 2G15G 6
  20660784.423   -15410121.535 6  -9430510.93621
  20244110.3064    -320132.51247   -231697.23663
  23117479.524    -2749165.478 5  -1540092.99521
  19791250.7984  -23177322.88747 -17971297.88863
 91  5 14 22 15 14.9970000  0  4G13G 2G15G 6
  20651579.2434  -15458491.05746  -9468201.40561
  20245692.3684    -311824.09747   -225223.14563
  23117276.3454   -2750213.69445  -1540909.77861
  19789475.2674  -23186648.56747 -17978564.64263
 91  5 14 22 15 29.9970000  0  4G13G 2G15G 6
  20642399.689   -15506743.898 6  -9505800.94721
  20247283.7284    -303465.94547   -218710.30563
  23117100.0484   -2751122.30045  -1541617.78461
  19787719.6034  -23195874.97047 -17985754.04363
 91  5 14 22 15 44.9970000  0  4G13G 2G15G 6
  20633237.1574  -15554878.29746  -9543308.20261
  20248883.6654    -295056.71847   -212157.66063
  23116951.9464   -2751889.66745  -1542215.73861
  19785983.7124  -23205000.88447 -17992865.14163
 91  5 14 22 15 59.9970000  0  4G13G 2G15G 6
  20624100.032   -15602896.557 6  -9580724.95921
  20250492.2744    -286598.75647   -205567.04063
  23116843.1264   -2752518.46345  -1542705.71961
  19784266.2354  -23214028.35947 -17999899.52863
 91  5 14 22 16 14.9970000  0  4G13G 2G15G 6
  20614987.017   -15650793.826 6  -9618047.42921
  20252112.9394    -278087.36647   -198934.78863
  23116745.7904   -2753003.68645  -1543083.79961
  19782568.9394  -23222952.58247 -18006853.46363
 91  5 14 22 16 29.9970000  0  4G13G 2G15G 6
  20605893.306   -15698570.239 6  -9655275.72721
  20253743.5794    -269523.39747   -192261.56263
  23116679.2434   -2753346.15545  -1543350.67161
  19780888.9234  -23231773.98547 -18013727.28363
 91  5 14 22 16 44.9970000  0  4G13G 2G15G 6
  20596826.7204  -15746226.35046  -9692410.29861
  20255383.7204    -260907.65747   -185548.00063
  23116637.4464   -2753546.56845
  19779228.9394  -23240493.06747 -18020521.37063
 91  5 14 22 16 59.9970000  0  4G13G 2G15G 6
  20587779.970   -15793763.295 6  -9729452.00321
  20257031.1264    -252241.72648   -178795.32463
  23116636.8144   -2753606.66545
  19777591.2124  -23249111.27447 -18027236.85563
 91  5 14 22 17 14.9970000  0  4G13G 2G15G 6
  20578757.1654  -15841180.25346  -9766400.21261
  20258689.5174    -243524.83448   -172002.94163
  23116644.1424   -2753525.67945
  19775970.4234  -23257627.90547 -18033873.18563
 91  5 14 22 17 29.9970000  0  4G13G 2G15G 6
  20569754.267   -15888478.496 6  -9803255.91421
  20260358.0014    -234758.63148   -165172.13363
  23116686.4074   -2753305.19745
  19774367.0874  -23266044.01647 -18040431.18863
 91  5 14 22 17 44.9970000  0  4G13G 2G15G 6
  20560777.712   -15935655.788 6  -9840017.37121
  20262036.6814    -225941.03348   -158301.27863
  23116757.306    -2752943.080 5
  19772787.0954  -23274357.52547 -18046909.24763
 91  5 14 22 17 59.9970000  0  4G13G 2G15G 6
  20551823.6344  -15982714.86746  -9876686.71961
  20263724.2124    -217075.20248   -151392.83863
  23116851.298    -2752442.284 5  -1542646.33121
  19771222.4464  -23282571.14147 -18053309.46463
 91  5 14 22 18 14.9970000  0  4G13G 2G15G 6
  20542889.8534  -16029651.15846  -9913260.38661
  20265421.9464    -208157.07548   -144443.64863
  23116974.7674   -2751798.74545  -1542144.86061
  19769679.0174  -23290680.61347 -18059628.53163
 91  5 14 22 18 29.9970000  0  4G13G 2G15G 6
  20533981.2984  -16076468.14246  -9949741.08261
  20267125.9314    -199190.08748   -137456.38963
  23117118.962    -2751015.818 5  -1541534.79321
  19768154.3924  -23298689.30047 -18065869.06363
 91  5 14 22 18 44.9970000  0  4G13G 2G15G 6
  20525096.360   -16123162.122 6  -9986125.92621
  20268843.5324    -190171.04948   -130428.56863
  23117303.1034   -2750090.34145  -1540813.65261
  19766650.1184  -23306593.60247 -18072028.26163
 91  5 14 22 18 59.9970000  0  4G13G 2G15G 6
  20516236.4544  -16169733.99246 -10022415.62761
  20270569.5404    -181101.27548   -123361.21063
  23117504.9784   -2749023.27345  -1539982.17061
  19765165.7284  -23314394.61647 -18078106.96963
 91  5 14 22 19 14.9970000  0  4G13G 2G15G 6
  20507396.798   -16216184.205 6 -10058610.53121
  20272304.0714    -171981.16548   -116254.62863
  23117729.4854   -2747815.31445  -1539040.90861
  19763701.3064  -23322092.54147 -18084105.34963
 91  5 14 22 19 29.9970000  0  4G13G 2G15G 6
  20498579.6344  -16262514.77446 -10094712.20361
  20274048.2824    -162813.22648   -109110.78363
  23117990.1104   -2746469.05845  -1537991.85461
  19762256.2044  -23329689.75047 -18090025.24963
 91  5 14 22 19 44.9970000  0  4G13G 2G15G 6
  20489785.657   -16308719.124 6 -10130715.51621
  20275803.4704    -153591.04848   -101924.67163
  23118274.0794   -2744977.84845  -1536829.87461
  19760829.4854  -23337179.57347 -18095861.47463
 91  5 14 22 19 59.9970000  0  4G13G 2G15G 6
  20481014.173   -16354800.662 6 -10166623.13521
  20277566.6424    -144318.62548    -94699.40863
  23118588.212    -2743345.535 5  -1535557.92321
  19759425.0564  -23344565.68447 -18101616.88563
 91  5 14 22 20 14.9970000  0  4G13G 2G15G 6
  20472271.157   -16400758.718 6 -10202434.54021
  20279342.0244    -134995.20248    -87434.40463
  23118918.8454   -2741571.81245  -1534175.81661
  19758039.6964  -23351847.38547 -18107290.93663
 91  5 14 22 20 29.9970000  0  4G13G 2G15G 6
  20463547.5324  -16446596.27046 -10238152.05361
  20281126.1264    -125624.26048    -80132.37563
  23119290.7204   -2739659.81045  -1532685.92161
  19756673.5874  -23359027.64547 -18112885.94263
 91  5 14 22 20 44.9970000  0  4G13G 2G15G 6
  20454848.8604  -16492308.96647 -10273772.26661
  20282918.6574    -116201.94648    -72790.31463
  23119673.814    -2737605.671 5  -1531085.29521
  19755326.9544  -23366102.58647 -18118398.88263
 91  5 14 22 20 59.9970000  0  4G13G 2G15G 6
  20446174.0174  -16537900.35347 -10309297.95061
  20284721.1494    -106731.87648    -65411.04063
  23120098.6654   -2735413.12845  -1529376.80961
  19754000.5324  -23373075.62747 -18123832.42063
 91  5 14 22 21 14.9970000  0  4G13G 2G15G 6
  20437523.9154  -16583367.95647 -10344727.18761
  20286533.9074     -97211.92048    -57992.89663
  23120539.0564   -2733080.00145  -1527558.78961
  19752693.4934  -23379944.28347 -18129184.62263
 91  5 14 22 21 29.9970000  0  4G13G 2G15G 6
  20428895.2284  -16628708.14247 -10380057.13361
  20288353.0484     -87638.87348    -50533.38563
  23121007.165    -2730602.908 5  -1525628.58721
  19751407.3764  -23386705.11947 -18134452.80163
 91  5 14 22 21 44.9970000  0  4G13G 2G15G 6
  20420287.8764  -16673925.54947 -10415291.40661
  20290186.6494     -78017.53648    -43036.24063
  23121506.978    -2727986.603 5  -1523589.90221
  19750138.5324  -23393362.72547 -18139640.54463
 91  5 14 22 21 59.9970000  0  4G13G 2G15G 6
  20411704.5244  -16719020.73747 -10450430.45261
  20292026.1734     -68348.39148    -35501.84563
  23122031.7744   -2725231.67545  -1521443.20361
  19748891.5484  -23399917.54447 -18144748.19563
 91  5 14 22 22 14.9970000  0  4G13G 2G15G 6
  20403149.5244  -16763994.02647 -10485474.51061
  20293873.9394     -58632.29048    -27930.86663
  23122580.1104   -2722338.90645  -1519189.08761
  19747664.6034  -23406369.89147 -18149775.99763
 91  5 14 22 22 29.9970000  0  4G13G 2G15G 6
  20394615.2674  -16808842.55847 -10520421.34861
  20295731.4394     -48866.64148    -20321.27463
  23123156.1264   -2719305.86045  -1516825.66561
  19746456.5794  -23412717.23647 -18154721.98163
 91  5 14 22 22 44.9970000  0  4G13G 2G15G 6
  20386103.9934  -16853566.05947 -10555270.76561
  20297600.2594     -39051.58948    -12673.19063
  23123758.4394   -2716132.47145  -1514352.90461
  19745269.1574  -23418959.33147 -18159585.95063
 91  5 14 22 22 59.9970000  0  4G13G 2G15G 6
  20377620.7124  -16898161.37747 -10590020.29561
  20299477.4934     -29184.29048     -4984.38963
  23124391.3994   -2712815.75045  -1511768.43161
  19744102.8684  -23425093.05247 -18164365.46863
 91  5 14 22 23 14.9970000  0  4G13G 2G15G 6
  20369156.462   -16942630.794 7 -10624671.72421
  20301363.9464     -19267.07748      2743.30363
  23125052.7354   -2709358.17245  -1509074.21961
  19742954.0404  -23431120.64147 -18169062.29263
 91  5 14 22 23 29.9970000  0  4G13G 2G15G 6
  20360716.8844  -16986974.02447 -10659224.82161
  20303262.2824      -9299.92548     10509.91063
  23125737.821    -2705759.704 5  -1506270.21021
  19741826.0954  -23437041.86747 -18173676.23163
 91  5 14 22 23 44.9970000  0  4G13G 2G15G 6
  20352303.6034  -17031187.85347 -10693677.08761
  20305170.5644        720.13748     18317.74563
  23126450.962    -2702017.339 5  -1503354.05121
  19740722.7744  -23442853.67747 -18178204.92163
 91  5 14 22 23 59.9970000  0  4G13G 2G15G 6
  20343913.7284  -17075276.41647 -10728031.74661
  20307083.9624      10788.49548     26163.20963
  23127184.228    -2698135.899 5  -1500329.57821
  19739636.6104  -23448560.53947 -18182651.82263
 91  5 14 22 24 14.9970000  0  4G13G 2G15G 6
  20335549.0564  -17119238.93247 -10762288.18961
  20309008.4784      20905.64148     34046.70063
  23127950.267    -2694114.866 5  -1497196.30621
  19738568.9854  -23454161.39047 -18187016.12463
 91  5 14 22 24 29.9970000  0  4G13G 2G15G 6
  20327207.8924  -17163072.52547 -10796444.16461
  20310943.6344      31074.23248     41970.27263
  23128746.806    -2689951.451 5  -1493952.06521
  19737523.6104  -23459653.61647 -18191295.78063
 91  5 14 22 24 44.9970000  0  4G13G 2G15G 6
  20318888.2904  -17206781.64347 -10830503.15661
  20312888.1894      41289.47448     49930.19763
  23129556.6894   -2685650.52445  -1490600.70661
  19736497.8764  -23465041.63947 -18195494.23563
 91  5 14 22 24 59.9970000  0  4G13G 2G15G 6
  20310596.2984  -17250363.15647 -10864462.71261
  20314843.2044      51554.28248     57928.73963
  23130406.704    -2681209.218 5  -1487139.94921
  19735495.3534  -23470322.40947 -18199609.12263
 91  5 14 22 25 14.9970000  0  4G13G 2G15G 6
  20302325.9154  -17293815.54147 -10898321.64861
  20316804.5714      61870.08248     65967.02263
  23131278.673    -2676626.040 5  -1483568.63521
  19734510.1424  -23475494.28747 -18203639.15663
 91  5 14 22 25 29.9970000  0  4G13G 2G15G 6
  20294082.6424  -17337141.17047 -10932081.81161
  20318777.6494      72234.05448     74042.83563
  23132176.634    -2671903.941 5  -1479889.08421
  19733546.4154  -23480559.78147 -18207586.29163
 91  5 14 22 25 44.9970000  0  4G13G 2G15G 6
  20285862.8454  -17380338.76247 -10965742.21061
  20320759.5484      82647.45548     82157.16963
  23133100.3214   -2667041.64045  -1476100.28061
  19732602.9314  -23485517.74347 -18211449.64363
 91  5 14 22 25 59.9970000  0  4G13G 2G15G 6
  20277666.3764  -17423407.77547 -10999302.41361
  20322750.1184      93110.42348     90310.12463
  23134054.6654   -2662038.66845  -1472201.86861
  19731680.5714  -23490367.68647 -18215228.81063
 91  5 14 22 26 14.9970000  0  4G13G 2G15G 6
  20269494.2124  -17466350.21147 -11032763.99261
  20324750.0014     103620.78148     98500.00863
  23135022.6344   -2656897.39545  -1468195.69661
  19730776.7984  -23495111.64247 -18218925.40363
 91  5 14 22 26 29.9970000  0  4G13G 2G15G 6
  20261351.2904  -17509162.85447 -11066124.43261
  20326758.7204     114181.47248    106729.11963
  23136035.0954   -2651615.03545  -1464079.55761
  19729893.1494  -23499746.37047 -18222536.87863
 91  5 14 22 26 44.9970000  0  4G13G 2G15G 6
  20253226.1964  -17551847.79747 -11099385.36361
  20328777.6964     124789.92848    114995.44063
  23137067.0324   -2646194.21245  -1459855.52361
  19729033.1344  -23504274.19147 -18226065.04663
 91  5 14 22 26 59.9970000  0  4G13G 2G15G 6
  20245128.040   -17594405.183 7 -11132546.90321
  20330804.7514     135445.75348    123298.68163
  23138115.220    -2640634.970 5  -1455523.63621
  19728192.6574  -23508695.20247 -18229509.99263
 91  5 14 22 27 14.9970000  0  4G13G 2G15G 6
  20237052.2204  -17636832.50747 -11165607.09161
  20332841.9154     146151.32548    131640.67963
  23139215.251    -2634935.437 5  -1451082.43121
  19727371.5014  -23513007.12747 -18232869.93163
 91  5 14 22 27 29.9970000  0  4G13G 2G15G 6
  20229005.1424  -17679127.16947 -11198563.91061
  20334889.5014     156909.01348    140023.28963
  23140325.157    -2629093.169 5  -1446530.03921
  19726574.2514  -23517207.29047 -18236142.79163
 91  5 14 22 27 44.9970000  0  4G13G 2G15G 6
  20220981.5094  -17721292.49947 -11231419.95261
  20336947.3374     167715.36448    148443.81863
  23141466.5564   -2623111.55145  -1441869.02161
  19725794.1814  -23521298.99047 -18239331.12663
 91  5 14 22 27 59.9970000  0  4G13G 2G15G 6
  20212983.110   -17763324.680 7 -11264172.24321
  20339013.7744     178573.88748    156904.99963
  23142630.415    -2616987.246 5  -1437096.86521
  19725038.0324  -23525278.54847 -18242432.07663
 91  5 14 22 28 14.9970000  0  4G13G 2G15G 6
  20205009.4544  -17805225.04447 -11296821.82061
  20341089.3064     189482.87748    165405.51063
  23143817.1734   -2610721.89645  -1432214.79361
  19724298.7594  -23529147.32247 -18245446.70663
 91  5 14 22 28 29.9970000  0  4G13G 2G15G 6
  20197060.3684  -17846993.22647 -11329368.39761
  20343174.0014     200442.57448    173945.52663
  23145040.126    -2604315.134 5  -1427222.50921
  19723584.9784  -23532904.95347 -18248374.72863
 91  5 14 22 28 44.9970000  0  4G13G 2G15G 6
  20189135.7984  -17888628.31747 -11361811.26261
  20345268.2434     211453.63148    182525.56863
  23146289.439    -2597766.287 5  -1422119.53221
  19722891.5714  -23536550.54047 -18251215.44163
 91  5 14 22 28 59.9970000  0  4G13G 2G15G 6
  20181241.048   -17930134.074 7 -11394153.36021
  20347372.0874     222512.06648    191142.52563
  23147559.3764   -2591079.52745  -1416909.08161
  19722218.9234  -23540087.95447 -18253971.86963
 91  5 14 22 29 14.9970000  0  4G13G 2G15G 6
  20173364.399   -17971511.423 7 -11426395.38921
  20349486.6264     233616.67848    199795.46163
  23148856.7124   -2584256.10545  -1411592.12261
  19721565.0174  -23543518.08047 -18256644.68863
 91  5 14 22 29 29.9970000  0  4G13G 2G15G 6
  20165516.6574  -18012757.08647 -11458534.81161
  20351608.5404     244770.51248    208486.75563
  23150179.5484   -2577292.96945  -1406166.31561
  19720934.8604  -23546837.82847 -18259231.50663
 91  5 14 22 29 44.9970000  0  4G13G 2G15G 6
  20157691.4934  -18053871.83847 -11490572.22361
  20353741.0324     255972.43248    217215.51963
  23151528.3684   -2570191.30545  -1400632.55061
  19720324.5714  -23550048.12847 -18261733.04163
 91  5 14 22 29 59.9970000  0  4G13G 2G15G 6
  20149893.9074  -18094854.94547 -11522507.05661
  20355884.2904     267223.06448    225982.23563
  23152909.017    -2562950.610 5  -1394990.45521
  19719733.5564  -23553147.94647 -18264148.48163
 91  5 14 22 30 14.9970000  0  4G13G 2G15G 6
  20142120.4544  -18135702.19447 -11554336.02261
  20358034.3374     278526.29648    234789.94063
  23154313.3294   -2555567.05645  -1389237.06761
  19719165.7984  -23556133.51847 -18266474.90063
 91  5 14 22 30 29.9970000  0  4G13G 2G15G 6
  20134374.235   -18176417.430 7 -11586062.12321
  20360193.8604     289878.06648    243635.47563
  23155747.462    -2548044.649 5  -1383375.43721
  19718618.7904  -23559008.38147 -18268715.05463
 91  5 14 22 30 44.9970000  0  4G13G 2G15G 6
  20126648.4624  -18216998.78847 -11617683.90461
  20362362.2594     301279.94948    252520.04663
  23157204.3214   -2540381.90545  -1377404.47261
  19718092.4934  -23561771.00647 -18270867.74763
 91  5 14 22 30 59.9970000  0  4G13G 2G15G 6
  20118952.860   -18257449.440 7 -11649203.83521
  20364541.0714     312728.64048    261441.09863
  23158687.4154   -2532582.29245  -1371326.86561
  19717586.7354  -23564424.48947 -18272935.39763
 91  5 14 22 31 14.9970000  0  4G13G 2G15G 6
  20111280.2594  -18297768.78047 -11680621.44861
  20366729.0244     324224.56948    270398.95963
  23160200.9704   -2524645.25745  -1365142.18861
  19717101.9784  -23566968.25147 -18274917.54663
 91  5 14 22 31 29.9970000  0  4G13G 2G15G 6
  20103634.384   -18337953.835 7 -11711934.42821
  20368925.8454     335770.57748    279395.84263
  23161738.962    -2516567.953 5  -1358848.17121
  19716642.0094  -23569399.30847 -18276811.87563
 91  5 14 22 31 44.9970000  0  4G13G 2G15G 6
  20096011.8604  -18378004.40747 -11743142.60661
  20371131.6654     347366.50548    288431.62363
  23163297.634    -2508350.749 5  -1352445.17621
  19716199.3374  -23571717.52747 -18278618.28063
 91  5 14 22 31 59.9970000  0  4G13G 2G15G 6
  20088414.040   -18417921.941 7 -11774247.12721
  20373348.4784     359010.82548    297505.11063
  23164893.064    -2499995.273 5  -1345934.43221
  19715776.9784  -23573924.30847 -18280337.85163
 91  5 14 22 32 14.9970000  0  4G13G 2G15G 6
  20080845.923   -18457704.764 7 -11805246.67521
  20375574.6654     370704.98348    306617.43663
  23166508.3214   -2491499.97345  -1339314.71361
  19715381.0644  -23576018.16247 -18281969.42663
 91  5 14 22 32 29.9970000  0  4G13G 2G15G 6
  20073299.892   -18497353.465 7 -11836141.71521
  20377809.0644     382447.95448    315767.79463
  23168150.4934   -2482865.82745  -1332586.81261
  19715003.9624  -23577999.73847 -18283513.51163
 91  5 14 22 32 44.9970000  0  4G13G 2G15G 6
  20065782.876   -18536865.785 7 -11866930.48121
  20380053.181      394241.797 8    324957.79223
  23169816.7824   -2474091.01345  -1325749.30261
  19714648.3844  -23579866.96847 -18284968.50063
 91  5 14 22 32 59.9970000  0  4G13G 2G15G 6
  20058286.548   -18576244.414 7 -11897615.06721
  20382306.9394     406083.72348    334185.25863
  23171512.610    -2465178.575 5  -1318804.54621
  19714314.9624  -23581622.31147 -18286336.30163
 91  5 14 22 33 14.9970000  0  4G13G 2G15G 6
  20050819.556   -18615491.987 7 -11928197.54521
  20384568.5564     417970.91148    343447.99463
  23173233.353    -2456131.041 5  -1311754.52121
  19714000.2594  -23583268.42847 -18287618.99362
 91  5 14 22 33 29.9970000  0  4G13G 2G15G 6
  20043375.196   -18654602.511 7 -11958673.22621
  20386839.1184     429909.05648    352750.44063
  23174989.1264   -2446942.86245  -1304594.89661
  19713709.7984  -23584799.30547 -18288811.88763
 91  5 14 22 33 44.9970000  0  4G13G 2G15G 6
  20035961.228   -18693580.821 7 -11989045.88521
  20389122.5484     441893.09548    362088.63863
  23176763.4234   -2437619.63145  -1297330.05161
  19713439.7434  -23586220.09247 -18289918.99263
 91  5 14 22 33 59.9970000  0  4G13G 2G15G 6
  20028565.142   -18732425.404 7 -12019314.33821
  20391409.5794     453924.33548    371463.63363
  23178556.743    -2428159.869 5  -1289958.81221
  19713189.3294  -23587529.27947 -18290939.14363
 91  5 14 22 34 14.9970000  0  4G13G 2G15G 6
  20021201.774   -18771135.270 7 -12049477.82321
  20393710.0564     466003.65248    380876.07263
  23180384.376    -2418562.475 5  -1282480.34821
  19712962.5794  -23588725.78247 -18291871.48563
 91  5 14 22 34 29.9970000  0  4G13G 2G15G 6
  20013860.220   -18809709.151 7 -12079535.34021
  20396015.6894     478132.14447    390326.84263
  23182240.720    -2408826.421 5  -1274893.83021
  19712756.7434  -23589808.37847 -18292715.06563
